[[{"header":{"parameterUnit":"m.s-1","parameterCategory":1,"la1":30.6,"la2":28.766,"lo1":-90.7593,"lo2":-88.6598,"dy":0.0162,"dx":0.0183,"nx":116,"ny":114,"refTime":"2023-05-26T12:00:00:Z","depth":0,"parameterNumber":2,"parameterNumberName":"U-component_of_WINDS"},"data":[0.0,0.0,0.0,0.0,0.0,0.0,0.0,0.0,0.0,0.0,0.0,0.0,0.0,0.0,0.0,0.0,0.0,0.0,0.0,0.0,0.0,0.0,0.0,0.0,0.0,0.0,0.0,0.0,0.0,0.0,0.0,0.0,0.0,0.0,0.0,0.0,0.0,0.0,0.0,0.0,0.0,0.0,0.0,0.0,0.0,0.0,0.0,0.0,0.0,0.0,0.0,0.0,0.0,0.0,0.0,0.0,0.0,0.0,0.0,0.0,0.0,0.0,0.0,0.0,0.0,0.0,0.0,0.0,0.0,0.0,0.0,0.0,0.0,0.0,0.0,0.0,0.0,0.0,0.0,0.0,0.0,0.0,0.0,0.0,0.0,0.0,0.0,0.0,0.0,0.0,0.0,0.0,0.0,0.0,0.0,0.0,0.0,0.0,0.0,0.0,0.0,0.0,0.0,0.0,0.0,0.0,0.0,0.0,0.0,0.0,0.0,0.0,0.0,0.0,0.0,0.0,0.0,0.0,0.0,0.0,0.0,0.0,0.0,0.0,0.0,0.0,0.0,0.0,0.0,0.0,0.0,0.0,0.0,0.0,0.0,0.0,0.0,0.0,0.0,0.0,0.0,0.0,0.0,0.0,0.0,0.0,0.0,0.0,0.0,0.0,0.0,0.0,0.0,0.0,0.0,0.0,0.0,0.0,0.0,0.0,0.0,0.0,0.0,0.0,0.0,0.0,0.0,0.0,0.0,0.0,0.0,0.0,0.0,0.0,0.0,0.0,0.0,0.0,0.0,0.0,0.0,0.0,0.0,0.0,0.0,0.0,0.0,0.0,0.0,0.0,0.0,0.0,0.0,0.0,0.0,0.0,0.0,0.0,0.0,0.0,0.0,0.0,0.0,0.0,0.0,0.0,0.0,0.0,0.0,0.0,0.0,0.0,0.0,0.0,0.0,0.0,0.0,0.0,0.0,0.0,0.0,0.0,0.0,0.0,0.0,0.0,0.0,0.0,0.0,0.0,0.0,0.0,0.0,0.0,0.0,0.0,0.0,0.0,0.0,0.0,0.0,0.0,0.0,0.0,0.0,0.0,0.0,0.0,0.0,0.0,0.0,0.0,0.0,0.0,0.0,0.0,0.0,0.0,0.0,0.0,0.0,0.0,0.0,0.0,0.0,0.0,0.0,0.0,0.0,0.0,0.0,0.0,0.0,0.0,0.0,0.0,0.0,0.0,0.0,0.0,0.0,0.0,0.0,0.0,0.0,0.0,0.0,0.0,0.0,0.0,0.0,0.0,0.0,0.0,0.0,0.0,0.0,0.0,0.0,0.0,0.0,0.0,0.0,0.0,0.0,0.0,0.0,0.0,0.0,0.0,0.0,0.0,0.0,0.0,0.0,0.0,0.0,0.0,0.0,0.0,0.0,0.0,0.0,0.0,0.0,0.0,0.0,0.0,0.0,0.0,0.0,0.0,0.0,0.0,0.0,0.0,0.0,0.0,0.0,0.0,0.0,0.0,0.0,0.0,0.0,0.0,0.0,0.0,0.0,0.0,0.0,0.0,0.0,0.0,0.0,0.0,0.0,0.0,0.0,0.0,0.0,0.0,0.0,0.0,0.0,0.0,0.0,0.0,0.0,0.0,0.0,0.0,0.0,0.0,0.0,0.0,0.0,0.0,0.0,0.0,0.0,0.0,0.0,0.0,0.0,0.0,0.0,0.0,0.0,0.0,0.0,0.0,0.0,0.0,0.0,0.0,0.0,0.0,0.0,0.0,0.0,0.0,0.0,0.0,0.0,0.0,0.0,0.0,0.0,0.0,0.0,0.0,0.0,0.0,0.0,0.0,0.0,0.0,0.0,0.0,0.0,0.0,0.0,0.0,0.0,0.0,0.0,0.0,0.0,0.0,0.0,0.0,0.0,0.0,0.0,0.0,0.0,0.0,0.0,0.0,0.0,0.0,0.0,0.0,0.0,0.0,0.0,0.0,0.0,0.0,0.0,0.0,0.0,0.0,0.0,0.0,0.0,0.0,0.0,0.0,0.0,0.0,0.0,0.0,0.0,0.0,0.0,0.0,0.0,0.0,0.0,0.0,0.0,0.0,0.0,0.0,0.0,0.0,0.0,0.0,0.0,0.0,0.0,0.0,0.0,0.0,0.0,0.0,0.0,0.0,0.0,0.0,0.0,0.0,0.0,0.0,0.0,0.0,0.0,0.0,0.0,0.0,0.0,0.0,0.0,0.0,0.0,0.0,0.0,0.0,0.0,0.0,0.0,0.0,0.0,0.0,0.0,0.0,0.0,0.0,0.0,0.0,0.0,0.0,0.0,0.0,0.0,0.0,0.0,0.0,0.0,0.0,0.0,0.0,0.0,0.0,0.0,0.0,0.0,0.0,0.0,0.0,0.0,0.0,0.0,0.0,0.0,0.0,0.0,0.0,0.0,0.0,0.0,0.0,0.0,0.0,0.0,0.0,0.0,0.0,0.0,0.0,0.0,0.0,0.0,0.0,0.0,0.0,0.0,0.0,0.0,0.0,0.0,0.0,0.0,0.0,0.0,0.0,0.0,0.0,0.0,0.0,0.0,0.0,0.0,0.0,0.0,0.0,0.0,0.0,0.0,0.0,0.0,0.0,0.0,0.0,0.0,0.0,0.0,0.0,0.0,0.0,0.0,0.0,0.0,0.0,0.0,0.0,0.0,0.0,0.0,0.0,0.0,0.0,0.0,0.0,0.0,0.0,0.0,0.0,0.0,0.0,0.0,0.0,0.0,0.0,0.0,0.0,0.0,0.0,0.0,0.0,0.0,0.0,0.0,0.0,0.0,0.0,0.0,0.0,0.0,0.0,0.0,0.0,0.0,0.0,0.0,0.0,0.0,0.0,0.0,0.0,0.0,0.0,0.0,0.0,0.0,0.0,0.0,0.0,0.0,0.0,0.0,0.0,0.0,0.0,0.0,0.0,0.0,0.0,0.0,0.0,0.0,0.0,0.0,0.0,0.0,0.0,0.0,0.0,0.0,0.0,0.0,0.0,0.0,0.0,0.0,0.0,0.0,0.0,0.0,0.0,0.0,0.0,0.0,0.0,0.0,0.0,0.0,0.0,0.0,0.0,0.0,0.0,0.0,0.0,0.0,0.0,0.0,0.0,0.0,0.0,0.0,0.0,0.0,0.0,0.0,0.0,0.0,0.0,0.0,0.0,0.0,0.0,0.0,0.0,0.0,0.0,0.0,0.0,0.0,0.0,0.0,0.0,0.0,0.0,0.0,0.0,0.0,0.0,0.0,0.0,0.0,0.0,0.0,0.0,0.0,0.0,0.0,0.0,0.0,0.0,0.0,0.0,0.0,0.0,0.0,0.0,0.0,0.0,0.0,0.0,0.0,0.0,0.0,0.0,0.0,0.0,0.0,0.0,0.0,0.0,0.0,0.0,0.0,0.0,0.0,0.0,0.0,0.0,0.0,0.0,0.0,0.0,0.0,0.0,0.0,0.0,0.0,0.0,0.0,0.0,0.0,0.0,0.0,0.0,0.0,0.0,0.0,0.0,0.0,0.0,0.0,0.0,0.0,0.0,0.0,0.0,0.0,0.0,0.0,0.0,0.0,0.0,0.0,0.0,0.0,0.0,0.0,0.0,0.0,0.0,0.0,0.0,0.0,0.0,0.0,0.0,0.0,0.0,0.0,0.0,0.0,0.0,0.0,0.0,0.0,0.0,0.0,0.0,0.0,0.0,0.0,0.0,0.0,0.0,0.0,0.0,0.0,0.0,0.0,0.0,0.0,0.0,0.0,0.0,0.0,0.0,0.0,0.0,0.0,0.0,0.0,0.0,0.0,0.0,0.0,0.0,0.0,0.0,0.0,0.0,0.0,0.0,0.0,0.0,0.0,0.0,0.0,0.0,0.0,0.0,0.0,0.0,0.0,0.0,0.0,0.0,0.0,0.0,0.0,0.0,0.0,0.0,0.0,0.0,0.0,0.0,0.0,0.0,0.0,0.0,0.0,0.0,0.0,0.0,0.0,0.0,0.0,0.0,0.0,0.0,0.0,0.0,0.0,0.0,0.0,0.0,0.0,0.0,0.0,0.0,0.0,0.0,0.0,0.0,0.0,0.0,0.0,0.0,0.0,0.0,0.0,0.0,0.0,0.0,0.0,0.0,0.0,0.0,0.0,0.0,0.0,0.0,0.0,0.0,0.0,0.0,0.0,0.0,0.0,0.0,0.0,0.0,0.0,0.0,0.0,0.0,0.0,0.0,0.0,0.0,0.0,0.0,0.0,0.0,0.0,0.0,0.0,0.0,0.0,0.0,0.0,0.0,0.0,0.0,0.0,0.0,0.0,0.0,0.0,0.0,0.0,0.0,0.0,0.0,0.0,0.0,0.0,0.0,0.0,0.0,0.0,0.0,0.0,0.0,0.0,0.0,0.0,0.0,0.0,0.0,0.0,0.0,0.0,0.0,0.0,0.0,0.0,0.0,0.0,0.0,0.0,0.0,0.0,0.0,0.0,0.0,0.0,0.0,0.0,0.0,0.0,0.0,0.0,0.0,0.0,0.0,0.0,0.0,0.0,0.0,0.0,0.0,0.0,0.0,0.0,0.0,0.0,0.0,0.0,0.0,0.0,0.0,0.0,0.0,0.0,0.0,0.0,0.0,0.0,0.0,0.0,0.0,0.0,0.0,0.0,0.0,0.0,0.0,0.0,0.0,0.0,0.0,0.0,0.0,0.0,0.0,0.0,0.0,0.0,0.0,0.0,0.0,0.0,0.0,0.0,0.0,0.0,0.0,0.0,0.0,0.0,0.0,0.0,0.0,0.0,0.0,0.0,0.0,0.0,0.0,0.0,0.0,0.0,0.0,0.0,0.0,0.0,0.0,0.0,0.0,0.0,0.0,0.0,0.0,0.0,0.0,0.0,0.0,0.0,0.0,0.0,0.0,0.0,0.0,0.0,0.0,0.0,0.0,0.0,0.0,0.0,0.0,0.0,0.0,0.0,0.0,0.0,0.0,0.0,0.0,0.0,0.0,0.0,0.0,0.0,0.0,0.0,0.0,0.0,0.0,0.0,0.0,0.0,0.0,0.0,0.0,0.0,0.0,0.0,0.0,0.0,0.0,0.0,0.0,0.0,0.0,0.0,0.0,0.0,0.0,0.0,0.0,0.0,0.0,0.0,0.0,0.0,0.0,0.0,0.0,0.0,0.0,0.0,0.0,0.0,0.0,0.0,0.0,0.0,0.0,0.0,0.0,0.0,0.0,0.0,0.0,0.0,0.0,0.0,0.0,0.0,0.0,0.0,0.0,0.0,0.0,0.0,0.0,0.0,0.0,0.0,0.0,0.0,0.0,0.0,0.0,0.0,0.0,0.0,0.0,0.0,0.0,0.0,0.0,0.0,0.0,0.0,0.0,0.0,0.0,0.0,0.0,0.0,0.0,0.0,0.0,0.0,0.0,0.0,0.0,0.0,0.0,0.0,0.0,0.0,0.0,0.0,0.0,0.0,0.0,0.0,0.0,0.0,0.0,0.0,0.0,0.0,0.0,0.0,0.0,0.0,0.0,0.0,0.0,0.0,0.0,0.0,0.0,0.0,0.0,0.0,0.0,0.0,0.0,0.0,0.0,0.0,0.0,0.0,0.0,0.0,0.0,0.0,0.0,0.0,0.0,0.0,0.0,0.0,0.0,0.0,0.0,0.0,0.0,0.0,0.0,0.0,0.0,0.0,0.0,0.0,0.0,0.0,0.0,0.0,0.0,0.0,0.0,0.0,0.0,0.0,0.0,0.0,0.0,0.0,0.0,0.0,0.0,0.0,0.0,0.0,0.0,0.0,0.0,0.0,0.0,0.0,0.0,0.0,0.0,0.0,0.0,0.0,0.0,0.0,0.0,0.0,0.0,0.0,0.0,0.0,0.0,0.0,0.0,0.0,0.0,0.0,0.0,0.0,0.0,0.0,0.0,0.0,0.0,0.0,0.0,0.0,0.0,0.0,0.0,0.0,0.0,0.0,0.0,0.0,0.0,0.0,0.0,0.0,0.0,0.0,0.0,0.0,0.0,0.0,0.0,0.0,0.0,0.0,0.0,0.0,0.0,0.0,0.0,0.0,0.0,0.0,0.0,-1.381,0.0,0.0,0.0,0.0,0.0,0.0,0.0,0.0,0.0,0.0,0.0,0.0,0.0,0.0,0.0,0.0,0.0,0.0,0.0,0.0,0.0,0.0,0.0,0.0,0.0,0.0,0.0,0.0,0.0,0.0,0.0,0.0,0.0,0.0,0.0,0.0,0.0,0.0,0.0,0.0,0.0,0.0,0.0,0.0,0.0,0.0,0.0,0.0,0.0,0.0,0.0,0.0,0.0,0.0,0.0,0.0,0.0,0.0,0.0,0.0,0.0,0.0,0.0,0.0,0.0,0.0,0.0,0.0,0.0,0.0,0.0,0.0,0.0,0.0,0.0,0.0,0.0,0.0,0.0,0.0,0.0,0.0,0.0,0.0,0.0,0.0,0.0,0.0,0.0,0.0,0.0,0.0,0.0,0.0,0.0,0.0,0.0,0.0,0.0,0.0,0.0,0.0,0.0,0.0,0.0,0.0,0.0,0.0,0.0,0.0,0.0,0.0,0.0,0.0,0.0,0.0,-1.4545,0.0,0.0,0.0,0.0,0.0,0.0,0.0,0.0,0.0,0.0,0.0,0.0,0.0,0.0,0.0,0.0,0.0,0.0,0.0,0.0,0.0,0.0,0.0,0.0,0.0,0.0,0.0,0.0,0.0,0.0,0.0,0.0,0.0,0.0,0.0,0.0,0.0,0.0,0.0,0.0,0.0,0.0,0.0,0.0,0.0,0.0,0.0,0.0,0.0,0.0,0.0,0.0,0.0,0.0,0.0,0.0,0.0,0.0,0.0,0.0,0.0,0.0,0.0,0.0,0.0,0.0,0.0,0.0,0.0,0.0,0.0,0.0,0.0,0.0,0.0,0.0,0.0,0.0,0.0,0.0,0.0,0.0,0.0,0.0,0.0,0.0,0.0,0.0,0.0,0.0,0.0,0.0,0.0,0.0,0.0,0.0,0.0,0.0,0.0,0.0,0.0,0.0,0.0,0.0,0.0,0.0,0.0,0.0,-1.339,-1.4106,-1.4819,-1.5641,-1.6237,-1.6594,-1.5382,-1.5152,-1.5565,-1.5496,0.0,0.0,0.0,0.0,0.0,0.0,0.0,0.0,0.0,0.0,0.0,0.0,0.0,0.0,0.0,0.0,0.0,0.0,0.0,0.0,0.0,0.0,0.0,0.0,0.0,0.0,0.0,0.0,0.0,0.0,0.0,0.0,0.0,0.0,0.0,0.0,0.0,-2.6204,-2.651,-2.718,-2.744,-2.7411,-2.7231,0.0,0.0,0.0,0.0,0.0,0.0,0.0,0.0,0.0,0.0,0.0,0.0,0.0,0.0,0.0,0.0,0.0,0.0,0.0,0.0,0.0,0.0,0.0,0.0,0.0,0.0,0.0,0.0,0.0,0.0,0.0,0.0,0.0,0.0,0.0,0.0,0.0,0.0,0.0,0.0,0.0,0.0,0.0,-1.0833,-1.0594,0.0,0.0,0.0,0.0,0.0,0.0,0.0,0.0,0.0,0.0,0.0,0.0,0.0,-1.1983,-1.1983,-1.2927,-1.3415,-1.3492,-1.3853,-1.4443,-1.513,-1.4767,-1.5013,-1.57,-1.5668,0.0,-1.5756,-1.5413,0.0,0.0,0.0,0.0,0.0,0.0,0.0,0.0,0.0,0.0,0.0,0.0,0.0,0.0,0.0,0.0,0.0,0.0,0.0,0.0,0.0,0.0,0.0,0.0,0.0,0.0,0.0,0.0,0.0,0.0,0.0,0.0,0.0,0.0,0.0,0.0,-2.6935,-2.7418,-2.7958,-2.8361,-2.871,-2.8964,-2.8589,-2.8296,-2.8027,-2.7961,0.0,0.0,0.0,0.0,0.0,0.0,0.0,0.0,0.0,0.0,0.0,0.0,0.0,0.0,0.0,0.0,0.0,0.0,0.0,0.0,0.0,0.0,0.0,0.0,0.0,0.0,0.0,0.0,0.0,0.0,0.0,0.0,0.0,0.0,0.0,0.0,0.0,0.0,0.0,-1.2337,-1.1961,-1.1825,-1.2014,-1.2226,0.0,0.0,0.0,0.0,0.0,0.0,0.0,0.0,0.0,-1.2873,-1.3105,-1.3201,-1.3201,-1.3618,-1.3907,-1.3907,-1.4482,-1.4919,-1.5204,-1.5754,-1.6254,-1.6542,-1.6254,-1.6105,-1.6035,-1.5842,-1.563,-1.5559,0.0,0.0,0.0,0.0,-1.5686,-1.5872,0.0,0.0,0.0,0.0,0.0,0.0,0.0,0.0,0.0,0.0,0.0,0.0,0.0,0.0,0.0,-2.5005,0.0,0.0,0.0,0.0,0.0,0.0,0.0,0.0,0.0,0.0,0.0,-2.7541,-2.792,-2.8487,-2.9286,-2.9529,-2.9828,-3.0152,-3.0008,-2.9629,-2.8987,-2.8966,-2.9222,0.0,0.0,0.0,0.0,0.0,0.0,0.0,0.0,0.0,0.0,0.0,0.0,0.0,0.0,0.0,0.0,0.0,0.0,0.0,0.0,0.0,0.0,0.0,0.0,0.0,0.0,0.0,0.0,0.0,0.0,0.0,0.0,0.0,0.0,0.0,0.0,0.0,0.0,-1.3192,-1.3065,-1.2871,-1.2871,-1.2976,0.0,0.0,0.0,0.0,0.0,0.0,-1.3111,-1.3434,-1.3686,-1.3836,-1.4149,-1.439,-1.439,-1.4464,-1.4603,-1.4741,-1.5259,-1.5694,-1.6036,-1.6971,-1.7404,-1.7404,-1.6892,-1.6537,-1.6457,-1.5919,-1.584,-1.5996,-1.6201,-1.6119,-1.6062,-1.6277,-1.6523,-1.6703,0.0,0.0,0.0,0.0,0.0,0.0,0.0,0.0,0.0,0.0,0.0,0.0,0.0,0.0,-2.5005,-2.5005,-2.5582,-2.622,0.0,0.0,0.0,0.0,0.0,0.0,0.0,0.0,0.0,-2.8554,-2.8263,-2.8643,-2.9621,-2.9852,-2.998,-3.0066,-3.0932,-3.0615,-2.9501,-3.0152,-3.0223,-3.0013,0.0,0.0,0.0,0.0,0.0,0.0,0.0,0.0,0.0,0.0,0.0,0.0,0.0,0.0,0.0,0.0,0.0,0.0,0.0,0.0,0.0,0.0,0.0,0.0,0.0,0.0,0.0,0.0,0.0,0.0,0.0,0.0,0.0,0.0,0.0,0.0,0.0,0.0,0.0,-1.314,-1.308,0.0,0.0,0.0,0.0,-1.3988,-1.4004,-1.4004,-1.4004,-1.4332,-1.4515,-1.4515,-1.4843,-1.5026,-1.5026,-1.5488,-1.6,-1.6564,-1.6371,-1.6975,-1.8138,-1.7564,-1.7415,-1.7555,-1.7582,-1.7292,-1.6865,-1.5275,-1.4977,-1.5577,-1.6375,-1.6958,-1.7424,-1.7832,-1.8147,-1.8295,0.0,0.0,0.0,0.0,0.0,0.0,0.0,0.0,0.0,0.0,0.0,0.0,0.0,-2.5201,-2.5123,-2.5005,-2.5598,-2.6183,-2.6673,0.0,0.0,0.0,0.0,0.0,0.0,0.0,-2.9495,-2.8783,-2.9387,-3.0096,-3.0937,-3.1142,-3.1373,-3.1652,-3.1417,-3.1068,-3.0666,-3.0889,-3.0748,-3.0426,-3.0645,-3.0556,0.0,0.0,0.0,0.0,0.0,0.0,0.0,0.0,0.0,0.0,0.0,0.0,0.0,0.0,0.0,0.0,0.0,0.0,0.0,0.0,0.0,0.0,0.0,0.0,0.0,0.0,0.0,0.0,0.0,0.0,0.0,0.0,0.0,0.0,0.0,0.0,0.0,-1.4808,-1.4466,0.0,-1.4582,-1.4859,-1.4958,-1.4932,-1.4948,-1.4948,-1.4948,-1.5064,-1.5202,-1.5263,-1.5687,-1.6057,-1.6505,-1.6514,-1.6884,-1.7468,-1.7402,-1.7635,-1.8064,-1.8295,-1.8516,-1.8654,-1.8313,-1.81,-1.7989,-1.7267,-1.6946,-1.7086,-1.7382,-1.7824,-1.8313,-1.8397,-1.8723,-1.8958,0.0,0.0,0.0,0.0,0.0,0.0,0.0,0.0,0.0,0.0,0.0,-2.5605,-2.5432,-2.5394,-2.5355,-2.5185,-2.5982,-2.6656,-2.7089,0.0,0.0,0.0,-3.051,0.0,0.0,-3.0126,-3.0142,-2.9451,-3.0437,-3.1274,-3.2035,-3.2112,-3.2201,-3.2327,-3.1766,-3.1452,-3.1278,-3.1336,-3.1043,-3.0568,-3.0642,-3.0702,-3.0658,0.0,0.0,0.0,0.0,0.0,0.0,0.0,0.0,0.0,0.0,0.0,0.0,0.0,0.0,0.0,0.0,0.0,0.0,0.0,0.0,0.0,0.0,0.0,0.0,0.0,0.0,0.0,0.0,0.0,0.0,0.0,0.0,0.0,0.0,0.0,-1.6704,-1.6289,-1.592,-1.5715,-1.5798,-1.5964,-1.6097,-1.6105,-1.6296,-1.6361,-1.6361,-1.6474,-1.6689,-1.7058,-1.7183,-1.7638,-1.8344,-1.8275,-1.8656,-1.918,-1.9429,-1.9803,-2.0325,-2.0562,-2.0771,-2.0831,-2.0406,-2.0103,-1.99,-1.9389,-1.9174,-1.9099,-1.8601,-1.8695,-1.9108,-1.9108,-1.9364,-1.9621,0.0,0.0,0.0,0.0,0.0,0.0,0.0,0.0,0.0,0.0,-2.5881,-2.5807,-2.5605,-2.5605,-2.5605,-2.5605,-2.6712,-2.7684,-2.8371,-2.9577,0.0,0.0,0.0,0.0,-3.0572,-3.0521,-3.0521,-3.0556,-3.1248,-3.1928,-3.2602,-3.2602,-3.2327,-3.1936,-3.1879,-3.1652,-3.1336,-3.1437,-3.1146,-3.0642,-3.0762,-3.0821,-3.0821,0.0,0.0,0.0,0.0,0.0,0.0,0.0,0.0,0.0,0.0,0.0,0.0,0.0,0.0,0.0,0.0,0.0,0.0,0.0,0.0,0.0,0.0,0.0,0.0,0.0,0.0,0.0,0.0,0.0,0.0,0.0,0.0,0.0,-1.8879,-1.9,-1.8783,-1.7504,-1.7356,-1.7313,-1.718,-1.7071,-1.7133,-1.7613,-1.8028,-1.8236,-1.8227,-1.8581,-1.9103,-1.9807,-1.9437,-1.9639,-2.0382,-2.081,-2.1301,-2.1942,-2.2401,-2.3556,-2.5072,-2.4252,-2.397,-2.4049,-2.382,-2.3167,-2.2295,-2.1548,-2.1339,-2.1461,-1.9889,-1.9591,-1.9942,-1.9942,-2.0108,-2.0342,0.0,0.0,0.0,0.0,0.0,0.0,0.0,0.0,0.0,0.0,-2.5787,-2.5675,-2.5621,-2.5605,-2.5605,-2.5605,-2.7162,-2.8195,-2.8403,0.0,0.0,0.0,0.0,0.0,-2.9765,-3.0472,-3.0487,-2.975,-3.1101,-3.1921,-3.2089,-3.2089,-3.2104,-3.212,-3.1766,-3.161,-3.1567,-3.1351,-3.1117,-3.0955,-3.1014,-3.1014,-3.1014,0.0,0.0,0.0,0.0,0.0,0.0,0.0,0.0,0.0,0.0,0.0,0.0,0.0,0.0,0.0,0.0,0.0,0.0,0.0,0.0,0.0,0.0,0.0,0.0,0.0,0.0,0.0,0.0,0.0,0.0,0.0,0.0,-2.206,-2.1325,-2.0776,-2.0327,-1.9952,-1.9399,-1.9295,-1.9673,-1.9009,-1.884,-1.9504,-1.9186,-1.9164,-1.9656,-1.9268,-1.9649,-2.0872,-2.0578,-2.1125,-2.2646,-2.2605,-2.3111,-2.3971,-2.4151,-2.441,-2.4882,-2.4635,-2.4647,-2.4836,-2.4326,-2.4015,-2.3917,-2.3684,-2.3606,-2.3452,-2.0985,-2.0159,-2.0411,-2.0411,-2.0411,-2.0489,0.0,0.0,0.0,0.0,0.0,0.0,0.0,0.0,0.0,0.0,-2.5897,-2.584,-2.5844,-2.5844,-2.5938,-2.6119,-2.7582,-2.8746,-2.9249,0.0,0.0,0.0,0.0,-3.0464,-2.9401,-2.9978,-3.0113,-2.9788,-3.1042,-3.1667,-3.1667,-3.1667,-3.161,-3.1495,-3.1321,-3.1263,-3.1336,-3.1234,-3.1176,-3.119,-3.1249,-3.1249,-3.119,-3.1249,-3.0984,-3.0584,-3.0343,-3.0176,-2.9922,-2.9016,0.0,0.0,0.0,0.0,0.0,0.0,0.0,0.0,0.0,0.0,0.0,0.0,0.0,0.0,0.0,0.0,0.0,0.0,0.0,0.0,0.0,0.0,0.0,0.0,-2.3921,-2.3665,-2.389,-2.286,-2.203,-2.1997,-2.148,-2.1264,-2.1516,-2.0987,-2.0732,-2.1071,-2.1144,-2.1151,-2.1342,-2.1247,-2.1731,-2.2986,-2.2671,-2.3089,-2.4643,-2.4583,-2.4849,-2.5414,-2.5654,-2.5905,-2.6075,-2.6075,-2.6186,0.0,-2.5945,-2.5586,-2.5171,-2.4871,-2.4478,0.0,0.0,0.0,0.0,0.0,-2.1441,-2.1441,0.0,0.0,0.0,0.0,0.0,0.0,0.0,0.0,0.0,0.0,0.0,-2.622,-2.622,-2.6198,-2.6422,-2.6858,-2.8093,-2.9383,0.0,0.0,0.0,-3.0964,-3.0228,-2.9666,-2.9347,-2.9311,-2.9663,-3.0268,-3.0893,-3.1234,-3.1292,-3.1292,-3.1043,-3.0687,-3.0821,-3.0881,-3.0881,-3.1176,-3.1351,-3.1351,-3.1467,-3.1409,-3.1351,-3.1467,-3.1482,-3.1409,-3.0718,-3.0524,-3.0404,-2.9044,0.0,0.0,0.0,0.0,0.0,0.0,0.0,0.0,0.0,0.0,0.0,0.0,0.0,0.0,0.0,0.0,0.0,0.0,0.0,0.0,0.0,0.0,0.0,0.0,-2.56,-2.5368,-2.6335,-2.5067,-2.3932,-2.3831,-2.3477,-2.3267,-2.3135,-2.2975,-2.2774,-2.2624,-2.3483,-2.3714,-2.3222,0.0,0.0,0.0,0.0,-2.5253,-2.6362,-2.6362,-2.6445,-2.6434,-2.7092,-2.7603,-2.7962,-2.8042,-2.8088,-2.8086,-2.8086,-2.75,-2.6523,-2.5819,-2.4959,-2.3934,-2.3346,-2.3223,-2.3314,-2.2778,-2.2635,-2.2635,0.0,0.0,0.0,0.0,0.0,0.0,0.0,0.0,0.0,-2.622,-2.622,-2.622,-2.622,-2.6351,-2.6552,-2.6869,-2.8698,-3.0478,0.0,0.0,-3.1071,-3.0436,-2.9824,-2.9277,-2.8849,-2.9289,-2.9667,-2.9971,-3.0558,-3.0999,-3.1132,-3.1132,-3.1132,-3.1161,-3.1161,-3.1234,-3.1351,-3.1409,-3.1467,-3.1467,-3.1482,-3.1467,-3.1467,-3.1482,-3.1482,-3.1409,-3.0613,-3.0673,-3.0911,-2.9449,-2.8931,-2.8812,-2.8153,0.0,0.0,0.0,0.0,0.0,0.0,0.0,0.0,0.0,0.0,0.0,0.0,0.0,0.0,0.0,0.0,0.0,0.0,0.0,0.0,-2.7127,-2.6955,-2.6976,-2.7605,-2.6972,-2.6271,-2.5994,-2.5691,-2.5733,-2.6225,-2.5279,-2.483,-2.5365,-2.5094,-2.5052,-2.5516,-2.5062,-2.5473,-2.6846,-2.6185,-2.6445,-2.7545,-2.7545,-2.7708,-2.8099,0.0,0.0,-2.8645,-2.8816,-2.8834,-2.8893,-2.8893,-2.8753,-2.8499,-2.8409,-2.7425,-2.5716,-2.3535,-2.2706,-2.2788,-2.2625,-2.2635,-2.2635,0.0,0.0,0.0,0.0,0.0,0.0,0.0,0.0,0.0,0.0,-2.622,-2.6228,-2.6335,-2.6393,-2.668,-2.7394,-2.9201,0.0,0.0,-3.1147,-3.0302,-2.9528,-2.9234,-2.8961,-2.8737,-2.9305,-2.9842,-3.0353,-3.066,-3.0895,-3.1087,-3.1087,-3.1146,-3.119,-3.1292,-3.1351,-3.1409,-3.1467,-3.1482,-3.1539,-3.1597,-3.1597,-3.1482,-3.1482,-3.1278,-3.097,-3.0539,-3.0404,-3.0208,-2.9184,-2.8803,-2.8648,-2.7973,-2.7789,-2.7842,0.0,0.0,0.0,0.0,0.0,0.0,0.0,0.0,0.0,0.0,0.0,0.0,0.0,0.0,-2.8251,0.0,0.0,-2.7421,-2.7815,-2.7826,-2.7946,-2.8497,-2.8324,-2.7866,-2.7254,-2.6873,-2.6846,-2.7185,-2.6577,-2.6163,-2.6185,-2.6163,-2.6163,-2.6185,-2.6163,-2.6588,-2.7534,-2.7208,-2.7441,-2.8339,-2.8339,-2.8498,-2.8816,-2.8895,-2.8961,-2.8961,-2.9052,-2.9131,-2.9275,-2.9275,-2.9118,-2.8712,-2.781,-2.6905,-2.5942,-2.419,-2.3459,-2.3375,-2.3543,-2.3533,-2.3533,0.0,0.0,0.0,0.0,0.0,0.0,0.0,0.0,0.0,0.0,-2.6079,-2.6196,-2.646,-2.6342,-2.6751,0.0,0.0,0.0,0.0,-3.0389,-2.9572,-2.8751,-2.8681,-2.8681,-2.8681,-2.9421,-3.0119,-3.0821,-3.0821,-3.0895,-3.1132,-3.1132,-3.1132,-3.119,-3.1292,-3.1351,-3.1409,-3.1539,-3.1597,-3.1597,-3.1784,-3.1727,-3.1597,-3.1597,-3.1146,-3.0464,-3.0329,-2.995,-2.938,-2.8597,-2.8417,-2.8352,-2.7723,-2.7523,-2.759,-2.8157,-2.7908,0.0,0.0,0.0,0.0,0.0,0.0,0.0,0.0,0.0,-2.9582,-2.8425,-2.8933,-2.9322,-2.8412,-2.8126,-2.8201,-2.8546,-2.8556,-2.8627,-2.9069,-2.9131,-2.8895,-2.8203,-2.7765,-2.751,-2.7429,-2.7429,-2.7267,-2.6693,-2.7185,-2.7185,-2.6693,-2.7174,-2.7684,-2.803,-2.8122,-2.8351,-2.8882,-2.8882,-2.8961,-2.9131,-2.9131,-2.9131,-2.9131,-2.9209,-2.9287,-2.9509,-2.9509,-2.9184,-2.87,-2.6812,-2.6069,-2.5986,-2.4946,-2.4368,-2.4292,-2.4454,-2.454,-2.454,0.0,0.0,0.0,0.0,0.0,0.0,0.0,0.0,0.0,0.0,0.0,0.0,0.0,0.0,0.0,0.0,0.0,0.0,-3.0383,-2.9457,-2.881,-2.8681,-2.8681,-2.8681,-2.8681,-2.9856,-3.0569,-3.0821,-3.0821,-3.094,-3.1292,-3.1292,-3.1351,-3.1482,-3.1467,-3.1597,-3.1727,-3.1727,-3.1841,-3.194,-3.1996,-3.194,-3.194,-3.194,-3.1321,-3.0389,-2.9827,-2.9566,-2.9317,-2.8026,-2.8039,-2.8352,-2.7723,-2.7523,-2.7523,-2.759,0.0,-2.7523,-2.759,-2.8039,-2.8661,-2.9393,-2.903,-2.894,0.0,0.0,-2.9161,-2.9504,-2.9664,-2.9654,-2.9142,-2.906,-2.9151,-2.9603,-2.9434,-2.9279,-2.9328,-2.9197,-2.9052,-2.8973,-2.8724,-2.8566,-2.8339,-2.8339,-2.8339,-2.8259,-2.8339,-2.8339,-2.8259,-2.8486,-2.8633,-2.8724,-2.8882,-2.8973,-2.9052,-2.9052,-2.9052,-2.9131,-2.9275,-2.9341,-2.9341,-2.9611,-2.9702,-2.9792,-2.9792,-2.9856,-2.9754,-2.7799,-2.7058,-2.7139,-2.5274,-2.4454,-2.4454,-2.4454,-2.454,-2.454,0.0,0.0,0.0,0.0,0.0,0.0,0.0,0.0,0.0,0.0,0.0,0.0,0.0,0.0,0.0,0.0,0.0,0.0,-2.9855,-2.9143,-2.8681,-2.8681,-2.8332,-2.8129,-2.8129,-2.9377,-3.0089,-3.028,-3.0778,-3.1073,-3.1278,-3.1409,-3.1467,-3.1482,-3.1482,-3.1539,-3.1597,-3.1727,-3.1841,-3.1898,-3.2038,-3.2038,-3.1996,-3.2094,-3.1495,-3.0584,-3.0011,-2.9566,0.0,0.0,-2.7842,-2.8039,-2.7656,-2.7523,-2.7523,-2.7523,-2.7523,0.0,-2.7973,-2.8287,-2.8757,0.0,-2.9504,-2.9224,-3.0422,-3.0173,-2.9766,-2.9883,-3.005,-3.013,-2.9887,-2.9704,-2.958,0.0,-2.9702,-2.9611,-2.9611,-2.9546,-2.9456,-2.9275,-2.9184,-2.904,-2.8895,-2.8816,-2.8816,-2.8645,-2.8657,-2.8657,-2.8657,-2.8724,-2.887,-2.8961,-2.9052,-2.9131,-2.9275,-2.9275,-2.9365,-2.9546,-2.9611,-2.9677,-2.9831,-2.9921,-3.0011,-3.0152,-3.0152,-3.0228,-3.0139,-2.8834,-2.8039,-2.7557,-2.6163,-2.5348,-2.4871,-2.4625,-2.4625,-2.47,0.0,0.0,0.0,0.0,0.0,0.0,0.0,0.0,0.0,0.0,0.0,0.0,0.0,0.0,0.0,0.0,0.0,0.0,0.0,-2.8984,-2.8722,-2.8681,-2.8286,-2.7952,-2.7668,-2.8797,-2.942,-2.9607,-3.0367,-3.0866,-3.1025,-3.1319,-3.1467,-3.1482,-3.1482,-3.1539,-3.1597,-3.1784,-3.1841,-3.1913,-3.2348,-3.2466,-3.2399,-3.2695,-3.2266,-3.1366,-3.0519,-2.9766,0.0,0.0,-2.8039,-2.7973,-2.7656,-2.7523,-2.7523,-2.7523,-2.7641,-2.7865,-2.8545,-2.8718,0.0,-3.0107,-2.9886,-2.9578,-3.0321,-3.04,-3.0231,-3.0237,-3.044,-3.0586,-3.048,-3.0175,-2.9934,-2.9869,-2.9869,-2.9792,-2.9792,-2.9792,-2.9702,-2.9509,-2.9509,-2.9443,-2.93,-2.9221,-2.9052,-2.8882,-2.8882,-2.8955,-2.9102,-2.9181,-2.9334,-2.9653,-2.9732,-2.9799,-2.9945,-2.9945,-2.9974,-3.0018,-3.0096,-3.0085,-3.0075,-3.0152,-3.0292,-3.0368,-3.0368,-3.0444,-3.0444,-2.9484,-2.8597,-2.7787,-2.6883,-2.5997,-2.52,-2.4786,-2.4786,-2.4946,0.0,0.0,0.0,0.0,0.0,0.0,0.0,0.0,0.0,0.0,0.0,0.0,0.0,0.0,0.0,0.0,0.0,0.0,0.0,-2.8834,-2.882,-2.8737,-2.8805,-2.8499,-2.7752,-2.8361,-2.8766,-2.8949,-2.9592,-3.0072,-3.0357,-3.0981,-3.1409,-3.1482,-3.1482,-3.1597,-3.1799,-3.194,-3.1996,-3.2042,-3.3008,-3.3269,-3.3245,-3.4094,-3.3969,-3.3093,-3.1396,0.0,0.0,-2.8917,-2.8675,-2.8417,-2.7908,-2.7656,0.0,-2.7523,-2.7915,-2.8477,-2.9136,0.0,-2.9434,-3.0117,-2.9797,-2.9592,-3.0831,-3.0578,-3.0268,-3.0817,-3.0947,-3.0885,-3.0748,-3.052,-3.0292,-3.0152,-2.9934,-2.9792,-2.9792,-2.9792,-2.9792,-2.9792,-2.9792,-2.9792,0.0,-2.9378,-2.9131,-2.9052,-2.9052,-2.9376,-2.9917,-3.0171,-3.0487,-3.1021,-3.1267,-3.1336,-3.1336,-3.1336,-3.1085,-3.0595,-3.0729,-3.0608,-3.0075,-3.0292,-3.0368,-3.0368,-3.0368,-3.0533,-3.0622,-2.9561,-2.8664,-2.8004,-2.6883,-2.5997,-2.52,-2.52,-2.52,-2.52,0.0,0.0,0.0,0.0,0.0,0.0,0.0,0.0,0.0,0.0,0.0,0.0,0.0,0.0,0.0,0.0,0.0,0.0,0.0,-2.8946,-2.9095,-2.9477,-2.8604,-2.7995,-2.7737,-2.8035,-2.8192,-2.8247,-2.9072,-2.9785,-3.0312,-3.0634,-3.1034,-3.1482,-3.1482,-3.1539,-3.1597,-3.1883,-3.2255,-3.2722,-3.3207,-3.3371,-3.3382,-3.3668,-3.3255,-3.2445,0.0,0.0,-3.0559,-2.9874,-2.9551,-2.9293,-2.9088,-2.8894,-2.8686,-2.8686,-2.883,-2.9013,-2.9222,0.0,-2.9437,-3.0019,-2.9981,-3.0066,-3.0837,-3.0834,-3.0751,-3.0947,-3.0911,-3.0773,-3.0698,-3.0533,-3.0368,-3.0292,-3.0152,-3.0011,-3.0011,-2.9869,-2.9792,-2.9792,-2.9792,0.0,0.0,0.0,0.0,-2.9353,-2.9275,-2.9601,-3.0171,-3.0276,-3.0605,-3.1292,-3.1399,-3.1386,-3.1386,-3.1562,-3.1554,-3.1377,-3.1302,-3.0997,-3.047,-3.0685,-3.0836,-3.0836,-3.0836,-3.0836,-3.0836,-3.0508,-2.9871,-2.9057,-2.8096,-2.7232,-2.6445,-2.5884,-2.5633,-2.5633,0.0,0.0,0.0,0.0,0.0,0.0,0.0,0.0,0.0,0.0,0.0,0.0,0.0,0.0,0.0,0.0,0.0,0.0,0.0,0.0,-2.9151,-2.9519,-2.8837,-2.8359,-2.8112,-2.8207,-2.8316,-2.8424,-2.9015,-2.9555,-3.0041,-3.0347,-3.0746,-3.118,-3.1362,-3.1539,-3.1612,-3.2125,-3.2604,-3.3029,-3.3528,-3.3834,-3.3999,-3.3787,-3.3559,0.0,0.0,0.0,-3.1842,-3.0829,-3.0295,-3.0019,-2.9754,-2.9487,-2.9327,-2.9523,-2.9588,-2.9627,-2.9836,-2.9889,-2.998,-3.0346,-3.0438,-3.0529,-3.0895,-3.0986,-3.0986,-3.0986,-3.0911,-3.0849,-3.0849,-3.0609,-3.0533,-3.0533,-3.0305,-3.0228,-3.0228,-3.0011,-2.9934,-2.9934,-2.9869,-2.9792,0.0,0.0,0.0,-2.9534,-2.9696,-3.0057,-3.0686,-3.0898,-3.1342,-3.2129,-3.2155,-3.2142,-3.2225,-3.2403,-3.2383,-3.2273,-3.1937,-3.1604,-3.1072,-3.1224,-3.1182,-3.0986,-3.0986,-3.0986,-3.0986,-3.0986,-3.0508,-2.9626,-2.8743,-2.7879,-2.7103,-2.6218,-2.5895,-2.5812,0.0,0.0,0.0,0.0,0.0,0.0,0.0,0.0,0.0,0.0,0.0,0.0,0.0,0.0,0.0,0.0,0.0,0.0,0.0,0.0,0.0,-2.8963,-2.9549,-2.9578,-2.899,-2.8931,-2.9042,-2.9401,-2.9401,-2.9471,-2.9639,-3.0223,-3.0522,-3.0582,-3.124,-3.1597,-3.1829,-3.2652,-3.2998,-3.315,-3.4104,-3.477,-3.5124,-3.4545,0.0,0.0,0.0,0.0,-3.2975,-3.1636,-3.0923,-3.0583,-3.0003,-2.961,-2.947,-2.998,-3.015,-3.0294,-3.083,-3.0986,-3.0986,-3.0986,-3.0986,-3.0986,-3.0986,-3.0986,-3.0986,-3.0986,-3.0986,-3.0986,-3.0986,0.0,-3.0698,-3.0698,-3.0533,-3.0444,-3.0444,-3.0228,-3.0152,0.0,0.0,0.0,0.0,0.0,0.0,-2.9995,0.0,-3.0884,-3.1399,-3.1926,-3.2563,-3.3373,-3.3398,-3.3471,-3.3713,-3.3713,-3.3527,-3.3234,-3.2691,-3.2214,-3.1888,-3.1772,-3.1535,-3.1026,-3.0999,-3.0986,-3.0986,-3.0986,-3.0495,-2.9704,-2.8821,-2.7959,-2.7185,-2.6302,-2.5979,-2.5895,0.0,0.0,0.0,0.0,0.0,0.0,0.0,0.0,0.0,0.0,0.0,0.0,0.0,0.0,0.0,0.0,0.0,0.0,0.0,0.0,0.0,0.0,0.0,0.0,0.0,0.0,0.0,-2.9401,-2.9525,-2.9819,-3.0268,-3.0432,-3.0776,-3.1228,-3.1392,-3.1597,-3.1829,-3.2652,-3.333,-3.3966,0.0,-3.5245,-3.5304,0.0,0.0,0.0,0.0,0.0,0.0,0.0,0.0,0.0,0.0,-3.0494,-3.0711,-3.0215,-3.0438,-3.079,-3.0947,-3.0986,-3.0986,-3.0986,-3.0986,-3.0986,-3.0986,-3.0986,-3.0986,-3.0986,-3.0986,-3.0986,-3.0986,-3.0986,0.0,-3.0911,-3.0761,0.0,-3.0609,-3.0457,0.0,-3.0292,0.0,-3.084,-3.084,-3.135,0.0,0.0,-3.1352,-3.1518,-3.2237,-3.2223,-3.2563,-3.3373,-3.3398,-3.3398,-3.3471,-3.3823,-3.3791,-3.3506,-3.3349,-3.2971,-3.2463,-3.2032,-3.1771,-3.1601,-3.1169,-3.0986,-3.0986,-3.0986,-3.0898,-3.0583,-2.9704,-2.9225,-2.8912,-2.7418,-2.6857,-2.6787,0.0,0.0,0.0,0.0,0.0,0.0,0.0,0.0,0.0,0.0,0.0,0.0,0.0,0.0,0.0,0.0,0.0,0.0,0.0,0.0,0.0,0.0,0.0,0.0,0.0,0.0,0.0,0.0,0.0,0.0,-3.0507,-3.0507,-3.0717,-3.1091,-3.1405,-3.1597,-3.1829,-3.2652,0.0,0.0,0.0,0.0,0.0,0.0,0.0,0.0,0.0,0.0,0.0,0.0,0.0,-3.1676,-3.103,-3.0837,-3.0877,-3.0603,0.0,-3.0986,-3.0986,-3.0986,-3.0986,-3.0986,-3.0986,-3.0986,-3.0986,-3.0986,-3.0986,-3.0986,-3.0986,-3.0986,-3.0986,-3.0986,0.0,0.0,0.0,0.0,-3.0849,-3.0685,-3.0623,0.0,-3.1087,0.0,-3.1547,-3.2072,-3.2487,0.0,-3.2174,-3.2136,-3.2702,-3.2706,-3.3068,-3.3725,-3.3738,-3.3738,-3.3823,-3.4063,-3.4171,-3.394,-3.394,-3.3639,-3.3077,-3.2751,-3.2463,-3.2176,0.0,-3.1365,-3.1339,-3.1091,-3.0986,-3.0911,-3.0024,-2.9459,-2.8991,-2.7649,-2.694,-2.6539,0.0,0.0,0.0,0.0,0.0,0.0,0.0,0.0,0.0,0.0,0.0,0.0,0.0,0.0,0.0,0.0,0.0,0.0,0.0,0.0,0.0,0.0,0.0,0.0,0.0,0.0,0.0,0.0,0.0,0.0,0.0,0.0,0.0,0.0,0.0,0.0,0.0,0.0,0.0,0.0,0.0,0.0,0.0,0.0,0.0,0.0,0.0,0.0,0.0,0.0,-3.175,-3.2014,-3.1328,-3.0831,-3.0507,-3.0874,-3.0996,-3.1061,-3.1061,-3.0986,-3.0986,-3.0986,-3.0986,-3.0986,-3.0986,-3.0986,-3.0986,-3.0986,0.0,-3.0986,-3.0986,-3.0986,-3.0986,-3.0986,0.0,-3.0986,-3.0986,-3.0849,-3.0981,-3.1513,-3.1422,-3.1613,-3.2259,-3.2826,-3.3065,-3.3065,-3.2912,-3.2842,-3.3078,-3.3288,-3.3654,-3.4076,-3.4076,-3.4243,-3.4397,-3.4397,-3.4397,-3.4397,-3.4397,-3.4162,-3.3692,-3.3626,-3.33,-3.2777,-3.2202,0.0,-3.1797,-3.13,-3.1052,-3.0898,-3.0177,-2.9381,-2.8664,-2.773,-2.6857,-2.6218,0.0,0.0,0.0,0.0,0.0,0.0,0.0,0.0,0.0,0.0,-2.3595,-2.3566,0.0,0.0,0.0,0.0,0.0,0.0,0.0,0.0,0.0,0.0,0.0,0.0,0.0,0.0,0.0,0.0,0.0,0.0,0.0,0.0,0.0,0.0,0.0,0.0,0.0,0.0,0.0,0.0,0.0,0.0,0.0,0.0,0.0,0.0,0.0,0.0,0.0,0.0,-3.2123,-3.1875,-3.0659,-3.061,-3.0887,-3.0751,-3.0963,-3.1272,-3.1272,-3.1123,-3.0986,-3.0986,-3.0986,-3.0986,-3.0986,-3.0986,0.0,0.0,-3.0986,-3.0986,-3.0986,-3.0986,-3.0986,-3.0986,0.0,0.0,0.0,0.0,-3.112,0.0,0.0,0.0,0.0,0.0,0.0,0.0,0.0,-3.385,-3.392,-3.3759,-3.381,-3.4076,-3.4076,-3.4243,-3.4397,-3.4397,-3.4397,-3.4397,-3.4397,-3.4345,-3.4241,-3.3796,-3.3535,-3.3404,-3.2803,0.0,-3.1759,-3.1731,-3.1418,-3.0986,-3.0823,-3.0659,-3.0343,-2.8743,-2.8119,-2.7799,0.0,0.0,0.0,0.0,0.0,0.0,0.0,-2.3378,-2.3553,-2.3696,-2.3653,-2.3566,-2.3509,-2.3689,0.0,0.0,0.0,0.0,0.0,0.0,0.0,0.0,0.0,0.0,0.0,0.0,0.0,0.0,0.0,0.0,0.0,0.0,0.0,0.0,0.0,0.0,0.0,0.0,0.0,0.0,0.0,0.0,0.0,0.0,0.0,0.0,0.0,0.0,0.0,0.0,-3.2518,-3.2543,-3.106,-3.0559,-3.0583,-3.1055,-3.1209,-3.1272,-3.1272,-3.1123,-3.0986,-3.0986,-3.0986,-3.0986,-3.0986,0.0,0.0,0.0,-3.0986,-3.0986,-3.0986,-3.0986,0.0,0.0,0.0,0.0,0.0,0.0,0.0,0.0,0.0,0.0,0.0,0.0,0.0,0.0,0.0,-3.4243,-3.4243,-3.4147,-3.4147,-3.4243,-3.4243,-3.4314,-3.4397,-3.4397,-3.4397,-3.4397,-3.4397,-3.4397,-3.4397,-3.4301,-3.4183,-3.4157,-3.3727,0.0,-3.3014,-3.2407,-3.1998,-3.1721,-3.1404,-3.0973,-3.0406,-2.9524,-2.8585,-2.7649,0.0,0.0,0.0,0.0,0.0,0.0,0.0,-2.3305,-2.3466,-2.3668,-2.361,-2.3523,-2.3509,-2.3509,-2.3689,0.0,0.0,0.0,0.0,0.0,0.0,0.0,0.0,0.0,0.0,0.0,0.0,0.0,0.0,0.0,0.0,0.0,0.0,0.0,0.0,0.0,0.0,0.0,0.0,0.0,0.0,0.0,0.0,0.0,0.0,0.0,0.0,0.0,0.0,0.0,-3.2892,-3.3105,-3.1541,-3.0751,-3.0575,-3.1435,-3.1596,-3.1421,-3.1421,-3.1286,-3.1136,-3.1061,-3.1061,-3.1061,-3.0986,-3.0986,0.0,0.0,-3.0986,-3.0986,-3.0986,0.0,-3.0986,0.0,-3.0986,0.0,0.0,0.0,0.0,0.0,0.0,0.0,0.0,0.0,0.0,0.0,0.0,0.0,-3.4397,-3.4397,-3.4397,-3.4397,-3.4397,-3.4397,-3.4397,-3.4397,-3.4397,-3.4397,-3.4397,-3.4397,-3.4397,-3.4673,-3.4756,-3.4812,-3.4525,0.0,0.0,-3.3221,-3.2701,-3.2359,-3.1894,-3.1078,-3.0228,-3.0063,-2.9057,-2.7742,0.0,0.0,0.0,0.0,0.0,0.0,0.0,-2.3127,-2.3216,-2.3319,-2.3319,-2.3363,-2.3509,-2.3509,-2.3674,0.0,0.0,0.0,0.0,0.0,0.0,0.0,0.0,0.0,0.0,0.0,0.0,0.0,0.0,0.0,0.0,0.0,0.0,0.0,0.0,0.0,0.0,0.0,0.0,0.0,0.0,0.0,0.0,0.0,0.0,0.0,0.0,0.0,0.0,0.0,0.0,-3.3172,-3.175,-3.126,-3.1341,-3.1992,0.0,0.0,-3.1817,-3.1669,-3.1522,-3.136,-3.1272,-3.1198,-3.1061,0.0,0.0,-3.0986,-3.0986,-3.0986,-3.0986,-3.0986,-3.0986,-3.0986,0.0,-3.0986,0.0,0.0,0.0,0.0,0.0,0.0,0.0,0.0,0.0,0.0,0.0,0.0,-3.4397,-3.4397,-3.4397,-3.4397,-3.4397,-3.4397,-3.4397,-3.4397,-3.4397,-3.4397,-3.4397,-3.4397,-3.4397,-3.4673,-3.4756,-3.4839,-3.4937,0.0,0.0,-3.41,-3.3356,-3.2246,-3.2193,-3.1609,-3.0823,-3.0228,-2.9768,-2.9381,0.0,0.0,0.0,0.0,0.0,0.0,-2.2992,-2.3037,-2.3157,-2.3348,-2.3304,-2.3363,-2.3523,-2.3538,-2.357,0.0,0.0,0.0,0.0,0.0,0.0,0.0,0.0,0.0,0.0,0.0,0.0,-3.0911,-3.133,0.0,0.0,0.0,0.0,0.0,0.0,0.0,0.0,0.0,0.0,0.0,0.0,0.0,0.0,0.0,0.0,0.0,0.0,0.0,0.0,0.0,0.0,0.0,-3.2288,-3.216,0.0,0.0,-3.2036,-3.189,-3.189,-3.1743,-3.1596,-3.1522,-3.1522,-3.1434,-3.1211,0.0,-3.1123,-3.0986,-3.0986,-3.0986,-3.0986,-3.0986,-3.0986,-3.0986,0.0,0.0,-3.0986,0.0,0.0,0.0,0.0,0.0,0.0,0.0,0.0,0.0,0.0,0.0,-3.4397,-3.4397,-3.4397,-3.4397,-3.4397,-3.4397,-3.4397,-3.4397,-3.4397,-3.4397,-3.4397,-3.4397,-3.4397,-3.4825,-3.5003,-3.5003,-3.5318,0.0,0.0,-3.4753,-3.4243,-3.3681,-3.3046,-3.2466,-3.1987,-3.1391,-3.0709,-3.0012,0.0,0.0,0.0,0.0,0.0,-2.2947,-2.2902,-2.2992,-2.3112,-2.3216,-2.3216,-2.3231,-2.3436,-2.3451,-2.3466,-2.3509,0.0,0.0,0.0,0.0,0.0,0.0,0.0,0.0,0.0,0.0,-3.0118,-3.0507,-3.0986,-3.1402,0.0,0.0,0.0,0.0,0.0,0.0,0.0,0.0,0.0,0.0,0.0,0.0,0.0,0.0,0.0,0.0,0.0,0.0,0.0,0.0,0.0,0.0,0.0,0.0,0.0,0.0,-3.2241,-3.2228,-3.2036,-3.189,-3.1743,-3.1683,-3.1683,-3.1669,0.0,0.0,-3.1272,-3.1123,-3.1061,-3.0986,-3.0986,-3.0986,-3.0986,-3.0986,0.0,-3.0986,-3.0986,-3.0986,0.0,0.0,0.0,0.0,0.0,0.0,0.0,0.0,0.0,0.0,-3.4397,-3.4397,-3.4397,-3.4397,-3.4397,-3.4397,-3.4397,-3.4397,-3.4397,-3.4494,-3.4494,-3.4577,-3.4647,-3.499,-3.5154,-3.5236,-3.5562,0.0,0.0,-3.5262,-3.4911,-3.4654,-3.3639,-3.3076,-3.2622,-3.2105,-3.1347,-3.0646,0.0,0.0,0.0,0.0,0.0,0.0,-2.2947,-2.2888,-2.2888,-2.2888,-2.2888,-2.2947,-2.3082,-2.3201,-2.3363,-2.3509,0.0,0.0,0.0,0.0,0.0,0.0,0.0,0.0,0.0,0.0,-2.9235,-3.0507,-3.0507,-3.0923,-3.1799,-3.194,-3.1632,0.0,0.0,0.0,0.0,0.0,0.0,0.0,0.0,0.0,0.0,0.0,0.0,0.0,0.0,0.0,0.0,0.0,0.0,0.0,0.0,0.0,0.0,0.0,-3.2704,-3.3017,-3.2372,-3.2182,-3.2182,-3.1963,-3.189,-3.1817,0.0,0.0,-3.1272,-3.1272,-3.1123,-3.0986,-3.0986,-3.0986,-3.0986,-3.0986,-3.0986,0.0,-3.0986,0.0,0.0,0.0,0.0,0.0,0.0,0.0,0.0,0.0,0.0,0.0,-3.4397,-3.4397,-3.4397,-3.4397,-3.4397,-3.4397,-3.4397,-3.4397,-3.4494,-3.4756,-3.4756,-3.4921,-3.5086,-3.5318,-3.5399,0.0,0.0,0.0,0.0,-3.571,-3.521,-3.4458,-3.3944,-3.3212,-3.2471,-3.2045,-3.1743,-3.1596,0.0,0.0,0.0,0.0,0.0,0.0,0.0,-2.3098,-2.3246,-2.3246,-2.3053,-2.3023,-2.3392,-2.3363,-2.3363,-2.3509,0.0,0.0,0.0,0.0,0.0,0.0,0.0,0.0,0.0,0.0,-2.8801,-2.9205,-2.9654,-3.0318,-3.1258,-3.1313,-3.1302,-3.129,-3.1129,0.0,0.0,0.0,0.0,0.0,0.0,0.0,0.0,0.0,0.0,0.0,0.0,0.0,0.0,0.0,0.0,0.0,0.0,0.0,0.0,0.0,0.0,0.0,-3.2372,-3.2182,-3.2182,-3.2109,-3.2109,-3.2036,-3.1817,0.0,-3.1656,-3.1347,-3.1272,-3.1123,-3.1061,-3.0986,-3.0986,-3.0986,-3.0986,0.0,0.0,0.0,0.0,0.0,0.0,0.0,0.0,0.0,0.0,0.0,0.0,0.0,-3.4397,-3.4397,-3.4397,-3.4397,-3.4397,-3.4397,-3.4397,-3.4577,-3.4756,-3.4756,-3.4921,-3.5003,-3.5086,-3.5318,-3.5399,0.0,0.0,0.0,0.0,-3.571,-3.5291,-3.4616,-3.4022,-3.3441,-3.2847,-3.2326,-3.2036,-3.2036,0.0,0.0,0.0,0.0,0.0,0.0,0.0,-2.3098,-2.3246,-2.3363,-2.3098,-2.3053,-2.3465,-2.3392,-2.3319,-2.3422,0.0,0.0,0.0,0.0,0.0,0.0,0.0,0.0,0.0,-2.7649,-2.8338,-2.8607,-2.9011,-2.9711,-3.0615,-3.0615,-3.0899,-3.1366,-3.1136,0.0,0.0,0.0,0.0,0.0,0.0,0.0,-3.2136,0.0,0.0,0.0,0.0,0.0,0.0,0.0,0.0,0.0,0.0,0.0,0.0,0.0,-3.2889,-3.3017,0.0,-3.2182,-3.2182,-3.2182,-3.2182,0.0,0.0,-3.1963,-3.1817,-3.1508,-3.1347,-3.1272,-3.1061,-3.0986,-3.0986,-3.0986,-3.0986,-3.0986,0.0,0.0,0.0,0.0,0.0,0.0,0.0,0.0,0.0,0.0,0.0,0.0,-3.4577,-3.4577,-3.4577,-3.466,-3.4577,-3.4577,-3.4577,-3.4756,-3.4921,-3.5003,-3.5154,-3.5236,-3.5318,-3.548,-3.548,0.0,0.0,0.0,0.0,-3.571,-3.5357,-3.4774,-3.4113,-3.358,-3.2996,-3.2399,-3.2182,-3.2182,0.0,0.0,0.0,0.0,0.0,0.0,0.0,0.0,-2.3098,-2.345,-2.3216,-2.3098,-2.345,-2.3377,-2.3363,-2.3363,0.0,0.0,0.0,0.0,0.0,0.0,0.0,0.0,0.0,-2.7171,-2.7844,-2.8532,-2.8532,-2.9019,-2.9932,-2.9932,-3.0426,-3.1289,-3.0689,-3.0397,-3.0222,-2.8965,-2.8411,-2.8411,-2.8411,-2.9597,0.0,0.0,0.0,0.0,0.0,0.0,0.0,0.0,0.0,0.0,0.0,0.0,0.0,0.0,0.0,0.0,0.0,-3.2255,-3.2182,0.0,0.0,0.0,0.0,0.0,0.0,-3.1683,-3.1434,-3.1272,-3.1061,-3.0986,-3.0986,-3.0986,-3.0986,0.0,0.0,0.0,0.0,0.0,0.0,0.0,0.0,0.0,0.0,0.0,0.0,0.0,-3.4839,-3.4839,-3.4921,-3.5086,-3.4921,-3.4839,-3.4839,-3.5003,-3.5236,-3.5399,-3.5399,-3.5562,-3.571,-3.571,-3.571,0.0,0.0,0.0,0.0,-3.5669,-3.5303,-3.4719,-3.4045,-3.3525,-3.2928,-3.2386,-3.2182,-3.2182,0.0,0.0,0.0,0.0,0.0,0.0,0.0,0.0,0.0,0.0,-2.4051,-2.3952,-2.4486,-2.4021,-2.3797,0.0,0.0,0.0,0.0,0.0,0.0,0.0,0.0,0.0,0.0,-2.6482,-2.7141,-2.7814,-2.7931,-2.8429,-2.9234,-2.9337,-2.9843,-3.0643,-3.0489,-3.0135,-2.9597,-2.8765,-2.8411,-2.8411,-2.8411,-2.9597,0.0,0.0,0.0,0.0,-3.6369,-3.6616,0.0,0.0,0.0,0.0,0.0,0.0,0.0,0.0,-3.363,-3.3157,-3.303,0.0,-3.2182,-3.2182,-3.2182,-3.2182,0.0,0.0,0.0,0.0,0.0,0.0,0.0,-3.1136,-3.0986,-3.0986,-3.0986,-3.0986,0.0,0.0,0.0,0.0,0.0,0.0,0.0,0.0,0.0,0.0,0.0,-3.4839,-3.5003,-3.5003,-3.5086,-3.5086,-3.5236,-3.5154,-3.5003,-3.5236,-3.5318,-3.5399,-3.5562,-3.5642,-3.571,-3.571,-3.571,0.0,0.0,0.0,-3.5683,-3.5221,-3.4692,-3.4018,-3.3498,-3.2915,-3.2359,-3.2223,-3.2182,-3.2182,0.0,0.0,0.0,0.0,0.0,0.0,0.0,0.0,0.0,0.0,0.0,0.0,0.0,0.0,0.0,0.0,0.0,0.0,0.0,0.0,0.0,0.0,0.0,0.0,-2.5212,-2.6204,-2.6864,-2.7225,-2.764,-2.8037,-2.8551,-2.8652,-2.9103,-2.9966,-2.9966,-2.975,-2.9366,-2.8688,-2.8411,-2.8427,-2.8735,0.0,0.0,0.0,0.0,0.0,-3.6306,-3.66,0.0,-3.6492,-3.6289,-3.6006,0.0,0.0,0.0,0.0,-3.4027,-3.3213,-3.3213,-3.2704,-3.2182,-3.2182,-3.2182,-3.2182,-3.2182,0.0,0.0,0.0,0.0,0.0,0.0,0.0,0.0,-3.1468,-3.1334,0.0,0.0,0.0,0.0,0.0,0.0,0.0,0.0,0.0,0.0,0.0,0.0,-3.5086,-3.5236,-3.5236,-3.5318,-3.5399,-3.548,-3.548,-3.5236,-3.548,-3.5562,-3.5562,-3.5642,-3.571,-3.571,-3.571,-3.571,0.0,0.0,0.0,-3.5289,-3.4963,-3.4326,-3.3512,-3.3186,-3.2698,-3.2182,-3.2182,-3.2182,-3.2182,0.0,0.0,0.0,0.0,0.0,0.0,0.0,0.0,0.0,0.0,0.0,0.0,0.0,0.0,0.0,0.0,0.0,0.0,0.0,0.0,0.0,0.0,0.0,-2.4567,-2.4777,-2.6012,-2.6705,-2.6811,-2.7523,-2.7905,-2.8005,-2.8054,-2.8507,-2.9258,-2.9258,-2.9258,-2.9227,-2.8642,-2.8411,-2.8473,-2.9135,0.0,0.0,0.0,0.0,0.0,0.0,0.0,0.0,-3.6492,-3.6085,-3.5737,-3.6289,0.0,0.0,0.0,0.0,0.0,-3.3353,-3.2903,-3.2314,-3.2255,-3.2182,-3.2182,-3.2182,0.0,0.0,0.0,0.0,0.0,0.0,-3.1495,0.0,0.0,0.0,0.0,0.0,0.0,0.0,0.0,0.0,0.0,0.0,0.0,0.0,0.0,0.0,-3.5399,-3.548,-3.548,-3.5562,-3.571,-3.571,-3.5642,-3.548,-3.5642,-3.571,-3.571,-3.571,-3.571,-3.571,-3.5615,-3.5574,-3.5574,0.0,0.0,-3.4692,-3.4597,-3.3973,-3.3125,-3.2969,-3.2616,-3.2182,-3.2182,-3.2182,-3.2182,0.0,0.0,0.0,0.0,0.0,0.0,0.0,0.0,0.0,0.0,0.0,0.0,0.0,0.0,0.0,0.0,0.0,0.0,0.0,0.0,0.0,0.0,-2.3945,-2.4175,-2.4777,-2.5545,-2.627,-2.697,-2.7768,-2.8137,-2.8186,-2.8299,-2.8409,-2.855,-2.855,-2.855,-2.855,-2.8442,-2.8411,-2.8473,-2.9135,0.0,0.0,0.0,0.0,0.0,0.0,0.0,0.0,-3.6631,-3.6476,-3.6523,-3.6492,0.0,0.0,0.0,0.0,0.0,-3.3973,-3.363,-3.2889,-3.23,-3.2182,-3.2182,-3.2182,0.0,0.0,0.0,0.0,0.0,0.0,-3.2155,0.0,0.0,0.0,0.0,0.0,0.0,0.0,0.0,0.0,0.0,0.0,0.0,0.0,0.0,0.0,-3.548,-3.5642,-3.5642,-3.5629,-3.571,-3.571,-3.571,-3.5642,-3.571,-3.571,-3.571,-3.571,-3.571,-3.5696,-3.5194,-3.4963,-3.4936,0.0,-3.4086,-3.3964,-3.3539,-3.3227,-3.301,-3.2508,-3.225,-3.2182,-3.2182,-3.2182,-3.2182,0.0,0.0,0.0,0.0,0.0,0.0,0.0,0.0,0.0,0.0,0.0,0.0,0.0,0.0,0.0,0.0,0.0,0.0,0.0,0.0,0.0,-2.3982,-2.4024,-2.4177,-2.4453,-2.5499,-2.6184,-2.6565,-2.7682,-2.8186,-2.8186,-2.8348,-2.8411,-2.8411,-2.8411,-2.8411,-2.8411,-2.8411,-2.8611,-2.9012,0.0,0.0,0.0,0.0,0.0,0.0,0.0,0.0,0.0,0.0,-3.6662,-3.6662,-3.66,0.0,0.0,0.0,0.0,0.0,-3.478,-3.438,-3.3699,-3.3437,-3.3044,-3.2761,0.0,0.0,0.0,0.0,0.0,0.0,0.0,0.0,0.0,0.0,0.0,0.0,0.0,0.0,0.0,0.0,0.0,0.0,0.0,0.0,0.0,0.0,0.0,0.0,-3.6322,-3.5637,-3.5235,-3.5235,-3.4936,-3.476,-3.476,-3.476,-3.4923,-3.5235,-3.5235,-3.5072,-3.4746,-3.4475,-3.4275,-3.4262,0.0,-3.377,-3.3444,-3.3173,-3.2874,-3.2562,-3.2291,-3.2182,-3.2182,-3.2182,-3.2182,-3.2182,0.0,0.0,0.0,0.0,0.0,0.0,0.0,0.0,0.0,0.0,0.0,0.0,0.0,0.0,0.0,0.0,0.0,0.0,0.0,0.0,-2.4166,-2.4067,-2.4166,-2.4208,-2.4223,-2.5496,-2.6229,-2.6229,-2.7576,-2.8235,-2.8235,-2.8396,-2.8444,-2.8411,-2.8411,-2.8411,-2.8411,-2.8581,-2.8935,-2.9489,0.0,0.0,0.0,0.0,0.0,0.0,0.0,0.0,0.0,0.0,0.0,0.0,0.0,0.0,0.0,-3.6662,-3.6117,-3.5449,-3.54,-3.4993,-3.4514,-3.438,0.0,0.0,0.0,0.0,0.0,0.0,0.0,0.0,0.0,0.0,0.0,0.0,0.0,0.0,0.0,0.0,0.0,0.0,0.0,0.0,0.0,0.0,0.0,0.0,0.0,0.0,-3.6731,-3.5543,-3.4845,-3.4845,-3.4254,-3.3869,-3.3869,-3.3869,-3.4099,-3.4624,-3.4624,-3.4316,-3.3869,-3.381,-3.3742,-3.3729,-3.3593,-3.3268,-3.2861,-3.2861,-3.2589,-3.2182,-3.2182,-3.2182,-3.2182,-3.2182,-3.2182,-3.2182,0.0,0.0,0.0,0.0,0.0,0.0,0.0,0.0,0.0,0.0,0.0,0.0,0.0,0.0,0.0,0.0,0.0,0.0,0.0,0.0,-2.4208,-2.4261,-2.4317,-2.4276,-2.4223,-2.5496,-2.6274,-2.638,-2.775,-2.8411,-2.8411,-2.8541,-2.8541,-2.8411,-2.8411,-2.8411,-2.8442,-2.9073,-2.9366,-2.952,-3.0917,0.0,0.0,0.0,0.0,0.0,0.0,0.0,0.0,0.0,0.0,0.0,0.0,0.0,-3.6662,-3.6723,-3.618,-3.5563,-3.5449,-3.5335,-3.5124,-3.4447,-3.4245,0.0,-3.4245,-3.4245,0.0,-3.4312,0.0,0.0,0.0,0.0,0.0,0.0,0.0,0.0,0.0,0.0,0.0,0.0,0.0,0.0,0.0,0.0,0.0,0.0,0.0,0.0,-3.6173,-3.5402,-3.5018,-3.5018,-3.4251,-3.3869,-3.3869,-3.3869,-3.3896,-3.3923,-3.3923,-3.391,-3.3856,-3.3376,-3.3132,-3.3091,-3.2548,-3.2277,-3.2236,-3.2236,-3.2223,-3.2182,-3.2182,-3.2182,-3.2182,-3.2182,-3.2182,-3.2182,0.0,0.0,0.0,0.0,0.0,0.0,0.0,0.0,0.0,0.0,0.0,0.0,0.0,0.0,0.0,0.0,0.0,0.0,0.0,0.0,-2.4655,-2.4679,-2.441,-2.446,-2.4891,-2.5843,-2.6535,-2.7011,-2.8029,-2.8541,-2.8541,-2.8589,-2.8636,-2.8652,-2.8541,-2.8773,-2.9175,-2.9404,-2.9991,-3.0809,-3.1371,-3.1995,0.0,0.0,0.0,0.0,0.0,0.0,0.0,0.0,-3.715,-3.715,-3.715,-3.7044,-3.6923,-3.7013,-3.6769,-3.6445,-3.6258,-3.6196,-3.6117,-3.5737,-3.5672,0.0,0.0,-3.4978,-3.5124,-3.5593,-3.5672,0.0,0.0,0.0,0.0,0.0,0.0,0.0,0.0,0.0,0.0,0.0,0.0,0.0,0.0,0.0,0.0,0.0,0.0,0.0,-3.6862,-3.578,-3.4925,-3.4419,-3.3779,-3.3234,-3.2847,-3.2847,-3.2847,-3.2847,-3.3213,-3.32,-3.2847,-3.2616,-3.2508,-3.2508,-3.2277,-3.2182,-3.2182,-3.2182,-3.2182,-3.2182,-3.2182,-3.2182,-3.2182,-3.2182,-3.2182,-3.2182,0.0,0.0,0.0,0.0,0.0,0.0,0.0,0.0,0.0,0.0,0.0,0.0,0.0,0.0,0.0,0.0,0.0,0.0,-2.6175,-2.5577,-2.516,-2.5137,-2.5124,-2.5362,-2.5854,-2.6614,-2.7176,-2.7442,-2.8279,-2.8668,-2.8684,-2.8684,-2.8684,-2.881,-2.8854,-2.9195,-2.9661,-3.0095,-3.0809,-3.1694,-3.1964,-3.2513,0.0,0.0,0.0,0.0,0.0,0.0,0.0,0.0,-3.7254,-3.7194,-3.7254,-3.721,-3.7105,-3.7194,-3.715,-3.7044,-3.6846,-3.6723,-3.6662,-3.6616,0.0,0.0,-3.5879,-3.5737,-3.5879,-3.6414,-3.6492,0.0,0.0,0.0,0.0,0.0,0.0,0.0,0.0,0.0,0.0,0.0,0.0,0.0,0.0,0.0,0.0,0.0,0.0,0.0,0.0,-3.5895,-3.502,-3.4536,-3.3649,-3.296,-3.2503,-3.2314,-3.2182,-3.2182,-3.2589,-3.2576,-3.2182,-3.2182,-3.2182,-3.2182,-3.2182,-3.2182,-3.2182,-3.2182,-3.2182,-3.2182,-3.2182,-3.2182,-3.2182,-3.2182,-3.2182,-3.2182,0.0,0.0,0.0,0.0,0.0,0.0,0.0,0.0,0.0,0.0,0.0,0.0,0.0,0.0,0.0,0.0,0.0,0.0,-2.6418,-2.6016,-2.5799,-2.5701,-2.6466,-2.6974,-2.7127,-2.7955,-2.8136,-2.7612,-2.8498,-2.8889,-2.8794,-2.8794,-2.8794,-2.8826,-2.935,-2.9695,-2.992,-3.1243,-3.1821,-3.1883,-3.2761,-3.3096,-3.3112,0.0,0.0,0.0,0.0,0.0,0.0,0.0,-3.7389,-3.7254,-3.7464,-3.7329,-3.7194,-3.7194,-3.7194,-3.7194,-3.706,-3.6862,-3.6708,0.0,0.0,0.0,-3.6492,-3.6492,-3.6492,-3.6492,0.0,-3.6492,-3.6492,0.0,0.0,0.0,0.0,0.0,0.0,0.0,0.0,0.0,0.0,0.0,0.0,0.0,0.0,0.0,0.0,0.0,0.0,-3.5816,-3.54,-3.54,-3.3973,-3.3213,-3.3213,-3.2574,-3.2182,-3.2182,-3.2182,-3.2182,-3.2182,-3.2182,-3.2182,-3.2182,-3.2182,-3.2182,-3.2182,-3.2182,-3.2182,-3.2182,-3.2182,-3.2182,-3.2182,-3.2182,-3.2182,-3.2182,0.0,0.0,0.0,0.0,0.0,0.0,0.0,0.0,0.0,0.0,0.0,0.0,0.0,0.0,0.0,0.0,0.0,0.0,-2.6825,-2.6453,-2.6443,-2.6959,-2.6916,-2.7398,-2.8502,-2.9011,-2.8971,-2.8436,-2.8732,-2.8873,-2.8889,-2.8889,-2.8936,-2.9029,-2.9641,-3.0172,-3.0723,-3.1585,-3.2259,-3.2745,-3.3018,-3.315,-3.3303,0.0,0.0,0.0,0.0,0.0,0.0,0.0,0.0,0.0,-3.748,-3.7464,-3.7405,-3.7405,-3.7405,-3.7345,-3.721,-3.7074,0.0,-3.6923,0.0,0.0,0.0,-3.6554,0.0,0.0,-3.6492,-3.6492,-3.6492,0.0,0.0,0.0,0.0,0.0,0.0,0.0,0.0,0.0,0.0,0.0,0.0,0.0,0.0,0.0,0.0,0.0,0.0,-3.6289,-3.5943,-3.54,-3.4993,-3.4245,-3.3213,-3.303,-3.2704,-3.2182,-3.2182,-3.2182,-3.2182,-3.2182,-3.2182,-3.2182,-3.2182,-3.2182,-3.2182,-3.2182,-3.2182,-3.2182,-3.2182,-3.2182,-3.2182,-3.2182,-3.2182,-3.2182,0.0,0.0,0.0,0.0,0.0,0.0,0.0,0.0,0.0,0.0,0.0,0.0,0.0,0.0,0.0,0.0,0.0,0.0,0.0,0.0,-2.7368,-2.7791,-2.8205,-2.8875,-2.9869,-2.9766,-2.9633,-2.947,-2.9152,-2.8967,-2.8967,-2.8904,-2.9124,-2.958,-3.013,-3.0979,-3.1923,-3.2316,-3.2951,-3.3565,-3.3313,-3.3203,-3.3372,0.0,0.0,0.0,0.0,0.0,0.0,0.0,0.0,0.0,-3.748,-3.748,-3.748,-3.748,-3.748,-3.748,-3.7329,-3.7254,0.0,-3.7105,-3.706,-3.6938,-3.6862,0.0,0.0,0.0,0.0,-3.66,0.0,0.0,0.0,0.0,0.0,0.0,0.0,0.0,0.0,0.0,0.0,0.0,0.0,0.0,0.0,0.0,0.0,0.0,0.0,-3.66,-3.6399,-3.5928,-3.5464,-3.4795,-3.3959,-3.3506,-3.3044,-3.266,-3.266,-3.2516,-3.2372,-3.2241,-3.2182,-3.2182,-3.2182,-3.2182,-3.2182,-3.2182,-3.2182,-3.2182,-3.2182,-3.2182,-3.2182,-3.2182,-3.2182,-3.2182,0.0,0.0,0.0,0.0,0.0,0.0,0.0,0.0,0.0,0.0,0.0,0.0,0.0,0.0,0.0,0.0,0.0,0.0,0.0,0.0,-2.8454,-2.8526,-3.0006,-3.093,-3.1145,-3.0335,-3.0123,-3.0518,-2.9589,-2.9167,-2.9167,-2.9107,-2.9501,-3.0212,-3.0856,-3.1927,-3.3309,-3.3372,-3.3735,-3.4241,-3.364,-3.3356,-3.3372,-3.4036,0.0,0.0,0.0,0.0,0.0,0.0,0.0,0.0,-3.748,-3.748,-3.748,-3.748,-3.748,-3.748,-3.748,0.0,0.0,-3.7254,-3.7089,0.0,-3.6999,-3.6754,-3.6554,-3.6723,0.0,0.0,0.0,0.0,0.0,0.0,0.0,0.0,0.0,0.0,0.0,0.0,0.0,0.0,0.0,0.0,0.0,0.0,0.0,0.0,0.0,-3.6723,-3.6723,-3.6723,-3.5672,-3.5139,-3.5175,-3.407,-3.3409,-3.3339,-3.3339,-3.3129,-3.2775,-3.2444,-3.2255,-3.2182,-3.2182,-3.2182,-3.2182,-3.2182,-3.2255,-3.2314,-3.2314,-3.2314,-3.2372,-3.2372,-3.2372,-3.2372,0.0,0.0,0.0,0.0,0.0,0.0,0.0,0.0,0.0,0.0,0.0,0.0,0.0,0.0,0.0,0.0,0.0,0.0,0.0,0.0,-2.9036,-3.0282,-3.1289,-3.1666,-3.1321,-3.1167,-3.0891,-3.0584,-2.9968,-2.9633,-2.9649,-3.0151,-3.032,-3.0227,-3.1492,-3.2503,-3.3324,-3.3862,-3.4162,-3.4273,-3.413,-3.3767,-3.3372,-3.4036,-3.4747,0.0,0.0,0.0,0.0,0.0,0.0,0.0,-3.748,-3.748,-3.748,-3.748,-3.748,-3.748,-3.748,-3.748,0.0,0.0,-3.7285,-3.715,-3.715,-3.7044,-3.6877,-3.6938,0.0,0.0,0.0,0.0,0.0,0.0,0.0,0.0,0.0,0.0,0.0,0.0,0.0,0.0,0.0,0.0,0.0,0.0,0.0,0.0,-3.6938,-3.6938,-3.6938,-3.6938,-3.6677,-3.6258,-3.5706,-3.5044,-3.4447,0.0,-3.3465,-3.3395,-3.352,-3.2903,-3.2444,-3.2182,-3.2182,-3.2182,-3.2182,-3.2182,-3.2503,-3.296,-3.296,-3.3367,-3.3851,-3.3851,-3.3851,-3.3851,0.0,0.0,0.0,0.0,0.0,0.0,0.0,0.0,0.0,0.0,0.0,0.0,0.0,0.0,0.0,0.0,0.0,0.0,0.0,0.0,0.0,-3.1532,-3.1917,-3.1984,-3.1731,-3.1528,-3.1359,-3.13,-3.0811,-3.0318,-2.981,-3.0477,-3.0733,-3.0733,-3.2139,-3.334,-3.432,-3.4668,-3.4999,-3.5284,-3.4952,-3.462,-3.4383,-3.5063,-3.5552,-3.5979,-3.6674,0.0,0.0,0.0,0.0,0.0,0.0,0.0,-3.748,-3.748,-3.748,-3.748,-3.748,0.0,0.0,-3.748,0.0,-3.7329,-3.7329,-3.7285,-3.7241,0.0,0.0,0.0,0.0,0.0,0.0,0.0,0.0,0.0,0.0,0.0,0.0,0.0,0.0,0.0,0.0,0.0,0.0,0.0,0.0,-3.7181,-3.7105,-3.7105,-3.7105,-3.7105,-3.6862,-3.66,-3.6321,-3.5785,-3.5305,-3.4898,-3.4647,-3.4528,-3.4528,-3.3782,-3.3367,-3.3185,-3.2832,-3.2903,-3.3185,-3.2832,-3.3101,-3.3699,-3.3699,-3.3973,-3.4312,-3.4312,-3.4312,-3.4312,0.0,0.0,0.0,0.0,0.0,0.0,0.0,0.0,0.0,0.0,0.0,0.0,0.0,0.0,0.0,0.0,0.0,0.0,0.0,0.0,0.0,-3.2369,-3.2301,-3.2214,-3.2179,-3.1804,-3.175,-3.2108,-3.1869,-3.1235,-3.0293,-3.0969,-3.132,-3.1593,-3.299,-3.4286,-3.5394,-3.5521,-3.59,-3.6374,-3.5805,-3.5489,-3.5458,-3.6153,-3.6421,-3.6516,-3.7227,-3.748,-3.748,-3.748,0.0,0.0,0.0,0.0,-3.748,-3.748,-3.748,-3.748,-3.748,0.0,-3.748,-3.748,-3.748,0.0,-3.748,-3.748,-3.748,0.0,0.0,0.0,0.0,0.0,0.0,0.0,0.0,0.0,0.0,0.0,0.0,0.0,0.0,0.0,0.0,0.0,0.0,0.0,0.0,-3.7405,-3.7254,-3.7254,-3.7254,-3.7254,-3.6846,-3.6739,-3.6846,-3.6321,-3.6054,-3.6054,-3.5991,-3.5864,-3.5593,-3.4993,-3.4647,-3.4312,-3.3699,-3.3768,-3.4245,-3.363,-3.3837,-3.4514,-3.4514,-3.4581,-3.4647,-3.4647,-3.4647,-3.4647,0.0,0.0,0.0,0.0,0.0,0.0,0.0,0.0,0.0,0.0,0.0,0.0,0.0,0.0,0.0,0.0,0.0,0.0,-3.1211,0.0,0.0,-3.2802,-3.2802,-3.2705,-3.2539,-3.2488,-3.237,-3.2179,-3.2806,-3.2807,-3.2224,-3.279,-3.2951,-3.2805,-3.4242,-3.5091,-3.5426,-3.6026,-3.6342,-3.6421,-3.6327,-3.5932,-3.5458,-3.6153,-3.6421,-3.6516,-3.7227,-3.748,-3.748,-3.748,-3.748,0.0,0.0,0.0,-3.748,-3.748,-3.748,-3.748,0.0,0.0,-3.748,0.0,-3.748,-3.748,0.0,0.0,0.0,0.0,0.0,0.0,0.0,0.0,0.0,0.0,0.0,0.0,0.0,0.0,0.0,0.0,0.0,0.0,0.0,0.0,0.0,0.0,-3.748,-3.748,-3.7464,-3.7464,-3.7464,-3.7464,-3.7421,-3.7361,-3.7405,-3.6846,-3.6585,-3.6585,-3.6476,-3.6414,-3.6352,-3.6538,-3.5864,-3.4528,-3.4461,-3.438,-3.4312,-3.4177,-3.4581,-3.5255,-3.5255,-3.5657,-3.6211,-3.6211,-3.6211,-3.6211,0.0,0.0,0.0,0.0,0.0,0.0,0.0,0.0,0.0,0.0,0.0,0.0,0.0,0.0,0.0,-3.0712,-3.0864,-3.131,-3.2344,-3.2719,-3.2948,-3.2993,-3.2948,-3.2852,-3.277,-3.2672,-3.2751,-3.309,-3.3318,-3.3785,-3.4354,-3.4587,-3.4304,-3.3664,-3.4988,-3.5906,-3.645,-3.6748,-3.7279,-3.7913,-3.7576,-3.7496,-3.7546,-3.7855,-3.7968,-3.8017,-3.8342,-3.8455,-3.8455,-3.8455,-3.8455,-3.8455,-3.8455,0.0,0.0,0.0,-3.7943,0.0,-3.7583,-3.748,-3.748,0.0,-3.748,-3.748,-3.748,0.0,0.0,0.0,0.0,0.0,0.0,0.0,0.0,0.0,0.0,0.0,0.0,0.0,0.0,0.0,0.0,0.0,0.0,0.0,0.0,0.0,-3.748,-3.748,-3.748,-3.748,-3.748,-3.748,-3.748,-3.748,-3.748,-3.7285,-3.7165,-3.7165,-3.7105,-3.7044,-3.7044,-3.7241,-3.6708,-3.5721,-3.532,-3.532,-3.5529,-3.5059,-3.5335,-3.6022,-3.6022,-3.6211,-3.6492,-3.6492,-3.6492,-3.6492,0.0,0.0,0.0,0.0,0.0,0.0,0.0,0.0,0.0,0.0,0.0,0.0,0.0,0.0,0.0,0.0,-3.1943,-3.2378,-3.3273,-3.3208,-3.3147,-3.3268,-3.3104,-3.3011,-3.2948,-3.298,-3.329,-3.3809,-3.4058,-3.4705,-3.5731,-3.5924,-3.5602,-3.489,-3.5816,-3.6484,-3.697,-3.7334,-3.8077,-3.8924,-3.8657,-3.8849,-3.9206,-3.9206,-3.9206,-3.9206,-3.9206,-3.9206,-3.9206,-3.9242,-3.9242,-3.9242,-3.9295,-3.9242,0.0,0.0,0.0,0.0,0.0,0.0,-3.7539,-3.7583,-3.7524,-3.748,0.0,0.0,0.0,0.0,0.0,0.0,0.0,0.0,0.0,0.0,0.0,0.0,0.0,0.0,0.0,0.0,0.0,0.0,0.0,0.0,0.0,0.0,-3.748,-3.748,-3.748,-3.748,-3.748,-3.748,-3.748,-3.748,-3.748,-3.748,-3.748,-3.748,-3.748,-3.748,-3.748,-3.748,-3.7285,-3.6769,-3.6228,-3.6243,-3.6476,-3.5943,-3.6006,-3.6492,-3.6492,-3.6492,-3.6492,-3.6492,-3.6492,-3.6492,0.0,0.0,0.0,0.0,0.0,0.0,0.0,0.0,0.0,0.0,0.0,0.0,-3.139,-3.1569,-3.2031,-3.3028,-3.3248,-3.3496,-3.3902,-3.378,-3.3671,-3.3671,-3.3462,0.0,-3.3086,-3.3836,-3.4089,-3.3809,-3.5261,-3.5911,-3.5791,-3.6584,-3.6917,-3.6856,-3.6835,-3.6608,-3.6317,-3.7753,-3.8285,-3.8299,-3.9049,-3.9295,-3.9206,-3.9206,-3.9206,-3.9206,-3.9206,-3.9206,-3.9206,-3.9332,-3.9385,-3.9368,-3.9439,-3.9456,-3.9368,0.0,0.0,0.0,0.0,-3.7685,0.0,-3.7844,0.0,0.0,0.0,0.0,0.0,0.0,0.0,0.0,0.0,0.0,0.0,0.0,0.0,0.0,0.0,0.0,0.0,0.0,0.0,0.0,0.0,0.0,0.0,0.0,-3.748,-3.748,-3.748,-3.748,-3.748,-3.748,-3.748,-3.748,-3.748,-3.748,-3.748,-3.748,-3.748,-3.748,-3.748,-3.748,-3.7405,-3.7194,-3.7118,-3.6937,-3.6662,-3.6662,-3.66,-3.6492,-3.6492,-3.6492,-3.6492,-3.6492,-3.6492,-3.6492,0.0,0.0,0.0,0.0,0.0,0.0,0.0,0.0,0.0,0.0,0.0,0.0,0.0,-3.2343,-3.2918,-3.3597,-3.3854,-3.4272,-3.4995,-3.471,-3.477,-3.5331,-3.5078,-3.492,-3.4839,-3.4979,-3.5277,-3.5647,-3.6096,-3.6432,-3.6776,-3.7058,-3.7143,-3.7005,-3.6869,-3.7041,-3.7403,-3.7972,-3.8687,-3.947,-3.9848,-4.0203,-4.0497,0.0,0.0,0.0,0.0,0.0,0.0,-4.0546,-4.0546,-4.0546,-4.0577,-4.0577,-4.048,-4.0186,-3.9439,0.0,0.0,0.0,0.0,-3.8518,-3.859,-3.859,0.0,0.0,0.0,0.0,0.0,0.0,0.0,0.0,0.0,0.0,0.0,0.0,0.0,0.0,0.0,0.0,0.0,0.0,0.0,0.0,0.0,0.0,0.0,-3.748,-3.748,-3.748,-3.748,-3.748,-3.748,-3.748,-3.748,-3.748,-3.748,-3.748,-3.748,-3.748,-3.748,-3.748,-3.7464,-3.7405,-3.7405,-3.715,-3.6723,-3.6723,-3.66,-3.6492,-3.6492,-3.6492,-3.6492,-3.6492,-3.6492,-3.6492,0.0,0.0,0.0,0.0,0.0,0.0,0.0,0.0,0.0,0.0,0.0,0.0,0.0,0.0,-3.3762,-3.442,-3.5011,-3.5581,-3.6164,-3.5888,-3.5955,-3.6545,-3.6297,-3.6076,-3.5964,-3.5836,-3.6077,-3.6712,-3.6557,-3.6809,-3.741,-3.7334,-3.722,-3.7105,-3.7211,-3.7393,-3.7685,0.0,0.0,-3.9817,0.0,0.0,-4.1209,0.0,0.0,0.0,0.0,0.0,0.0,0.0,0.0,0.0,-4.13,-4.1346,-4.1209,-4.0594,-3.9969,0.0,-3.9282,0.0,0.0,0.0,0.0,-3.9315,0.0,0.0,0.0,0.0,0.0,0.0,0.0,0.0,0.0,0.0,0.0,0.0,0.0,0.0,0.0,0.0,0.0,0.0,0.0,0.0,0.0,0.0,0.0,0.0,-3.748,-3.748,-3.748,-3.748,-3.748,-3.748,-3.748,-3.748,-3.748,-3.748,-3.748,-3.748,-3.748,-3.748,-3.748,-3.748,-3.748,-3.7285,-3.6831,-3.6846,-3.6739,-3.6554,-3.6492,-3.6492,-3.6492,-3.6492,-3.6492,-3.6492,0.0,0.0,0.0,0.0,0.0,0.0,0.0,0.0,0.0,-3.292,0.0,0.0,0.0,0.0,0.0,-3.566,-3.6774,-3.7431,-3.745,-3.7268,-3.714,-3.7178,-3.6981,-3.6714,-3.6381,-3.6381,-3.6497,-3.673,-3.673,-3.7022,-3.7613,-3.741,-3.7314,-3.7367,-3.7897,-3.7707,-3.7185,0.0,-3.9256,-3.9276,0.0,-4.1318,-4.1209,0.0,0.0,0.0,-4.1209,-4.1209,0.0,-4.1363,0.0,0.0,0.0,-4.1604,-4.1453,-4.0659,-4.0546,0.0,0.0,0.0,0.0,0.0,0.0,0.0,0.0,0.0,0.0,0.0,0.0,0.0,0.0,0.0,0.0,0.0,0.0,0.0,0.0,0.0,0.0,0.0,0.0,0.0,0.0,0.0,0.0,0.0,-3.748,-3.748,-3.748,-3.748,-3.748,-3.748,-3.748,-3.748,-3.748,-3.748,-3.748,-3.748,-3.748,-3.748,-3.748,-3.748,-3.748,-3.748,-3.748,-3.7405,-3.7194,-3.7044,-3.6877,-3.6662,-3.6554,-3.6492,-3.6492,-3.6492,-3.6492,-3.6492,0.0,0.0,0.0,0.0,0.0,0.0,0.0,0.0,-3.3227,0.0,0.0,0.0,-3.533,-3.6125,-3.6744,-3.705,-3.7414,-3.7889,-3.8518,-3.8283,-3.8361,-3.8965,-3.8708,-3.8375,-3.8048,-3.8048,-3.7955,-3.7799,-3.7799,-3.7787,-3.7828,-3.7757,-3.7989,-3.8376,-3.8323,-3.8528,-3.8934,-3.9792,0.0,-4.0192,-4.1157,-4.1498,0.0,0.0,0.0,0.0,0.0,-4.1498,-4.1515,0.0,-4.156,-4.156,0.0,0.0,-4.156,-4.1346,-4.1117,0.0,-4.0754,0.0,0.0,0.0,0.0,0.0,0.0,0.0,0.0,0.0,0.0,0.0,0.0,0.0,0.0,0.0,0.0,0.0,0.0,0.0,0.0,0.0,0.0,0.0,0.0,0.0,0.0,0.0,-3.748,-3.748,-3.748,-3.748,-3.748,-3.748,-3.748,-3.748,-3.748,-3.748,-3.748,-3.748,-3.748,-3.748,-3.748,-3.748,-3.748,-3.748,-3.748,-3.748,-3.7405,-3.721,-3.6968,-3.6723,-3.6662,-3.6616,-3.6492,-3.6492,-3.6492,-3.6492,0.0,0.0,0.0,0.0,0.0,0.0,-3.3901,-3.4054,-3.4356,0.0,0.0,0.0,-3.6434,-3.747,-3.8099,-3.8099,-3.8517,-3.9011,-3.9508,-3.9355,-3.9464,-3.9939,-3.9769,-3.947,-3.9082,-3.8765,-3.8543,-3.8483,-3.8041,-3.7962,-3.8138,-3.8311,-3.8582,-3.8957,0.0,0.0,0.0,0.0,0.0,0.0,-4.1306,0.0,0.0,-4.1604,-4.1604,0.0,0.0,0.0,-4.1604,-4.1604,-4.1604,0.0,0.0,0.0,0.0,0.0,0.0,0.0,0.0,0.0,0.0,0.0,0.0,0.0,-4.1542,-4.1363,0.0,0.0,0.0,0.0,0.0,0.0,0.0,0.0,0.0,0.0,0.0,0.0,0.0,0.0,0.0,0.0,0.0,-3.8286,-3.8116,-3.7685,-3.7685,-3.7642,-3.7539,-3.748,-3.748,-3.748,-3.748,-3.748,-3.748,-3.748,-3.748,-3.748,-3.748,-3.748,-3.748,-3.748,-3.748,-3.748,-3.748,-3.748,-3.748,-3.7389,-3.715,-3.6892,-3.6862,-3.68,-3.6693,-3.66,-3.66,-3.6554,0.0,0.0,0.0,-3.3713,-3.3865,-3.413,-3.4927,-3.5059,-3.5401,0.0,-3.6483,-3.6767,-3.7508,-3.8403,-3.8956,-3.8956,-3.9776,-4.031,-4.031,-4.031,-4.031,-4.031,-4.031,-4.0077,-3.9623,-3.8912,-3.8652,-3.8921,-3.8021,-3.7955,-3.8656,-3.9063,-3.9301,-3.9445,0.0,0.0,0.0,0.0,0.0,-4.0742,-4.1385,-4.1604,0.0,0.0,-4.1604,-4.1648,-4.1648,-4.1648,-4.1692,-4.1692,-4.1692,0.0,0.0,0.0,0.0,0.0,-4.1604,0.0,0.0,0.0,0.0,0.0,0.0,0.0,-4.1604,-4.1604,-4.1604,0.0,0.0,0.0,0.0,0.0,0.0,0.0,0.0,0.0,0.0,0.0,0.0,0.0,0.0,0.0,-3.886,-3.8805,-3.8567,-3.8001,-3.7943,-3.7786,-3.7583,-3.7539,-3.748,-3.748,-3.748,-3.748,-3.748,-3.748,-3.748,-3.748,-3.748,-3.748,-3.748,-3.748,-3.748,-3.748,-3.748,-3.748,-3.748,-3.748,-3.7405,-3.7194,-3.7044,-3.6999,-3.6999,-3.68,-3.6723,-3.6662,0.0,0.0,0.0,-3.4808,-3.4846,-3.5077,-3.5837,-3.5989,-3.6349,-3.7243,-3.7985,-3.8517,-3.867,-3.949,-4.0005,-4.0005,-4.0196,-4.031,-4.031,-4.031,-4.031,-4.031,-4.031,-4.0118,-3.9683,-3.9513,-3.9282,-3.8971,-3.9257,-3.9423,-3.9465,-3.9982,-4.0565,-4.1197,0.0,0.0,0.0,0.0,0.0,-4.1949,-4.1709,0.0,-4.1604,-4.1604,-4.1675,-4.1849,-4.1849,-4.1977,-4.2163,-4.2163,-4.2163,-4.2163,0.0,0.0,0.0,0.0,0.0,0.0,0.0,0.0,0.0,0.0,0.0,0.0,-4.1604,-4.1604,-4.1604,0.0,0.0,0.0,0.0,0.0,0.0,0.0,0.0,0.0,0.0,0.0,0.0,0.0,0.0,0.0,-3.886,-3.8805,-3.8639,-3.8335,-3.8075,-3.7886,-3.7828,-3.7642,-3.748,-3.748,-3.748,-3.748,-3.748,-3.748,-3.748,-3.748,-3.748,-3.748,-3.748,-3.748,-3.748,-3.748,-3.748,-3.748,-3.748,-3.748,-3.7405,-3.7194,-3.7194,-3.7105,-3.7015,-3.6938,-3.6862,-3.6723,0.0,0.0,0.0,0.0,-3.6133,-3.6517,-3.69,-3.6975,-3.7317,-3.8175,-3.9089,-3.9661,-3.9661,-4.0043,-4.0463,-4.0864,-4.0903,-4.1074,-4.1533,-4.1552,-4.1552,-4.1552,-4.1552,-4.1435,-4.1149,-4.1149,-4.0995,-4.071,-4.0913,-4.0866,-4.0603,-4.1156,-4.1503,0.0,0.0,0.0,0.0,0.0,-4.2409,-4.2287,-4.2037,0.0,-4.1952,-4.1952,-4.2019,-4.2103,-4.2103,-4.2205,-4.2287,-4.2287,-4.2287,0.0,0.0,-4.2205,-4.2103,0.0,-4.2019,-4.1952,0.0,0.0,0.0,-4.1762,0.0,0.0,0.0,-4.1762,-4.1762,0.0,0.0,0.0,0.0,0.0,0.0,0.0,0.0,0.0,0.0,0.0,0.0,0.0,0.0,0.0,-3.9345,-3.9202,-3.8931,-3.86,-3.8319,-3.8075,-3.7886,-3.7786,-3.7642,-3.748,-3.748,-3.748,-3.748,-3.748,-3.748,-3.748,-3.748,-3.748,-3.748,-3.748,-3.748,-3.748,-3.748,-3.748,-3.748,-3.748,-3.7464,-3.7329,-3.7329,-3.7285,-3.7241,-3.7165,-3.7029,-3.6952,-3.5886,0.0,0.0,0.0,-3.7319,-3.7785,-3.794,-3.7978,-3.8247,-3.9144,-3.987,-4.0291,-4.0291,0.0,0.0,0.0,-4.1648,-4.2049,0.0,0.0,-4.2794,-4.2794,-4.2794,-4.2754,-4.2633,-4.2652,-4.2569,-4.2439,-4.234,-4.2141,-4.1827,-4.2353,0.0,0.0,0.0,0.0,0.0,0.0,0.0,-4.2409,0.0,-4.2369,-4.2287,-4.2287,-4.2328,-4.2369,-4.2409,-4.2409,-4.2409,-4.2409,-4.2409,-4.2409,-4.2409,-4.2409,0.0,0.0,0.0,0.0,0.0,0.0,0.0,0.0,0.0,-4.1977,0.0,0.0,0.0,0.0,0.0,0.0,0.0,0.0,0.0,0.0,0.0,0.0,0.0,0.0,0.0,0.0,0.0,0.0,0.0,-3.9351,-3.8999,-3.8914,-3.8525,-3.8173,-3.8001,-3.7943,-3.7786,-3.7539,-3.748,-3.748,-3.748,-3.748,-3.748,-3.748,-3.748,-3.748,-3.748,-3.748,-3.748,-3.748,-3.748,-3.748,-3.748,-3.748,-3.748,-3.748,-3.748,-3.748,-3.748,-3.7329,-3.7254,-3.7194,-3.789,-3.7893,0.0,0.0,-3.7853,0.0,0.0,0.0,-3.9182,-4.004,-4.025,0.0,0.0,0.0,0.0,0.0,0.0,0.0,-4.2794,0.0,0.0,-4.2794,-4.2794,-4.2794,-4.2774,-4.2774,-4.2714,-4.2569,-4.2913,-4.3013,-4.2922,-4.3336,0.0,0.0,-4.3231,0.0,0.0,0.0,-4.2844,0.0,-4.2806,-4.2631,0.0,-4.2287,-4.2409,-4.2609,-4.2786,-4.2806,-4.2806,0.0,-4.2806,-4.2806,0.0,-4.2709,-4.257,-4.257,0.0,0.0,0.0,0.0,0.0,0.0,-4.2246,0.0,0.0,0.0,0.0,-4.1977,0.0,-4.1805,-4.1648,0.0,0.0,0.0,0.0,0.0,0.0,0.0,0.0,0.0,0.0,0.0,0.0,-3.8761,-3.8593,-3.9222,-3.8323,-3.7954,-3.8303,-3.8075,-3.7786,-3.7539,-3.748,-3.748,-3.748,-3.748,-3.748,-3.748,-3.748,-3.748,-3.748,-3.748,-3.748,-3.748,-3.748,-3.748,-3.748,-3.748,-3.748,-3.748,-3.748,-3.748,-3.748,-3.748,-3.7329,-3.7194,-3.8388,-3.8617,0.0,0.0,0.0,0.0,0.0,0.0,0.0,0.0,0.0,0.0,0.0,0.0,0.0,0.0,0.0,-4.3711,0.0,0.0,0.0,0.0,0.0,0.0,-4.4246,-4.4246,-4.4225,-4.4164,-4.4338,-4.4283,-4.403,-4.4121,0.0,0.0,-4.3389,0.0,-4.3124,0.0,-4.2882,0.0,0.0,0.0,0.0,-4.267,-4.2709,-4.2786,-4.2844,-4.2882,-4.2882,0.0,-4.2882,0.0,0.0,0.0,0.0,0.0,0.0,0.0,0.0,0.0,0.0,0.0,0.0,0.0,-4.249,0.0,-4.245,0.0,0.0,0.0,0.0,0.0,0.0,0.0,-4.1394,0.0,0.0,0.0,0.0,0.0,0.0,0.0,0.0,0.0,0.0,0.0,-3.7859,-3.7482,-3.7728,-3.7648,-3.7559,-3.7524,-3.748,-3.748,-3.748,-3.748,-3.748,-3.748,-3.748,-3.748,-3.748,-3.748,-3.748,-3.748,-3.748,-3.748,-3.748,-3.748,-3.748,-3.748,-3.748,-3.748,-3.748,-3.748,-3.7464,-3.7389,-3.9578,0.0,0.0,0.0,0.0,0.0,0.0,0.0,0.0,0.0,0.0,0.0,-4.2851,-4.3063,0.0,0.0,-4.4227,-4.4628,0.0,0.0,-4.5297,0.0,0.0,0.0,0.0,-4.5297,-4.5297,-4.5297,-4.5256,-4.5106,-4.4814,-4.4617,0.0,0.0,0.0,-4.3474,-4.3355,0.0,-4.305,-4.2995,-4.2995,-4.2995,-4.2995,-4.292,-4.2882,-4.2882,-4.2882,-4.2882,-4.2882,-4.2882,-4.2882,0.0,-4.2882,0.0,0.0,0.0,0.0,0.0,-4.2882,0.0,0.0,0.0,0.0,0.0,0.0,0.0,0.0,0.0,0.0,0.0,0.0,0.0,-4.1906,0.0,0.0,-4.1341,0.0,0.0,0.0,0.0,0.0,0.0,0.0,0.0,0.0,0.0,0.0,-3.6915,-3.7075,-3.7394,-3.7588,-3.7556,-3.7863,-3.8017,-3.7976,-3.7976,-3.7976,-3.7976,-3.7976,-3.7976,-3.7976,-3.7976,-3.7976,-3.7976,-3.7976,-3.7976,-3.7976,-3.7976,-3.7976,-3.7976,-3.7976,-3.7976,-3.7918,-3.7642,-3.748,-3.748,-4.2275,-4.1616,0.0,0.0,0.0,0.0,0.0,0.0,0.0,0.0,0.0,0.0,0.0,0.0,0.0,0.0,0.0,-4.5258,-4.5297,0.0,-4.5297,0.0,0.0,-4.5297,0.0,0.0,-4.5297,-4.5297,-4.517,-4.5103,-4.5061,0.0,0.0,0.0,-4.4346,-4.3974,-4.3505,-4.3505,-4.3406,-4.3267,-4.3267,-4.3267,-4.3267,0.0,-4.2882,-4.2882,-4.2882,0.0,0.0,-4.2882,-4.2882,0.0,0.0,0.0,0.0,0.0,0.0,0.0,0.0,0.0,0.0,-4.2882,0.0,0.0,0.0,0.0,-4.2862,0.0,0.0,0.0,0.0,0.0,0.0,0.0,0.0,0.0,0.0,0.0,0.0,0.0,0.0,0.0,0.0,0.0,0.0,0.0,0.0,0.0,-3.661,-3.768,-3.8077,-3.7687,-3.8755,-3.9279,-3.9152,-3.9152,-3.9152,-3.9152,-3.9152,-3.9152,-3.9152,-3.9152,-3.9152,-3.9152,-3.9152,-3.9152,-3.9152,-3.9152,-3.9152,-3.9152,-3.9152,-3.9152,-3.899,-3.7918,-3.748,-3.748,0.0,0.0,0.0,0.0,0.0,0.0,0.0,-4.3973,0.0,0.0,0.0,0.0,0.0,-4.5156,-4.5259,0.0,0.0,-4.5455,-4.5361,-4.538,0.0,0.0,0.0,-4.5338,0.0,0.0,-4.5297,-4.5297,-4.5235,-4.5235,-4.5213,0.0,0.0,0.0,0.0,-4.4299,0.0,0.0,0.0,0.0,0.0,-4.3579,-4.3545,0.0,0.0,-4.2882,-4.2882,-4.2882,0.0,-4.2882,-4.2882,-4.2882,-4.2882,-4.2882,-4.2882,-4.2882,-4.2882,0.0,0.0,0.0,-4.2882,-4.2882,0.0,0.0,0.0,0.0,0.0,0.0,0.0,0.0,0.0,0.0,0.0,0.0,0.0,0.0,0.0,0.0,0.0,0.0,0.0,0.0,0.0,0.0,0.0,0.0,-3.6412,0.0,-3.6582,-3.6963,-3.7484,-3.815,-3.8553,-3.8937,-3.9332,-3.9332,-3.9295,-3.9206,-3.9206,-3.9206,-3.9206,-3.9206,-3.9206,-3.9206,-3.9206,-3.9206,-3.9206,-3.9206,-3.9206,-3.9206,-3.9206,-3.9206,-3.9152,-3.8772,-3.8606,-3.8551,-4.4153,0.0,0.0,0.0,0.0,0.0,0.0,0.0,0.0,0.0,-4.5682,0.0,-4.5897,0.0,-4.5859,0.0,-4.5675,-4.56,-4.5491,-4.5473,0.0,-4.54,-4.54,0.0,0.0,0.0,0.0,-4.5297,-4.5297,-4.5297,-4.5297,0.0,0.0,0.0,0.0,-4.4617,-4.443,0.0,-4.4125,0.0,0.0,-4.4053,0.0,0.0,-4.3508,-4.3196,0.0,-4.3196,-4.3196,-4.3196,-4.3196,-4.3196,-4.3196,-4.3196,-4.3196,-4.3196,-4.3142,-4.3032,-4.3032,-4.2957,0.0,-4.2882,-4.2882,0.0,-4.2882,0.0,0.0,0.0,0.0,0.0,0.0,0.0,0.0,0.0,0.0,0.0,0.0,-3.865,0.0,0.0,0.0,0.0,0.0,0.0,0.0,-3.6835,-3.6241,-3.6024,0.0,0.0,-3.7279,-3.8041,-3.8744,-3.927,-3.9664,-3.9918,-4.0003,-3.9885,-3.9885,-3.9833,-3.9817,-3.9817,-3.9817,-3.9817,-3.9817,-3.9817,-3.9817,-3.9817,-3.9817,-3.9817,-3.9817,-3.9817,-3.9782,-3.9365,-3.9206,-3.9082,0.0,0.0,0.0,0.0,-4.4504,0.0,0.0,0.0,-4.6249,0.0,-4.6105,-4.6057,-4.593,-4.5919,-4.5917,-4.5906,-4.5844,-4.577,-4.5615,-4.56,0.0,0.0,-4.5419,-4.5419,-4.5399,0.0,0.0,0.0,-4.5297,-4.5297,-4.5297,0.0,0.0,0.0,-4.517,0.0,-4.472,-4.472,-4.4624,-4.4546,-4.4802,-4.4758,-4.4519,-4.4519,-4.4213,-4.3744,-4.3712,-4.3712,-4.3712,-4.3712,-4.3712,-4.3712,-4.3712,-4.3712,-4.3712,-4.3712,-4.3511,-4.3303,-4.3303,-4.3124,-4.292,-4.292,0.0,0.0,0.0,0.0,-4.292,0.0,0.0,0.0,0.0,0.0,0.0,0.0,0.0,0.0,0.0,0.0,0.0,0.0,0.0,0.0,0.0,0.0,-3.6544,-3.6544,-3.6182,-3.595,0.0,0.0,-3.7542,-3.7448,-3.926,-4.0228,-4.013,-4.0844,-4.118,-4.1093,-4.1093,-4.1047,-4.0918,-4.0918,-4.0918,-4.0918,-4.0918,-4.0918,-4.0935,-4.0935,-4.0935,-4.0888,-4.0888,-4.0888,-4.0776,-3.9662,-3.9259,-3.9135,-4.5966,-4.6156,-4.6153,0.0,-4.5815,-4.6046,0.0,0.0,0.0,0.0,-4.6245,-4.624,-4.6206,-4.6201,-4.6164,-4.6068,-4.6033,0.0,0.0,0.0,0.0,-4.5764,-4.5764,-4.5694,-4.5541,-4.5507,0.0,-4.5359,0.0,0.0,-4.5297,0.0,0.0,0.0,0.0,0.0,-4.4995,-4.4995,-4.4924,-4.4802,-4.487,-4.487,0.0,0.0,-4.4707,-4.4549,-4.4023,-4.3868,-4.3836,-4.3744,-4.3712,-4.3712,-4.3712,-4.3712,-4.3712,-4.3712,-4.3646,-4.3612,-4.3612,-4.3545,-4.3511,-4.3511,-4.3511,-4.3511,0.0,0.0,0.0,0.0,0.0,0.0,0.0,0.0,0.0,0.0,0.0,0.0,0.0,0.0,0.0,-3.7828,0.0,0.0,0.0,-3.7027,-3.6869,-3.6869,-3.6771,-3.6713,-3.6713,0.0,0.0,-3.7912,-3.8993,-3.9756,-4.0246,-4.0996,-4.1272,-4.118,-4.118,-4.118,-4.1117,-4.1117,-4.1117,-4.1117,-4.1117,-4.1088,-4.1047,-4.1047,-4.1,-4.0888,-4.0888,-4.0888,-4.0871,-4.0566,-4.0187,-3.9749,-4.6301,0.0,0.0,-4.6297,0.0,0.0,-4.63,-4.63,0.0,-4.63,-4.63,0.0,-4.63,-4.63,-4.6273,-4.6187,-4.6181,0.0,-4.5996,0.0,0.0,-4.5897,-4.5897,-4.5852,-4.5736,-4.565,0.0,-4.5438,0.0,0.0,-4.5297,0.0,0.0,0.0,0.0,-4.5275,-4.5192,-4.5192,-4.5148,-4.5061,-4.5061,0.0,0.0,-4.5061,-4.5061,-4.5014,-4.4591,-4.4402,-4.4318,-4.425,-4.4221,-4.4221,-4.4221,-4.4162,-4.4151,-4.4151,-4.403,-4.3873,-4.3873,-4.3777,-4.3712,-4.3712,-4.3712,-4.3712,-4.3712,-4.3579,-4.3477,0.0,0.0,0.0,0.0,0.0,0.0,0.0,0.0,0.0,0.0,0.0,0.0,0.0,-3.7934,0.0,0.0,-3.7297,-3.7143,-3.7143,-3.7066,-3.6987,0.0,0.0,0.0,-3.7602,-3.8725,-3.9473,-3.9869,-4.0928,-4.1408,-4.1272,-4.1272,-4.1255,-4.1209,-4.1209,-4.1209,-4.1209,-4.1209,-4.118,-4.1152,-4.1152,-4.1105,-4.1041,-4.1041,-4.1012,-4.1,-4.1,-4.0728,-4.0336,-4.6303,0.0,0.0,0.0,0.0,0.0,0.0,-4.6303,0.0,-4.63,0.0,-4.6475,-4.6475,-4.6554,-4.6632,-4.6632,0.0,-4.6421,-4.6294,-4.619,-4.6064,-4.5969,-4.594,-4.5949,-4.5928,-4.579,-4.5679,0.0,0.0,0.0,0.0,0.0,0.0,0.0,0.0,0.0,0.0,-4.5297,-4.5297,-4.5297,-4.5297,-4.5297,-4.5297,-4.5297,-4.5297,-4.5297,-4.517,-4.5057,-4.4919,-4.4914,-4.4895,-4.4895,-4.4895,-4.4821,-4.4738,-4.4738,-4.4486,-4.421,-4.4181,-4.3999,-4.3841,-4.3809,-4.3809,-4.3809,-4.3809,-4.3777,-4.3744,-4.3744,-4.3712,-4.3612,0.0,0.0,0.0,0.0,0.0,0.0,0.0,0.0,0.0,0.0,0.0,0.0,0.0,0.0,-3.7334,-3.7297,-3.7143,-3.7027,0.0,0.0,0.0,-3.6987,-3.8497,-3.9305,-3.9305,0.0,-4.156,-4.1426,-4.1426,-4.1363,-4.1255,-4.1255,-4.1255,-4.1255,-4.1255,-4.1255,-4.1209,-4.1209,-4.1209,-4.1209,-4.1209,-4.118,-4.1093,-4.1093,-4.1029,-4.0853,0.0,0.0,0.0,0.0,0.0,-4.63,-4.63,-4.6309,-4.63,-4.63,-4.6924,-4.7373,-4.7373,-4.7959,-4.8369,-4.8369,-4.7764,0.0,0.0,0.0,0.0,-4.624,-4.624,-4.6176,-4.6076,-4.5985,-4.5817,0.0,0.0,0.0,0.0,0.0,0.0,0.0,0.0,0.0,-4.5297,-4.5297,0.0,-4.5297,-4.5297,-4.5297,-4.5297,-4.5297,-4.5297,-4.5297,-4.5256,-4.517,-4.5057,-4.4919,-4.4895,-4.4895,-4.4895,-4.487,-4.487,-4.487,-4.4821,-4.4745,-4.464,-4.456,-4.4505,-4.4411,-4.4354,-4.4354,-4.4354,-4.417,-4.403,-4.403,-4.3841,-4.3679,-4.3646,0.0,0.0,0.0,0.0,0.0,0.0,0.0,0.0,0.0,0.0,-3.8882,0.0,0.0,0.0,0.0,0.0,0.0,0.0,0.0,0.0,0.0,-3.8497,0.0,0.0,0.0,-4.1604,-4.156,-4.156,-4.156,-4.1542,-4.1542,-4.1542,-4.1542,-4.1542,-4.1471,-4.1363,-4.1363,-4.1318,-4.1209,-4.1209,-4.1209,-4.1163,-4.1163,-4.1163,-4.1117,0.0,0.0,0.0,0.0,0.0,0.0,0.0,-4.6686,0.0,-4.697,-4.7338,-4.7764,-4.8174,-4.8564,-4.8798,-4.8798,-4.8447,-4.8057,-4.7627,-4.7217,-4.6768,-4.6319,-4.63,0.0,-4.6211,-4.6092,-4.5968,-4.5815,0.0,0.0,0.0,0.0,0.0,0.0,0.0,-4.5297,0.0,0.0,0.0,-4.5297,-4.5297,-4.5297,-4.5297,-4.5297,-4.5297,-4.5297,-4.5297,-4.5275,-4.5192,-4.5125,-4.5103,-4.5103,-4.5103,-4.5057,-4.4991,-4.4991,-4.4943,-4.4889,-4.4821,-4.4796,-4.477,-4.4632,-4.4605,-4.4578,-4.4515,-4.4411,-4.4306,-4.4306,-4.4199,-4.4079,-4.3936,-4.3679,0.0,0.0,0.0,0.0,0.0,0.0,0.0,0.0,0.0,0.0,0.0,0.0,0.0,0.0,0.0,0.0,0.0,0.0,0.0,0.0,0.0,0.0,0.0,0.0,0.0,-4.1604,-4.1604,-4.1604,-4.1604,-4.1604,-4.1604,-4.1604,-4.1604,-4.156,-4.1515,-4.1515,-4.1471,-4.1408,-4.1408,-4.1363,-4.1318,-4.1318,-4.1255,-4.1163,0.0,-4.6191,0.0,0.0,-4.6267,0.0,-4.6523,-4.7147,-4.7588,-4.7601,-4.7904,-4.8369,-4.9013,-4.9247,-4.9345,-4.9345,-4.9189,-4.874,-4.792,-4.7686,-4.7217,-4.6339,-4.63,-4.63,-4.63,-4.6206,-4.6091,0.0,0.0,0.0,0.0,0.0,0.0,0.0,0.0,0.0,0.0,0.0,-4.5297,-4.5297,-4.5297,-4.5297,-4.5297,-4.5297,-4.5297,-4.5297,-4.5297,-4.5297,-4.5297,-4.5297,-4.5297,-4.5297,-4.5297,-4.5213,-4.5148,-4.5148,-4.508,-4.4967,-4.4943,-4.4943,-4.4895,-4.4789,-4.4738,-4.4685,-4.4605,-4.4551,-4.4551,-4.4578,-4.4551,-4.4468,-4.4151,-4.3936,0.0,0.0,0.0,0.0,0.0,0.0,0.0,0.0,0.0,0.0,-3.9558,0.0,0.0,0.0,0.0,0.0,0.0,0.0,0.0,0.0,0.0,-3.9392,-3.955,0.0,-4.1604,-4.1604,-4.1604,-4.1604,-4.1604,-4.1604,-4.1604,-4.1604,-4.1604,-4.1604,-4.1604,-4.1604,-4.1604,-4.1604,-4.1604,-4.1515,-4.1426,-4.1426,-4.1363,-4.1255,0.0,0.0,0.0,0.0,0.0,0.0,-4.726,-4.7467,-4.7537,-4.7584,-4.8919,-4.9891,-4.9969,-5.0672,-5.116,-5.116,-5.0438,-4.9618,-4.874,-4.7998,-4.7217,-4.6339,-4.63,-4.63,-4.63,-4.6296,-4.6187,0.0,0.0,0.0,0.0,0.0,0.0,0.0,0.0,0.0,0.0,-4.5297,-4.5297,-4.5297,-4.5297,-4.5297,-4.5297,-4.5297,-4.5297,-4.5297,-4.5297,-4.5297,-4.5297,-4.5297,-4.5297,-4.5297,-4.5297,-4.5297,-4.5297,-4.5297,-4.5275,-4.5254,-4.5125,-4.508,-4.5057,-4.4919,-4.477,-4.4738,-4.4821,-4.4789,-4.4712,-4.4821,-4.4764,-4.456,-4.4151,-4.406,-4.3968,0.0,0.0,0.0,0.0,0.0,0.0,0.0,0.0,0.0,0.0,-3.9312,0.0,0.0,0.0,0.0,0.0,0.0,0.0,-3.8231,0.0,-3.9656,-4.0358,-4.1183,-4.1604,-4.1604,-4.1604,-4.1604,-4.1604,-4.1604,-4.1604,-4.1604,-4.1604,-4.1604,-4.1604,-4.1604,-4.1604,-4.1604,-4.1604,-4.1604,-4.156,-4.156,-4.156,-4.1542,0.0,0.0,0.0,0.0,0.0,0.0,0.0,-4.8273,-4.897,-4.9021,-4.9662,-5.0308,-5.0816,-5.1183,-5.1394,-5.1394,-5.1082,-5.0282,-4.8896,-4.8505,-4.7725,-4.6358,-4.63,-4.63,-4.63,-4.63,-4.6245,0.0,0.0,0.0,0.0,0.0,0.0,0.0,0.0,-4.5571,-4.5541,-4.5541,-4.5491,-4.5438,-4.5438,-4.538,-4.5297,-4.5297,-4.5297,-4.5297,-4.5297,-4.5297,-4.5297,-4.5297,-4.5297,-4.5297,-4.5297,-4.5297,-4.5297,-4.5297,-4.5297,-4.5297,-4.5235,-4.5213,-4.5192,-4.5038,-4.4967,-4.4919,-4.4914,-4.4846,-4.484,-4.4895,-4.4846,-4.477,-4.4621,-4.4595,-4.4549,0.0,0.0,0.0,0.0,0.0,0.0,0.0,0.0,0.0,0.0,0.0,0.0,0.0,0.0,0.0,0.0,0.0,0.0,-3.885,0.0,-4.039,-4.0913,-4.1868,-4.2262,-4.1984,-4.2198,-4.232,-4.232,-4.232,-4.232,-4.232,-4.2364,-4.2382,-4.232,-4.205,-4.1941,-4.1941,-4.1675,-4.1604,-4.1604,-4.1604,-4.1604,-4.1604,-4.591,0.0,-4.6033,0.0,-4.6853,-4.7427,-4.794,-4.9067,-4.999,-5.0308,-5.0385,-5.0663,-5.1335,-5.1405,-5.1398,-5.1398,-5.1394,-5.0653,-4.8915,-4.8798,-4.8057,-4.6378,-4.63,0.0,-4.63,-4.63,-4.6273,-4.624,-4.624,0.0,0.0,0.0,0.0,0.0,-4.582,-4.5764,-4.5731,-4.5717,-4.565,-4.5563,-4.5547,-4.5495,-4.5419,-4.5419,-4.54,-4.536,-4.536,-4.5319,-4.5297,-4.5297,-4.5297,-4.5297,-4.5297,-4.5297,-4.5297,-4.5297,-4.5297,-4.5297,-4.5297,-4.5297,-4.5275,-4.517,-4.5125,-4.5103,-4.5014,-4.501,-4.4943,-4.4943,-4.4943,-4.4943,-4.4895,-4.4895,-4.4895,-4.4895,0.0,0.0,0.0,0.0,0.0,0.0,-4.3364,-4.2507,-4.1932,-4.1144,0.0,0.0,0.0,0.0,0.0,0.0,0.0,0.0,0.0,0.0,0.0,-4.2576,-4.2811,-4.2462,-4.2754,-4.2867,-4.2867,-4.2867,-4.2867,-4.2829,-4.2923,-4.2923,-4.2867,-4.258,-4.2462,-4.2382,-4.2074,-4.1966,-4.1941,-4.1941,-4.1941,-4.1941,-4.5814,-4.5814,-4.6085,-4.6955,-4.711,-4.7713,-4.9501,-4.9796,-5.012,-5.1059,-5.1186,-5.1249,-5.1384,-5.1394,-5.1408,-5.1408,-5.1402,-5.0653,-4.8915,-4.8798,-4.8057,0.0,0.0,-4.63,-4.63,-4.63,-4.63,-4.63,0.0,0.0,-4.6206,0.0,-4.5998,-4.5998,-4.5856,-4.5789,-4.5789,-4.5731,-4.5703,-4.5703,-4.5692,-4.57,-4.57,-4.57,-4.5599,-4.5495,-4.5495,-4.54,-4.5297,-4.5297,-4.5297,-4.5297,-4.5297,-4.5297,-4.5297,-4.5297,-4.5297,-4.5297,-4.5297,-4.5297,-4.5297,-4.5297,-4.5192,-4.5148,-4.5275,-4.5192,-4.5103,-4.5103,-4.5103,-4.5057,-4.4919,-4.4895,-4.4895,-4.4895,0.0,0.0,0.0,0.0,0.0,0.0,-4.3864,-4.3294,-4.3275,-4.2479,0.0,0.0,0.0,0.0,0.0,0.0,0.0,-4.2103,-4.1969,0.0,-4.3069,-4.3087,-4.3087,-4.3087,-4.3087,-4.3087,-4.3087,-4.3087,-4.3032,-4.2905,-4.3032,-4.3087,-4.3087,-4.3087,-4.2996,-4.2905,-4.2905,-4.2848,-4.281,-4.281,-4.281,-4.2734,-4.58,-4.6283,-4.6767,-4.7038,-4.8082,-4.9064,-4.9644,-5.0206,-5.0687,-5.1081,-5.1132,-5.117,-5.1255,-5.1261,-5.1274,0.0,-5.1328,-5.0859,0.0,-4.9129,-4.8301,-4.7162,-4.6583,-4.63,-4.63,-4.63,-4.63,-4.63,0.0,0.0,0.0,-4.6211,-4.6201,-4.6201,-4.617,-4.6125,-4.6064,-4.6049,-4.5978,-4.5886,-4.5847,-4.5783,-4.5699,-4.5712,-4.5665,-4.5651,-4.5651,-4.5618,-4.5584,-4.5584,-4.5513,-4.5438,-4.5438,-4.538,-4.5297,-4.5297,-4.5297,-4.5297,-4.5297,-4.5297,-4.5297,-4.5297,-4.5275,-4.5254,-4.5297,-4.5275,-4.5254,-4.5254,-4.5254,-4.5213,-4.517,-4.517,-4.517,-4.517,-4.5103,0.0,0.0,0.0,0.0,0.0,-4.4569,-4.414,0.0,-4.3189,0.0,0.0,0.0,0.0,0.0,0.0,0.0,0.0,-4.2802,0.0,-4.3553,-4.3836,-4.3823,-4.349,-4.3791,-4.3905,-4.3905,-4.3968,-4.3918,-4.3855,-4.3949,-4.3968,-4.3905,-4.3609,-4.349,-4.3403,-4.314,-4.2996,-4.2978,-4.2886,-4.2886,-4.2848,-4.6225,-4.6728,-4.7308,-4.7966,-4.8972,-4.9803,-5.0113,-5.0577,-5.0937,-5.1017,-5.103,-5.1037,-5.1081,-5.1084,0.0,-5.1249,-5.1288,-5.0812,-4.9643,-4.91,-4.8289,-4.7102,-4.6563,-4.63,-4.63,-4.63,0.0,-4.63,-4.63,-4.63,-4.63,-4.63,-4.63,-4.63,-4.63,-4.6273,-4.624,-4.6211,-4.6138,-4.606,-4.6036,-4.5968,-4.5894,-4.5898,-4.5835,-4.578,-4.578,-4.5737,-4.57,-4.57,-4.5632,-4.5584,-4.5584,-4.5513,-4.5419,-4.5338,-4.5297,-4.5297,-4.5297,-4.5297,-4.5297,-4.5297,-4.5297,-4.5297,-4.5297,-4.5297,-4.5297,-4.5297,-4.5297,-4.5297,-4.5297,-4.5297,-4.5297,-4.5297,-4.5213,-4.517,-4.517,0.0,0.0,0.0,0.0,0.0,0.0,-4.4014,-4.3737,0.0,0.0,0.0,0.0,0.0,0.0,-4.3473,-4.3671,0.0,-4.4072,-4.4306,-4.4277,-4.3999,-4.4266,-4.4373,-4.4344,-4.443,-4.4383,-4.4344,-4.443,-4.4411,-4.4373,-4.4109,-4.3999,-4.3936,-4.3707,-4.3557,-4.3523,-4.3437,-4.3437,-4.3403,-4.6926,-4.7134,-4.7715,0.0,-4.9745,0.0,-5.079,-5.0906,-5.0906,-5.0906,-5.0906,-5.0906,-5.0906,-5.0906,-5.0978,-5.1164,0.0,0.0,0.0,-4.8789,-4.8062,-4.6446,-4.6326,-4.6303,-4.63,-4.63,-4.63,-4.63,-4.63,-4.63,-4.63,-4.63,-4.63,-4.63,-4.63,-4.63,-4.63,-4.6221,-4.6211,-4.6206,-4.6196,-4.6203,-4.6203,-4.6196,-4.6083,-4.5917,-4.5917,-4.5841,-4.5727,-4.5727,-4.5746,-4.5712,-4.5712,-4.5715,-4.5651,-4.54,-4.5338,-4.5319,-4.5317,-4.5317,-4.5317,-4.5297,-4.5297,-4.5297,-4.5297,-4.5297,-4.5297,-4.5297,-4.5297,-4.5297,-4.5297,-4.5297,-4.5297,-4.5297,-4.5297,-4.5297,-4.5297,0.0,0.0,0.0,0.0,0.0,0.0,-4.4919,-4.4846,0.0,0.0,0.0,0.0,0.0,-4.3726,-4.4496,-4.4515,-4.4515,-4.4515,-4.4515,-4.4515,-4.4515,-4.4515,-4.4487,-4.4411,-4.4487,-4.4487,-4.4411,-4.4468,-4.4515,-4.4515,-4.4515,-4.444,-4.4411,-4.4411,-4.4373,-4.4314,-4.4314,-4.4314,-4.4237,0.0,0.0,-4.8381,-4.9513,-5.021,-5.0693,-5.0867,-5.0906,-5.0906,-5.0906,-5.0906,-5.0906,-5.0906,-5.0906,-5.0917,-5.0965,-5.1092,-5.0713,-4.9672,-4.9069,-4.8248,-4.7198,-4.6601,-4.6297,-4.63,-4.63,-4.63,-4.63,-4.63,-4.63,-4.63,-4.63,-4.63,-4.63,-4.63,-4.63,-4.63,-4.6277,-4.6273,-4.6273,-4.6226,-4.6195,-4.6195,-4.6209,-4.6162,-4.6127,-4.6127,-4.6111,-4.6084,-4.6084,-4.5977,-4.5847,-4.5847,-4.5794,-4.5668,-4.5495,-4.5531,-4.5566,-4.536,-4.538,-4.5438,-4.5338,-4.5297,-4.5297,-4.5297,-4.5297,-4.5297,-4.5297,-4.5297,-4.5297,-4.5297,-4.5297,-4.5297,-4.5297,-4.5297,-4.5297,-4.5297,-4.5275,0.0,0.0,-4.5213,-4.517,-4.5061,-4.5038,-4.501,0.0,0.0,0.0,0.0,-4.4523,-4.4417,-4.4515,-4.4515,-4.4515,-4.4515,-4.4515,-4.4515,-4.4515,-4.4515,-4.4487,-4.4487,-4.4487,-4.4487,-4.4487,-4.4487,-4.4515,-4.4515,-4.4515,-4.4487,-4.4487,-4.4487,-4.4458,-4.4458,-4.4401,-4.4383,-4.4354,-4.7391,-4.8005,-4.8701,-5.0024,-5.0604,-5.0893,-5.089,-5.0906,-5.0906,-5.0906,-5.0906,-5.0906,-5.0906,-5.0906,-5.0906,-5.0906,-5.0998,-5.053,-4.9329,-4.8877,-4.8098,-4.6869,-4.6415,-4.621,-4.6211,-4.6248,-4.6264,-4.6297,-4.6306,-4.63,-4.63,-4.63,-4.63,-4.63,-4.63,-4.63,-4.63,-4.63,-4.63,-4.63,-4.6269,-4.6245,-4.6245,-4.625,-4.6234,-4.6203,-4.6203,-4.619,-4.6196,-4.6196,-4.6119,-4.6027,-4.6027,-4.5966,-4.5848,-4.5718,-4.5692,-4.5668,-4.5531,-4.5531,-4.5565,-4.5495,-4.5476,-4.5476,-4.5476,-4.5438,-4.54,-4.54,-4.5339,-4.5297,-4.5297,-4.5297,-4.5297,-4.5297,-4.5297,-4.5297,-4.5297,-4.5297,0.0,-4.5297,-4.5297,-4.5275,-4.5192,-4.5192,-4.5148,-4.4991,-4.4991,0.0,-4.4895,-4.4821,-4.4738,-4.4605,-4.4524,-4.4515,-4.4515,-4.4515,-4.4515,-4.4515,-4.4515,-4.4515,-4.4515,-4.4515,-4.4515,-4.4515,-4.4515,-4.4515,-4.4515,-4.4515,-4.4515,-4.4515,-4.4515,-4.4515,-4.4515,-4.4458,-4.4458,-4.4458,-4.794,-4.8285,-4.8842,-5.0574,-5.088,-5.088,-5.0909,-5.089,-5.089,-5.0906,-5.0906,-5.0906,-5.0906,-5.0906,-5.0906,-5.0906,-5.085,-5.0145,-4.8599,-4.8555,-4.784,-4.617,-4.608,-4.6097,-4.6101,-4.6156,-4.6228,-4.6289,-4.628,-4.629,-4.6306,-4.6306,-4.6303,-4.63,-4.63,-4.63,-4.63,-4.63,-4.63,-4.63,-4.63,-4.63,-4.63,-4.63,-4.6249,-4.6211,-4.6211,-4.622,-4.6216,-4.6216,-4.6209,-4.6203,-4.6203,-4.6162,-4.6093,-4.5968,-4.5854,-4.5771,-4.5696,-4.57,-4.57,-4.57,-4.57,-4.57,-4.57,-4.5618,-4.5531,-4.5531,-4.5438,-4.536,-4.536,-4.536,-4.536,-4.536,-4.536,-4.536,-4.536,0.0,-4.5319,-4.5319,-4.5317,-4.5297,-4.5297,-4.5297,-4.5235,-4.5148,-4.5125,-4.508,-4.4967,-4.4943,-4.487,-4.4745,-4.4632,-4.4551,-4.4551,-4.4551,-4.4551,-4.4542,-4.4542,-4.4515,-4.4515,-4.4515,-4.4515,-4.4515,-4.4515,-4.4515,-4.4515,-4.4515,-4.4515,-4.4515,-4.4515,-4.4515,-4.4515,-4.4515,-4.4515,-4.4487,-4.7868,-4.8214,-4.8771,-5.052,-5.0829,-5.0827,-5.088,-5.0916,-5.0897,-5.089,-5.0906,-5.0906,-5.0906,-5.0906,-5.0906,-5.0906,-5.0302,-4.9485,-4.8474,-4.8483,-4.7761,-4.6084,-4.601,-4.6034,-4.6094,-4.612,-4.6156,-4.6226,-4.6228,-4.623,-4.6305,-4.6305,-4.63,-4.63,-4.63,-4.63,-4.63,-4.63,-4.63,-4.63,-4.63,-4.63,-4.63,-4.63,-4.63,-4.6277,-4.6277,-4.6273,-4.6273,-4.6273,-4.626,-4.6201,-4.6201,-4.6196,-4.6189,-4.6162,-4.6146,-4.6066,-4.5786,-4.57,-4.57,-4.57,-4.57,-4.57,-4.57,-4.5665,-4.5684,-4.5684,-4.5632,-4.5651,-4.5651,-4.5651,-4.5651,-4.5651,-4.5651,-4.5651,-4.5651,0.0,-4.5457,-4.5457,-4.536,-4.5297,-4.5297,-4.5297,-4.5297,-4.5275,-4.5275,-4.5275,-4.5235,-4.5125,-4.5057,-4.5057,-4.4895,-4.4821,-4.4821,-4.4821,-4.477,-4.4685,-4.4685,-4.4605,-4.4515,-4.4515,-4.4515,-4.4515,-4.4515,-4.4515,-4.4515,-4.4515,-4.4515,-4.4515,-4.4515,-4.4515,-4.4515,-4.4515,-4.4515,-4.4515,-4.7567,-4.7933,-4.8529,-5.043,-5.0757,-5.0775,-5.0846,-5.0846,-5.0863,-5.0897,-5.0913,-5.0893,-5.089,-5.0519,-5.0248,-5.0248,-4.9475,-4.8624,-4.7753,-4.7724,-4.7184,-4.5937,-4.5928,-4.5988,-4.6041,-4.6072,-4.6123,-4.6152,-4.6178,-4.6226,-4.6249,-4.6249,-4.625,-4.6249,-4.6282,-4.63,-4.6297,-4.6306,-4.63,-4.63,-4.63,-4.63,-4.63,-4.63,-4.63,-4.63,-4.63,-4.63,-4.63,-4.63,-4.6277,-4.6245,-4.6245,-4.6231,-4.6209,-4.6209,-4.6196,-4.6181,-4.6007,-4.5975,-4.5964,-4.591,-4.5929,-4.5917,-4.588,-4.5827,-4.5805,-4.5805,-4.5746,-4.57,-4.57,-4.57,-4.57,-4.57,-4.57,0.0,0.0,-4.5565,-4.5495,-4.5495,-4.538,-4.5297,-4.5297,-4.5297,-4.5297,-4.5297,-4.5297,-4.5297,-4.5297,-4.5235,-4.5213,-4.5213,-4.501,-4.4895,-4.4895,-4.4895,-4.487,-4.4815,-4.4815,-4.4789,-4.4712,-4.4632,-4.4605,-4.4605,-4.4524,-4.4515,-4.4515,-4.4515,-4.4515,-4.4515,-4.4515,-4.4515,-4.4515,-4.4515,-4.4515,-4.4515,-4.6999,-4.7484,-4.8162,-4.9909,-5.0372,-5.0527,-5.0567,-5.0644,-5.0642,-5.0505,-5.0557,-5.0529,-5.0329,-4.9749,-4.9397,-4.9397,-4.8604,-4.7811,-4.7134,-4.6902,-4.6496,-4.5819,-4.5854,-4.5917,-4.5975,-4.6035,-4.6064,-4.6079,-4.6143,-4.6189,-4.6173,-4.6198,-4.62,-4.6204,-4.6249,-4.6289,-4.6289,-4.6282,-4.6295,-4.6309,-4.6309,-4.6306,-4.63,-4.63,-4.63,-4.63,-4.63,-4.63,-4.63,-4.63,-4.63,-4.63,-4.63,-4.6249,-4.6216,-4.6216,-4.622,-4.6216,-4.6203,-4.6196,-4.6189,-4.6138,-4.6111,-4.6102,-4.6066,-4.6005,-4.598,-4.598,-4.5899,-4.5827,-4.5827,-4.5827,-4.5827,-4.5827,0.0,0.0,0.0,-4.5708,-4.5613,-4.5596,-4.5475,-4.5381,-4.54,-4.54,-4.54,-4.54,-4.54,-4.54,-4.54,-4.54,-4.54,-4.54,-4.5129,-4.4991,-4.4991,-4.4991,-4.4986,-4.4943,-4.4943,-4.4919,-4.4895,-4.4796,-4.4764,-4.4738,-4.4632,-4.4578,-4.4578,-4.4578,-4.4578,-4.4578,-4.457,-4.457,-4.4524,-4.4515,-4.4515,-4.4515,-4.6044,-4.6822,-4.7637,-4.8574,-4.9371,-4.9891,-4.9962,-5.0183,-5.0076,-4.9332,-4.9488,-4.9393,-4.8581,-4.8493,-4.8508,-4.8508,-4.7695,-4.7173,-4.7096,-4.6341,-4.5858,-4.58,-4.5794,-4.5841,-4.5917,-4.591,-4.5944,-4.6017,-4.6074,-4.6103,-4.6117,-4.6162,-4.6206,-4.6204,-4.6205,-4.6205,-4.6205,-4.6207,-4.6249,-4.6306,-4.6306,-4.63,-4.63,-4.63,-4.63,-4.63,-4.63,-4.63,-4.63,-4.63,-4.63,-4.63,-4.63,-4.63,-4.63,-4.63,-4.6296,-4.6288,-4.6216,-4.6196,-4.6196,-4.6196,-4.6196,-4.6196,-4.6189,-4.6189,-4.6181,-4.6181,-4.6181,-4.6154,-4.6154,-4.6154,-4.6154,-4.6154,0.0,0.0,-4.6154,-4.6036,-4.5938,-4.5883,-4.5744,-4.5665,-4.5665,-4.5684,-4.5684,-4.5684,-4.5684,-4.5684,-4.5684,-4.5684,-4.5684,-4.5684,-4.54,-4.5275,-4.5275,-4.5275,-4.5213,-4.5103,-4.5103,-4.5014,-4.4895,-4.4895,-4.4889,-4.487,-4.487,-4.487,-4.487,-4.487,-4.487,-4.4846,-4.4719,-4.4685,-4.4685,-4.4542,-4.4515,-4.4515,-4.5658,-4.61,-4.6795,-4.8325,-4.8844,-4.9053,-4.9098,-4.9182,-4.8952,-4.8147,-4.8146,-4.8199,-4.8068,-4.7511,-4.7277,-4.7573,-4.6632,-4.6078,-4.6159,-4.587,-4.5708,-4.58,-4.58,-4.5814,-4.5841,-4.5893,-4.5898,-4.5941,-4.6007,-4.6047,-4.6035,-4.6052,-4.6076,-4.6079,-4.6128,-4.6147,-4.6147,-4.6178,-4.6207,-4.6249,-4.6249,-4.6249,-4.623,-4.623,-4.6268,-4.6301,-4.6301,-4.6293,-4.63,-4.63,-4.63,-4.63,-4.63,-4.63,-4.63,-4.63,-4.63,-4.6296,-4.626,-4.6255,-4.625,-4.6215,-4.6189,-4.6203,-4.6203,-4.6196,-4.6196,-4.6196,-4.6196,-4.6196,-4.6196,-4.6196,-4.6196,-4.6196,0.0,-4.6196,-4.6196,-4.6083,-4.5998,-4.5968,-4.5832,-4.5757,-4.575,-4.575,-4.575,-4.575,-4.575,-4.5736,-4.5699,-4.5692,-4.57,-4.57,-4.5601,-4.5549,-4.5549,-4.5549,-4.5512,-4.5475,-4.5475,-4.5457,-4.54,-4.5323,-4.5264,-4.5283,-4.5182,-4.5161,-4.5161,-4.5161,-4.5096,-4.5023,-4.4976,-4.4852,-4.4693,-4.4632,-4.4578,-4.4515,-4.4998,-4.5394,-4.5996,-4.7335,-4.7778,-4.7947,-4.7947,-4.8012,-4.7772,-4.6954,-4.6941,-4.6991,-4.6963,-4.6347,-4.6066,-4.6374,-4.5745,-4.5381,-4.5473,-4.5509,-4.5613,-4.58,-4.58,-4.58,-4.58,-4.5854,-4.588,-4.588,-4.5941,-4.5975,-4.5975,-4.5997,-4.5997,-4.6007,-4.6052,-4.6072,-4.6105,-4.6158,-4.6186,-4.6195,-4.6195,-4.62,-4.6204,-4.6204,-4.6228,-4.6269,-4.6269,-4.6268,-4.6262,-4.6262,-4.6278,-4.6293,-4.6293,-4.6306,-4.63,-4.63,-4.63,-4.63,-4.63,-4.63,-4.6296,-4.6245,-4.624,-4.6236,-4.6234,-4.6228,-4.6228,-4.6228,-4.6228,-4.6228,-4.6228,-4.6228,-4.6228,-4.6228,-4.6228,-4.6228,-4.6228,-4.6144,-4.6088,-4.608,-4.5978,-4.5939,-4.5938,-4.5938,-4.5938,-4.5938,-4.5938,-4.5917,-4.5863,-4.5854,-4.5867,-4.5867,-4.5867,-4.5867,-4.5867,-4.5757,-4.57,-4.57,-4.57,-4.57,-4.57,-4.5596,-4.556,-4.556,-4.5472,-4.5417,-4.5417,-4.5417,-4.5381,-4.5284,-4.5244,-4.5118,-4.4934,-4.491,-4.4783,-4.4621,-4.4005,-4.4692,-4.5287,-4.5287,-4.5955,-4.6494,-4.6494,-4.6707,-4.6561,-4.5716,-4.5892,-4.577,-4.4991,-4.4905,-4.489,-4.4912,-4.508,-4.5201,-4.5201,-4.5322,-4.551,-4.5786,-4.58,-4.58,-4.58,-4.58,-4.58,-4.58,-4.588,-4.5905,-4.5886,-4.5975,-4.5997,-4.5997,-4.5997,-4.6047,-4.6093,-4.6093,-4.6137,-4.6206,-4.6206,-4.6206,-4.6204,-4.6204,-4.6204,-4.6204,-4.6204,-4.6204,-4.6204,-4.6204,-4.6249,-4.6307,-4.6307,-4.63,-4.63,-4.63,-4.63,-4.63,-4.63,-4.63,-4.63,-4.63,-4.63,-4.63,-4.63,-4.63,-4.63,-4.63,-4.63,-4.63,-4.63,-4.63,-4.63,-4.63,-4.63,-4.63,-4.63,-4.63,-4.6273,-4.6211,-4.6206,-4.6195,-4.6203,-4.6196,-4.6196,-4.6196,-4.6196,-4.6196,-4.6196,-4.6196,-4.6196,-4.6196,-4.6196,-4.6196,-4.6196,-4.588,-4.5715,-4.5715,-4.5715,-4.5715,-4.5715,-4.5715,-4.5715,-4.5715,-4.5715,-4.5715,-4.5715,-4.5715,-4.5715,-4.57,-4.556,-4.549,-4.549,-4.5342,-4.5144,-4.4896,-4.4005,-4.4209,-4.4581,-4.5194,-4.5491,-4.5658,-4.5658,-4.5736,-4.5463,-4.4587,-4.4547,-4.4608,-4.4538,-4.4503,-4.4591,-4.4877,-4.4789,-4.4783,-4.4985,-4.5175,-4.5321,-4.551,-4.551,-4.5563,-4.5661,-4.5661,-4.5708,-4.58,-4.5827,-4.5841,-4.5841,-4.5854,-4.5867,-4.5848,-4.5917,-4.5953,-4.5964,-4.6007,-4.6047,-4.6063,-4.6063,-4.6088,-4.6131,-4.6131,-4.6167,-4.6202,-4.6202,-4.6192,-4.6204,-4.6204,-4.6207,-4.6229,-4.6229,-4.6229,-4.623,-4.623,-4.623,-4.623,-4.6285,-4.6301,-4.63,-4.6306,-4.63,-4.63,-4.63,-4.63,-4.63,-4.63,-4.63,-4.63,-4.63,-4.63,-4.63,-4.63,-4.63,-4.63,-4.63,-4.63,-4.63,-4.6273,-4.6273,-4.6269,-4.6264,-4.626,-4.626,-4.626,-4.6226,-4.6195,-4.6195,-4.619,-4.6196,-4.6196,-4.6196,-4.6196,-4.6196,-4.6047,-4.5986,-4.5986,-4.5922,-4.5898,-4.5898,-4.5898,-4.5898,-4.5898,-4.5898,-4.5898,-4.5898,-4.5898,-4.588,-4.5852,-4.5805,-4.5677,-4.5509,-4.5454,-4.5343,-4.5185,-4.4005,-4.4005,-4.4172,-4.4692,-4.4785,-4.4785,-4.4785,-4.4785,-4.4599,-4.4079,-4.4005,-4.4079,-4.4221,-4.4218,-4.4258,-4.4538,-4.4458,-4.4505,-4.4732,-4.49,-4.5038,-4.5113,-4.5156,-4.5302,-4.551,-4.5528,-4.5563,-4.5645,-4.5692,-4.5692,-4.5645,-4.5737,-4.5766,-4.5723,-4.5808,-4.588,-4.5898,-4.5933,-4.5975,-4.5997,-4.5997,-4.6017,-4.6066,-4.6066,-4.6091,-4.6125,-4.6125,-4.6125,-4.6108,-4.6108,-4.6147,-4.6167,-4.618,-4.6204,-4.6204,-4.6204,-4.6204,-4.6205,-4.6249,-4.6269,-4.6269,-4.6267,-4.6276,-4.63,-4.63,-4.63,-4.63,-4.63,-4.63,-4.63,-4.63,-4.63,-4.63,-4.63,-4.63,-4.63,-4.63,-4.63,-4.63,-4.63,-4.63,-4.63,-4.63,-4.63,-4.63,-4.63,-4.6269,-4.624,-4.624,-4.6245,-4.624,-4.624,-4.624,-4.624,-4.624,-4.6164,-4.6142,-4.6138,-4.6093,-4.6075,-4.6027,-4.6027,-4.6017,-4.5997,-4.5997,-4.5997,-4.5997,-4.5997,-4.5983,-4.5937,-4.5937,-4.5835,-4.5699,-4.5699,-4.5587,-4.5451,-4.4005,-4.4005,-4.4005,-4.4005,-4.4005,-4.4005,-4.4005,-4.4005,-4.4005,-4.4005,-4.4005,-4.4005,-4.4005,-4.4005,-4.4005,-4.4005,-4.4177,-4.4344,-4.4487,-4.4605,-4.4685,-4.4685,-4.4796,-4.5019,-4.5322,-4.5381,-4.54,-4.54,-4.5528,-4.551,-4.5419,-4.5645,-4.5692,-4.5596,-4.5708,-4.5794,-4.5873,-4.5873,-4.5929,-4.5986,-4.5986,-4.5986,-4.5997,-4.5997,-4.5997,-4.5997,-4.5997,-4.5997,-4.5997,-4.5997,-4.6035,-4.6111,-4.6167,-4.6178,-4.6178,-4.6178,-4.6178,-4.6178,-4.6178,-4.618,-4.618,-4.618,-4.6249,-4.629,-4.6306,-4.6303,-4.63,-4.6303,-4.6303,-4.6303,-4.6303,-4.6303,-4.6303,-4.6303,-4.6303,-4.63,-4.6303,-4.6303,-4.63,-4.63,-4.63,-4.63,-4.63,-4.63,-4.63,-4.63,-4.63,-4.63,-4.63,-4.63,-4.63,-4.63,-4.63,-4.63,-4.63,-4.624,-4.6215,-4.6203,-4.6203,-4.6181,-4.6102,-4.6102,-4.6075,-4.6007,-4.6007,-4.6007,-4.5997,-4.5997,-4.5997,-4.5997,-4.5997,-4.5997,-4.5997,-4.5997,-4.5879,-4.5713,-4.4005,-4.4005,-4.4005,-4.4005,-4.4005,-4.4005,-4.4005,-4.4005,-4.4005,-4.4005,-4.4005,-4.4005,-4.4005,-4.4005,-4.4005,-4.4005,-4.4177,-4.4314,-4.4344,-4.4487,-4.4524,-4.4524,-4.4685,-4.477,-4.4852,-4.5106,-4.53,-4.54,-4.5438,-4.5438,-4.54,-4.5456,-4.5475,-4.5438,-4.5475,-4.5563,-4.5677,-4.5677,-4.5737,-4.5835,-4.5835,-4.5861,-4.591,-4.591,-4.5944,-4.5997,-4.5997,-4.5997,-4.5997,-4.5997,-4.5998,-4.6027,-4.6035,-4.6044,-4.6044,-4.6044,-4.6044,-4.6033,-4.6047,-4.6034,-4.6066,-4.6119,-4.6136,-4.6178,-4.6288,-4.6295,-4.6306,-4.6301,-4.6303,-4.6303,-4.6303,-4.6303,-4.6303,-4.6303,-4.6293,-4.6306,-4.6303,-4.6293,-4.63,-4.63,-4.63,-4.63,-4.63,-4.63,-4.63,-4.63,-4.63,-4.63,-4.63,-4.63,-4.63,-4.63,-4.63,-4.63,-4.63,-4.6296,-4.6245,-4.6195,-4.619,-4.6196,-4.6189,-4.6189,-4.6146,-4.6084,-4.6084,-4.6056,-4.5997,-4.5997,-4.5997,-4.5997,-4.5997,-4.5997,-4.5997,-4.5997,-4.5956,-4.591,-4.391,-4.3942,-4.3942,-4.4005,-4.4005,-4.4005,-4.4005,-4.4005,-4.4005,-4.4005,-4.4005,-4.4005,-4.4005,-4.4005,-4.4005,-4.4005,-4.4116,-4.4147,-4.4147,-4.4296,-4.4401,-4.4401,-4.4524,-4.4605,-4.4605,-4.4846,-4.5038,-4.5175,-4.526,-4.5258,-4.5156,-4.5341,-4.5361,-4.532,-4.5381,-4.5457,-4.551,-4.551,-4.5545,-4.5613,-4.5613,-4.5645,-4.5658,-4.5718,-4.5794,-4.5822,-4.5873,-4.5898,-4.5917,-4.5953,-4.5964,-4.5964,-4.5997,-4.5997,-4.5997,-4.5997,-4.5997,-4.6007,-4.5988,-4.6007,-4.6016,-4.6049,-4.6059,-4.6078,-4.6175,-4.6207,-4.6209,-4.6204,-4.6205,-4.6208,-4.6208,-4.6229,-4.6249,-4.6249,-4.6249,-4.6249,-4.625,-4.6249,-4.6247,-4.6247,-4.6282,-4.6297,-4.6297,-4.6297,-4.6297,-4.6297,-4.6306,-4.6306,-4.6297,-4.6306,-4.6306,-4.6297,-4.6306,-4.63,-4.63,-4.63,-4.6277,-4.6245,-4.625,-4.624,-4.6203,-4.6203,-4.6183,-4.6146,-4.6146,-4.6138,-4.6093,-4.6066,-4.6056,-4.6037,-4.6007,-4.5997,-4.5997,-4.5997,-4.5997,-4.5986,-4.3579,-4.3664,-4.3697,-4.3744,-4.3777,-4.3809,-4.3841,-4.3892,-4.3942,-4.4005,-4.4005,-4.4005,-4.4005,-4.4005,-4.4005,-4.4005,-4.4005,-4.4005,-4.4005,-4.4147,-4.4255,-4.4255,-4.4401,-4.4458,-4.4458,-4.4605,-4.4719,-4.4889,-4.5057,-4.5061,-4.4895,-4.5178,-4.5279,-4.5148,-4.526,-4.5341,-4.5361,-4.5361,-4.5381,-4.54,-4.54,-4.54,-4.5419,-4.5528,-4.5563,-4.558,-4.5692,-4.5757,-4.5766,-4.5822,-4.5861,-4.5886,-4.5953,-4.5975,-4.5975,-4.5975,-4.5975,-4.5975,-4.5975,-4.5975,-4.5975,-4.5975,-4.5969,-4.5985,-4.604,-4.6072,-4.6108,-4.6078,-4.608,-4.6074,-4.6074,-4.6124,-4.6173,-4.6173,-4.6175,-4.6178,-4.6175,-4.6175,-4.6178,-4.6178,-4.6229,-4.6269,-4.6269,-4.6289,-4.6289,-4.6289,-4.6282,-4.628,-4.6289,-4.6282,-4.628,-4.6289,-4.6282,-4.6273,-4.6273,-4.6273,-4.6273,-4.6273,-4.6273,-4.6261,-4.6216,-4.6216,-4.622,-4.6209,-4.6209,-4.6203,-4.6196,-4.6146,-4.613,-4.6102,-4.6066,-4.6027,-4.6027,-4.6017,-4.6007,-4.5997,-4.2696,-4.2678,-4.2678,-4.2716,-4.2829,-4.3051,-4.3265,-4.3526,-4.373,-4.3974,-4.4005,-4.4005,-4.4005,-4.4005,-4.4005,-4.4005,-4.4005,-4.4005,-4.4005,-4.4036,-4.4036,-4.4036,-4.4207,-4.4314,-4.4314,-4.4458,-4.4578,-4.4738,-4.487,-4.4919,-4.4895,-4.4943,-4.4967,-4.4943,-4.4967,-4.5061,-4.5235,-4.5235,-4.53,-4.54,-4.54,-4.54,-4.54,-4.5419,-4.5438,-4.5438,-4.5457,-4.5528,-4.5629,-4.5645,-4.5723,-4.5827,-4.5808,-4.5841,-4.5841,-4.5841,-4.5841,-4.5841,-4.5841,-4.5841,-4.5841,-4.5841,-4.5822,-4.5815,-4.5829,-4.5977,-4.6078,-4.6033,-4.6006,-4.6013,-4.6013,-4.6013,-4.602,-4.602,-4.6078,-4.6089,-4.6047,-4.6078,-4.6099,-4.6099,-4.612,-4.6134,-4.6134,-4.6182,-4.6207,-4.6207,-4.6208,-4.6208,-4.6207,-4.6208,-4.6208,-4.6207,-4.6208,-4.6208,-4.6208,-4.6208,-4.6208,-4.6208,-4.6208,-4.6249,-4.6296,-4.6296,-4.6245,-4.6201,-4.6201,-4.6209,-4.6196,-4.6196,-4.6189,-4.6189,-4.6181,-4.6162,-4.6181,-4.6102,-4.6056,-4.5997,-4.2306,-4.2386,-4.2386,-4.2483,-4.2562,-4.2678,-4.2774,-4.2904,-4.3069,-4.3283,-4.3336,-4.3389,-4.3529,-4.3697,-4.3795,-4.3795,-4.3892,-4.4005,-4.4005,-4.4005,-4.4005,-4.4005,-4.4085,-4.4147,-4.4147,-4.4296,-4.443,-4.4468,-4.4605,-4.4693,-4.4789,-4.4789,-4.4821,-4.4895,-4.4895,-4.4943,-4.5014,-4.5014,-4.5061,-4.5132,-4.5132,-4.5132,-4.5132,-4.5258,-4.53,-4.53,-4.5381,-4.5457,-4.5493,-4.5493,-4.5528,-4.558,-4.558,-4.5629,-4.5692,-4.5692,-4.5737,-4.58,-4.58,-4.58,-4.58,-4.58,-4.58,-4.58,-4.58,-4.5859,-4.5929,-4.5886,-4.5928,-4.5929,-4.5929,-4.5979,-4.5998,-4.5998,-4.6024,-4.6033,-4.5998,-4.6024,-4.6029,-4.6047,-4.604,-4.604,-4.6033,-4.6064,-4.6094,-4.6094,-4.6113,-4.6132,-4.6094,-4.6113,-4.6132,-4.6094,-4.6113,-4.614,-4.614,-4.6131,-4.6136,-4.6136,-4.6182,-4.6229,-4.6249,-4.6249,-4.6229,-4.6207,-4.6237,-4.6267,-4.6257,-4.6226,-4.6209,-4.6203,-4.6203,-4.6196,-4.6196,-4.6181,-4.6138,-4.6102]},{"header":{"parameterUnit":"m.s-1","parameterCategory":1,"la1":30.6,"la2":28.766,"lo1":-90.7593,"lo2":-88.6598,"dy":0.0162,"dx":0.0183,"nx":116,"ny":114,"refTime":"2023-05-26T12:00:00:Z","depth":0,"parameterNumber":3,"parameterNumberName":"V-component_of_WINDS"},"data":[0.0,0.0,0.0,0.0,0.0,0.0,0.0,0.0,0.0,0.0,0.0,0.0,0.0,0.0,0.0,0.0,0.0,0.0,0.0,0.0,0.0,0.0,0.0,0.0,0.0,0.0,0.0,0.0,0.0,0.0,0.0,0.0,0.0,0.0,0.0,0.0,0.0,0.0,0.0,0.0,0.0,0.0,0.0,0.0,0.0,0.0,0.0,0.0,0.0,0.0,0.0,0.0,0.0,0.0,0.0,0.0,0.0,0.0,0.0,0.0,0.0,0.0,0.0,0.0,0.0,0.0,0.0,0.0,0.0,0.0,0.0,0.0,0.0,0.0,0.0,0.0,0.0,0.0,0.0,0.0,0.0,0.0,0.0,0.0,0.0,0.0,0.0,0.0,0.0,0.0,0.0,0.0,0.0,0.0,0.0,0.0,0.0,0.0,0.0,0.0,0.0,0.0,0.0,0.0,0.0,0.0,0.0,0.0,0.0,0.0,0.0,0.0,0.0,0.0,0.0,0.0,0.0,0.0,0.0,0.0,0.0,0.0,0.0,0.0,0.0,0.0,0.0,0.0,0.0,0.0,0.0,0.0,0.0,0.0,0.0,0.0,0.0,0.0,0.0,0.0,0.0,0.0,0.0,0.0,0.0,0.0,0.0,0.0,0.0,0.0,0.0,0.0,0.0,0.0,0.0,0.0,0.0,0.0,0.0,0.0,0.0,0.0,0.0,0.0,0.0,0.0,0.0,0.0,0.0,0.0,0.0,0.0,0.0,0.0,0.0,0.0,0.0,0.0,0.0,0.0,0.0,0.0,0.0,0.0,0.0,0.0,0.0,0.0,0.0,0.0,0.0,0.0,0.0,0.0,0.0,0.0,0.0,0.0,0.0,0.0,0.0,0.0,0.0,0.0,0.0,0.0,0.0,0.0,0.0,0.0,0.0,0.0,0.0,0.0,0.0,0.0,0.0,0.0,0.0,0.0,0.0,0.0,0.0,0.0,0.0,0.0,0.0,0.0,0.0,0.0,0.0,0.0,0.0,0.0,0.0,0.0,0.0,0.0,0.0,0.0,0.0,0.0,0.0,0.0,0.0,0.0,0.0,0.0,0.0,0.0,0.0,0.0,0.0,0.0,0.0,0.0,0.0,0.0,0.0,0.0,0.0,0.0,0.0,0.0,0.0,0.0,0.0,0.0,0.0,0.0,0.0,0.0,0.0,0.0,0.0,0.0,0.0,0.0,0.0,0.0,0.0,0.0,0.0,0.0,0.0,0.0,0.0,0.0,0.0,0.0,0.0,0.0,0.0,0.0,0.0,0.0,0.0,0.0,0.0,0.0,0.0,0.0,0.0,0.0,0.0,0.0,0.0,0.0,0.0,0.0,0.0,0.0,0.0,0.0,0.0,0.0,0.0,0.0,0.0,0.0,0.0,0.0,0.0,0.0,0.0,0.0,0.0,0.0,0.0,0.0,0.0,0.0,0.0,0.0,0.0,0.0,0.0,0.0,0.0,0.0,0.0,0.0,0.0,0.0,0.0,0.0,0.0,0.0,0.0,0.0,0.0,0.0,0.0,0.0,0.0,0.0,0.0,0.0,0.0,0.0,0.0,0.0,0.0,0.0,0.0,0.0,0.0,0.0,0.0,0.0,0.0,0.0,0.0,0.0,0.0,0.0,0.0,0.0,0.0,0.0,0.0,0.0,0.0,0.0,0.0,0.0,0.0,0.0,0.0,0.0,0.0,0.0,0.0,0.0,0.0,0.0,0.0,0.0,0.0,0.0,0.0,0.0,0.0,0.0,0.0,0.0,0.0,0.0,0.0,0.0,0.0,0.0,0.0,0.0,0.0,0.0,0.0,0.0,0.0,0.0,0.0,0.0,0.0,0.0,0.0,0.0,0.0,0.0,0.0,0.0,0.0,0.0,0.0,0.0,0.0,0.0,0.0,0.0,0.0,0.0,0.0,0.0,0.0,0.0,0.0,0.0,0.0,0.0,0.0,0.0,0.0,0.0,0.0,0.0,0.0,0.0,0.0,0.0,0.0,0.0,0.0,0.0,0.0,0.0,0.0,0.0,0.0,0.0,0.0,0.0,0.0,0.0,0.0,0.0,0.0,0.0,0.0,0.0,0.0,0.0,0.0,0.0,0.0,0.0,0.0,0.0,0.0,0.0,0.0,0.0,0.0,0.0,0.0,0.0,0.0,0.0,0.0,0.0,0.0,0.0,0.0,0.0,0.0,0.0,0.0,0.0,0.0,0.0,0.0,0.0,0.0,0.0,0.0,0.0,0.0,0.0,0.0,0.0,0.0,0.0,0.0,0.0,0.0,0.0,0.0,0.0,0.0,0.0,0.0,0.0,0.0,0.0,0.0,0.0,0.0,0.0,0.0,0.0,0.0,0.0,0.0,0.0,0.0,0.0,0.0,0.0,0.0,0.0,0.0,0.0,0.0,0.0,0.0,0.0,0.0,0.0,0.0,0.0,0.0,0.0,0.0,0.0,0.0,0.0,0.0,0.0,0.0,0.0,0.0,0.0,0.0,0.0,0.0,0.0,0.0,0.0,0.0,0.0,0.0,0.0,0.0,0.0,0.0,0.0,0.0,0.0,0.0,0.0,0.0,0.0,0.0,0.0,0.0,0.0,0.0,0.0,0.0,0.0,0.0,0.0,0.0,0.0,0.0,0.0,0.0,0.0,0.0,0.0,0.0,0.0,0.0,0.0,0.0,0.0,0.0,0.0,0.0,0.0,0.0,0.0,0.0,0.0,0.0,0.0,0.0,0.0,0.0,0.0,0.0,0.0,0.0,0.0,0.0,0.0,0.0,0.0,0.0,0.0,0.0,0.0,0.0,0.0,0.0,0.0,0.0,0.0,0.0,0.0,0.0,0.0,0.0,0.0,0.0,0.0,0.0,0.0,0.0,0.0,0.0,0.0,0.0,0.0,0.0,0.0,0.0,0.0,0.0,0.0,0.0,0.0,0.0,0.0,0.0,0.0,0.0,0.0,0.0,0.0,0.0,0.0,0.0,0.0,0.0,0.0,0.0,0.0,0.0,0.0,0.0,0.0,0.0,0.0,0.0,0.0,0.0,0.0,0.0,0.0,0.0,0.0,0.0,0.0,0.0,0.0,0.0,0.0,0.0,0.0,0.0,0.0,0.0,0.0,0.0,0.0,0.0,0.0,0.0,0.0,0.0,0.0,0.0,0.0,0.0,0.0,0.0,0.0,0.0,0.0,0.0,0.0,0.0,0.0,0.0,0.0,0.0,0.0,0.0,0.0,0.0,0.0,0.0,0.0,0.0,0.0,0.0,0.0,0.0,0.0,0.0,0.0,0.0,0.0,0.0,0.0,0.0,0.0,0.0,0.0,0.0,0.0,0.0,0.0,0.0,0.0,0.0,0.0,0.0,0.0,0.0,0.0,0.0,0.0,0.0,0.0,0.0,0.0,0.0,0.0,0.0,0.0,0.0,0.0,0.0,0.0,0.0,0.0,0.0,0.0,0.0,0.0,0.0,0.0,0.0,0.0,0.0,0.0,0.0,0.0,0.0,0.0,0.0,0.0,0.0,0.0,0.0,0.0,0.0,0.0,0.0,0.0,0.0,0.0,0.0,0.0,0.0,0.0,0.0,0.0,0.0,0.0,0.0,0.0,0.0,0.0,0.0,0.0,0.0,0.0,0.0,0.0,0.0,0.0,0.0,0.0,0.0,0.0,0.0,0.0,0.0,0.0,0.0,0.0,0.0,0.0,0.0,0.0,0.0,0.0,0.0,0.0,0.0,0.0,0.0,0.0,0.0,0.0,0.0,0.0,0.0,0.0,0.0,0.0,0.0,0.0,0.0,0.0,0.0,0.0,0.0,0.0,0.0,0.0,0.0,0.0,0.0,0.0,0.0,0.0,0.0,0.0,0.0,0.0,0.0,0.0,0.0,0.0,0.0,0.0,0.0,0.0,0.0,0.0,0.0,0.0,0.0,0.0,0.0,0.0,0.0,0.0,0.0,0.0,0.0,0.0,0.0,0.0,0.0,0.0,0.0,0.0,0.0,0.0,0.0,0.0,0.0,0.0,0.0,0.0,0.0,0.0,0.0,0.0,0.0,0.0,0.0,0.0,0.0,0.0,0.0,0.0,0.0,0.0,0.0,0.0,0.0,0.0,0.0,0.0,0.0,0.0,0.0,0.0,0.0,0.0,0.0,0.0,0.0,0.0,0.0,0.0,0.0,0.0,0.0,0.0,0.0,0.0,0.0,0.0,0.0,0.0,0.0,0.0,0.0,0.0,0.0,0.0,0.0,0.0,0.0,0.0,0.0,0.0,0.0,0.0,0.0,0.0,0.0,0.0,0.0,0.0,0.0,0.0,0.0,0.0,0.0,0.0,0.0,0.0,0.0,0.0,0.0,0.0,0.0,0.0,0.0,0.0,0.0,0.0,0.0,0.0,0.0,0.0,0.0,0.0,0.0,0.0,0.0,0.0,0.0,0.0,0.0,0.0,0.0,0.0,0.0,0.0,0.0,0.0,0.0,0.0,0.0,0.0,0.0,0.0,0.0,0.0,0.0,0.0,0.0,0.0,0.0,0.0,0.0,0.0,0.0,0.0,0.0,0.0,0.0,0.0,0.0,0.0,0.0,0.0,0.0,0.0,0.0,0.0,0.0,0.0,0.0,0.0,0.0,0.0,0.0,0.0,0.0,0.0,0.0,0.0,0.0,0.0,0.0,0.0,0.0,0.0,0.0,0.0,0.0,0.0,0.0,0.0,0.0,0.0,0.0,0.0,0.0,0.0,0.0,0.0,0.0,0.0,0.0,0.0,0.0,0.0,0.0,0.0,0.0,0.0,0.0,0.0,0.0,0.0,0.0,0.0,0.0,0.0,0.0,0.0,0.0,0.0,0.0,0.0,0.0,0.0,0.0,0.0,0.0,0.0,0.0,0.0,0.0,0.0,0.0,0.0,0.0,0.0,0.0,0.0,0.0,0.0,0.0,0.0,0.0,0.0,0.0,0.0,0.0,0.0,0.0,0.0,0.0,0.0,0.0,0.0,0.0,0.0,0.0,0.0,0.0,0.0,0.0,0.0,0.0,0.0,0.0,0.0,0.0,0.0,0.0,0.0,0.0,0.0,0.0,0.0,0.0,0.0,0.0,0.0,0.0,0.0,0.0,0.0,0.0,0.0,0.0,0.0,0.0,0.0,0.0,0.0,0.0,0.0,0.0,0.0,0.0,0.0,0.0,0.0,0.0,0.0,0.0,0.0,0.0,0.0,0.0,0.0,0.0,0.0,0.0,0.0,0.0,0.0,0.0,0.0,0.0,0.0,0.0,0.0,0.0,0.0,0.0,0.0,0.0,0.0,0.0,0.0,0.0,0.0,0.0,0.0,0.0,0.0,0.0,0.0,0.0,0.0,0.0,0.0,0.0,0.0,0.0,0.0,0.0,0.0,0.0,0.0,0.0,0.0,0.0,0.0,0.0,0.0,0.0,0.0,0.0,0.0,0.0,0.0,0.0,0.0,0.0,0.0,0.0,0.0,0.0,0.0,0.0,0.0,0.0,0.0,0.0,0.0,0.0,0.0,0.0,0.0,0.0,0.0,0.0,0.0,0.0,0.0,0.0,0.0,0.0,0.0,0.0,0.0,0.0,0.0,0.0,0.0,0.0,0.0,0.0,0.0,0.0,0.0,0.0,0.0,0.0,0.0,0.0,0.0,0.0,0.0,0.0,0.0,0.0,0.0,0.0,0.0,0.0,0.0,0.0,0.0,0.0,0.0,0.0,0.0,0.0,0.0,0.0,0.0,0.0,0.0,0.0,0.0,0.0,0.0,0.0,0.0,0.0,0.0,0.0,0.0,0.0,0.0,0.0,0.0,0.0,0.0,0.0,0.0,0.0,0.0,0.0,0.0,0.0,0.0,0.0,0.0,0.0,0.0,0.0,0.0,0.0,0.0,0.0,0.0,0.0,0.0,0.0,0.0,0.0,0.0,0.0,0.0,0.0,0.0,0.0,0.0,0.0,0.0,0.0,0.0,0.0,0.0,0.0,0.0,0.0,0.0,0.0,0.0,0.0,0.0,0.0,0.0,0.0,0.0,0.0,0.0,0.0,0.0,0.0,0.0,0.0,0.0,-2.9786,0.0,0.0,0.0,0.0,0.0,0.0,0.0,0.0,0.0,0.0,0.0,0.0,0.0,0.0,0.0,0.0,0.0,0.0,0.0,0.0,0.0,0.0,0.0,0.0,0.0,0.0,0.0,0.0,0.0,0.0,0.0,0.0,0.0,0.0,0.0,0.0,0.0,0.0,0.0,0.0,0.0,0.0,0.0,0.0,0.0,0.0,0.0,0.0,0.0,0.0,0.0,0.0,0.0,0.0,0.0,0.0,0.0,0.0,0.0,0.0,0.0,0.0,0.0,0.0,0.0,0.0,0.0,0.0,0.0,0.0,0.0,0.0,0.0,0.0,0.0,0.0,0.0,0.0,0.0,0.0,0.0,0.0,0.0,0.0,0.0,0.0,0.0,0.0,0.0,0.0,0.0,0.0,0.0,0.0,0.0,0.0,0.0,0.0,0.0,0.0,0.0,0.0,0.0,0.0,0.0,0.0,0.0,0.0,0.0,0.0,0.0,0.0,0.0,0.0,0.0,0.0,-3.0325,0.0,0.0,0.0,0.0,0.0,0.0,0.0,0.0,0.0,0.0,0.0,0.0,0.0,0.0,0.0,0.0,0.0,0.0,0.0,0.0,0.0,0.0,0.0,0.0,0.0,0.0,0.0,0.0,0.0,0.0,0.0,0.0,0.0,0.0,0.0,0.0,0.0,0.0,0.0,0.0,0.0,0.0,0.0,0.0,0.0,0.0,0.0,0.0,0.0,0.0,0.0,0.0,0.0,0.0,0.0,0.0,0.0,0.0,0.0,0.0,0.0,0.0,0.0,0.0,0.0,0.0,0.0,0.0,0.0,0.0,0.0,0.0,0.0,0.0,0.0,0.0,0.0,0.0,0.0,0.0,0.0,0.0,0.0,0.0,0.0,0.0,0.0,0.0,0.0,0.0,0.0,0.0,0.0,0.0,0.0,0.0,0.0,0.0,0.0,0.0,0.0,0.0,0.0,0.0,0.0,0.0,0.0,0.0,-3.098,-3.1133,-3.16,-3.1201,-3.1358,-3.1877,-3.0851,-3.0725,-3.1218,-3.1252,0.0,0.0,0.0,0.0,0.0,0.0,0.0,0.0,0.0,0.0,0.0,0.0,0.0,0.0,0.0,0.0,0.0,0.0,0.0,0.0,0.0,0.0,0.0,0.0,0.0,0.0,0.0,0.0,0.0,0.0,0.0,0.0,0.0,0.0,0.0,0.0,0.0,-2.465,-2.4292,-2.4688,-2.4925,-2.4899,-2.3986,0.0,0.0,0.0,0.0,0.0,0.0,0.0,0.0,0.0,0.0,0.0,0.0,0.0,0.0,0.0,0.0,0.0,0.0,0.0,0.0,0.0,0.0,0.0,0.0,0.0,0.0,0.0,0.0,0.0,0.0,0.0,0.0,0.0,0.0,0.0,0.0,0.0,0.0,0.0,0.0,0.0,0.0,0.0,-2.7326,-2.7419,0.0,0.0,0.0,0.0,0.0,0.0,0.0,0.0,0.0,0.0,0.0,0.0,0.0,-3.1217,-3.1217,-3.1598,-3.1797,-3.1786,-3.2439,-3.263,-3.2446,-3.2592,-3.2565,-3.237,-3.2125,0.0,-3.2126,-3.2313,0.0,0.0,0.0,0.0,0.0,0.0,0.0,0.0,0.0,0.0,0.0,0.0,0.0,0.0,0.0,0.0,0.0,0.0,0.0,0.0,0.0,0.0,0.0,0.0,0.0,0.0,0.0,0.0,0.0,0.0,0.0,0.0,0.0,0.0,0.0,0.0,-2.4898,-2.4365,-2.3773,-2.4653,-2.4847,-2.452,-2.4418,-2.4489,-2.4796,-2.5398,0.0,0.0,0.0,0.0,0.0,0.0,0.0,0.0,0.0,0.0,0.0,0.0,0.0,0.0,0.0,0.0,0.0,0.0,0.0,0.0,0.0,0.0,0.0,0.0,0.0,0.0,0.0,0.0,0.0,0.0,0.0,0.0,0.0,0.0,0.0,0.0,0.0,0.0,0.0,-2.9242,-2.9419,-2.9453,-2.9735,-3.0071,0.0,0.0,0.0,0.0,0.0,0.0,0.0,0.0,0.0,-3.1663,-3.2032,-3.2267,-3.2267,-3.2475,-3.2565,-3.2565,-3.2719,-3.2737,-3.2606,-3.23,-3.2073,-3.1948,-3.2073,-3.2127,-3.2162,-3.2301,-3.2404,-3.2438,0.0,0.0,0.0,0.0,-3.2702,-3.309,0.0,0.0,0.0,0.0,0.0,0.0,0.0,0.0,0.0,0.0,0.0,0.0,0.0,0.0,0.0,-1.8084,0.0,0.0,0.0,0.0,0.0,0.0,0.0,0.0,0.0,0.0,0.0,-2.5017,-2.4593,-2.4116,-2.3609,-2.4668,-2.4918,-2.4526,-2.5069,-2.5306,-2.5421,-2.574,-2.5627,0.0,0.0,0.0,0.0,0.0,0.0,0.0,0.0,0.0,0.0,0.0,0.0,0.0,0.0,0.0,0.0,0.0,0.0,0.0,0.0,0.0,0.0,0.0,0.0,0.0,0.0,0.0,0.0,0.0,0.0,0.0,0.0,0.0,0.0,0.0,0.0,0.0,0.0,-3.0704,-3.0779,-3.0882,-3.0882,-3.0944,0.0,0.0,0.0,0.0,0.0,0.0,-3.1459,-3.2234,-3.2637,-3.2595,-3.3332,-3.3696,-3.3696,-3.3665,-3.3584,-3.3502,-3.329,-3.3088,-3.288,-3.2429,-3.2221,-3.2221,-3.2449,-3.2631,-3.2649,-3.2459,-3.2476,-3.2617,-3.2494,-3.2687,-3.2932,-3.2826,-3.314,-3.3684,0.0,0.0,0.0,0.0,0.0,0.0,0.0,0.0,0.0,0.0,0.0,0.0,0.0,0.0,-1.8084,-1.8084,-1.8586,-1.9137,0.0,0.0,0.0,0.0,0.0,0.0,0.0,0.0,0.0,-2.3854,-2.4139,-2.4355,-2.4526,-2.5496,-2.5946,-2.5906,-2.6186,-2.5803,-2.4974,-2.5413,-2.5813,-2.6205,0.0,0.0,0.0,0.0,0.0,0.0,0.0,0.0,0.0,0.0,0.0,0.0,0.0,0.0,0.0,0.0,0.0,0.0,0.0,0.0,0.0,0.0,0.0,0.0,0.0,0.0,0.0,0.0,0.0,0.0,0.0,0.0,0.0,0.0,0.0,0.0,0.0,0.0,0.0,-3.0769,-3.0815,0.0,0.0,0.0,0.0,-3.2955,-3.2991,-3.2991,-3.2991,-3.3764,-3.4195,-3.4195,-3.4968,-3.54,-3.54,-3.52,-3.4906,-3.4534,-3.4712,-3.4421,-3.3756,-3.4102,-3.4178,-3.4085,-3.4137,-3.4306,-3.4388,-3.3326,-3.3247,-3.3789,-3.3388,-3.3644,-3.4196,-3.4073,-3.395,-3.3871,0.0,0.0,0.0,0.0,0.0,0.0,0.0,0.0,0.0,0.0,0.0,0.0,0.0,-1.781,-1.792,-1.8084,-1.8598,-1.9286,-2.01,0.0,0.0,0.0,0.0,0.0,0.0,0.0,-2.4859,-2.4911,-2.4988,-2.4809,-2.4389,-2.5444,-2.5747,-2.5404,-2.6246,-2.6418,-2.6076,-2.6266,-2.6611,-2.7037,-2.7232,-2.7272,0.0,0.0,0.0,0.0,0.0,0.0,0.0,0.0,0.0,0.0,0.0,0.0,0.0,0.0,0.0,0.0,0.0,0.0,0.0,0.0,0.0,0.0,0.0,0.0,0.0,0.0,0.0,0.0,0.0,0.0,0.0,0.0,0.0,0.0,0.0,0.0,0.0,-3.1756,-3.2491,0.0,-3.3337,-3.377,-3.4196,-3.4548,-3.4584,-3.4584,-3.4584,-3.4852,-3.4963,-3.4894,-3.5027,-3.503,-3.48,-3.4817,-3.4618,-3.4283,-3.4338,-3.4241,-3.3973,-3.3871,-3.375,-3.3652,-3.3905,-3.4042,-3.4012,-3.3706,-3.3803,-3.4082,-3.3932,-3.3878,-3.3905,-3.3882,-3.4127,-3.4555,0.0,0.0,0.0,0.0,0.0,0.0,0.0,0.0,0.0,0.0,0.0,-1.719,-1.7479,-1.7534,-1.759,-1.7799,-1.8533,-1.9367,-2.0228,0.0,0.0,0.0,-2.373,0.0,0.0,-2.4834,-2.4847,-2.4822,-2.4979,-2.4876,-2.4471,-2.5202,-2.5499,-2.537,-2.607,-2.6508,-2.6714,-2.6645,-2.6985,-2.7523,-2.7469,-2.7403,-2.7364,0.0,0.0,0.0,0.0,0.0,0.0,0.0,0.0,0.0,0.0,0.0,0.0,0.0,0.0,0.0,0.0,0.0,0.0,0.0,0.0,0.0,0.0,0.0,0.0,0.0,0.0,0.0,0.0,0.0,0.0,0.0,0.0,0.0,0.0,0.0,-3.226,-3.2493,-3.3564,-3.4285,-3.4268,-3.503,-3.5527,-3.5545,-3.5759,-3.5901,-3.5901,-3.615,-3.6201,-3.5964,-3.6229,-3.6162,-3.5809,-3.5866,-3.5648,-3.5324,-3.5232,-3.5001,-3.4678,-3.4561,-3.423,-3.3827,-3.413,-3.4129,-3.3953,-3.427,-3.4413,-3.4455,-3.4438,-3.4432,-3.4472,-3.4472,-3.4755,-3.5215,0.0,0.0,0.0,0.0,0.0,0.0,0.0,0.0,0.0,0.0,-1.6807,-1.692,-1.719,-1.719,-1.719,-1.719,-1.8444,-1.9475,-1.9958,-2.1194,0.0,0.0,0.0,0.0,-2.3459,-2.3525,-2.3525,-2.3447,-2.4086,-2.461,-2.5016,-2.5016,-2.537,-2.5861,-2.5931,-2.6208,-2.6645,-2.6496,-2.6837,-2.7469,-2.7335,-2.7268,-2.7268,0.0,0.0,0.0,0.0,0.0,0.0,0.0,0.0,0.0,0.0,0.0,0.0,0.0,0.0,0.0,0.0,0.0,0.0,0.0,0.0,0.0,0.0,0.0,0.0,0.0,0.0,0.0,0.0,0.0,0.0,0.0,0.0,0.0,-3.0808,-3.1466,-3.2208,-3.2921,-3.388,-3.4536,-3.4646,-3.559,-3.6123,-3.5913,-3.6558,-3.6978,-3.6961,-3.7679,-3.7899,-3.7448,-3.8562,-3.8963,-3.8535,-3.8328,-3.8035,-3.7624,-3.7466,-3.6798,-3.5806,-3.6296,-3.5873,-3.4828,-3.4985,-3.4836,-3.4496,-3.4991,-3.5165,-3.5021,-3.4975,-3.5343,-3.5975,-3.5975,-3.5905,-3.5773,0.0,0.0,0.0,0.0,0.0,0.0,0.0,0.0,0.0,0.0,-1.6987,-1.7155,-1.72,-1.719,-1.719,-1.719,-1.8755,-1.9834,-1.998,0.0,0.0,0.0,0.0,0.0,-2.4536,-2.4566,-2.4578,-2.4524,-2.5185,-2.5505,-2.5639,-2.5639,-2.5652,-2.5664,-2.607,-2.6289,-2.6371,-2.6658,-2.693,-2.7146,-2.7079,-2.7079,-2.7079,0.0,0.0,0.0,0.0,0.0,0.0,0.0,0.0,0.0,0.0,0.0,0.0,0.0,0.0,0.0,0.0,0.0,0.0,0.0,0.0,0.0,0.0,0.0,0.0,0.0,0.0,0.0,0.0,0.0,0.0,0.0,0.0,-3.107,-3.132,-3.2455,-3.3334,-3.3537,-3.536,-3.6481,-3.6234,-3.7509,-3.8205,-3.787,-3.8273,-3.8437,-3.8165,-3.8646,-3.8564,-3.7849,-3.8298,-3.8111,-3.7136,-3.7252,-3.6986,-3.6388,-3.6316,-3.6189,-3.5867,-3.6013,-3.5862,-3.547,-3.5727,-3.5772,-3.5626,-3.5782,-3.5834,-3.5771,-3.5626,-3.563,-3.5711,-3.5711,-3.5711,-3.5667,0.0,0.0,0.0,0.0,0.0,0.0,0.0,0.0,0.0,0.0,-1.6818,-1.6941,-1.6864,-1.6864,-1.7006,-1.737,-1.8868,-2.0035,-2.0576,0.0,0.0,0.0,0.0,-2.445,-2.5,-2.5043,-2.5156,-2.5329,-2.5933,-2.622,-2.622,-2.622,-2.6289,-2.6427,-2.6633,-2.6701,-2.6645,-2.6794,-2.6863,-2.6875,-2.6807,-2.6807,-2.6875,-2.6807,-2.7053,-2.7417,-2.7683,-2.7894,-2.8025,-2.8266,0.0,0.0,0.0,0.0,0.0,0.0,0.0,0.0,0.0,0.0,0.0,0.0,0.0,0.0,0.0,0.0,0.0,0.0,0.0,0.0,0.0,0.0,0.0,0.0,-3.1888,-3.2127,-3.2882,-3.3417,-3.3923,-3.4363,-3.6105,-3.7204,-3.7081,-3.8254,-3.8991,-3.8809,-3.9147,-3.9365,-3.9306,-3.9336,-3.9003,-3.8254,-3.8487,-3.8238,-3.7232,-3.7318,-3.7189,-3.6805,-3.6638,-3.6485,-3.6388,-3.6388,-3.6042,0.0,-3.571,-3.5705,-3.5616,-3.5851,-3.612,0.0,0.0,0.0,0.0,0.0,-3.64,-3.64,0.0,0.0,0.0,0.0,0.0,0.0,0.0,0.0,0.0,0.0,0.0,-1.6384,-1.6384,-1.653,-1.6833,-1.7525,-1.8949,-2.0384,0.0,0.0,0.0,-2.5074,-2.4587,-2.4564,-2.5065,-2.5256,-2.5446,-2.5851,-2.6502,-2.6794,-2.6726,-2.6726,-2.6985,-2.739,-2.7268,-2.7201,-2.7201,-2.6863,-2.6658,-2.6658,-2.6521,-2.6589,-2.6658,-2.6521,-2.6533,-2.6589,-2.7297,-2.7484,-2.7617,-2.9044,0.0,0.0,0.0,0.0,0.0,0.0,0.0,0.0,0.0,0.0,0.0,0.0,0.0,0.0,0.0,0.0,0.0,0.0,0.0,0.0,0.0,0.0,0.0,0.0,-3.3212,-3.3512,-3.4789,-3.4344,-3.4338,-3.5331,-3.65,-3.7235,-3.7386,-3.8238,-3.8857,-3.8989,-3.9277,-3.9662,-4.002,0.0,0.0,0.0,0.0,-3.8701,-3.8001,-3.8001,-3.7943,-3.7927,-3.746,-3.7134,-3.6938,-3.6877,-3.6276,-3.5309,-3.5309,-3.5199,-3.5038,-3.5537,-3.6146,-3.6856,-3.7001,-3.6985,-3.6951,-3.7353,-3.7485,-3.7485,0.0,0.0,0.0,0.0,0.0,0.0,0.0,0.0,0.0,-1.6384,-1.6384,-1.6384,-1.6384,-1.7194,-1.7741,-1.7616,-2.0001,-2.2347,0.0,0.0,-2.516,-2.5652,-2.5136,-2.5116,-2.5636,-2.6141,-2.6362,-2.6284,-2.6917,-2.7066,-2.6943,-2.6943,-2.6943,-2.685,-2.685,-2.6794,-2.6658,-2.6589,-2.6521,-2.6521,-2.6533,-2.6521,-2.6521,-2.6533,-2.6533,-2.6589,-2.7443,-2.7377,-2.7108,-2.8688,-2.9184,-2.9192,-2.9667,0.0,0.0,0.0,0.0,0.0,0.0,0.0,0.0,0.0,0.0,0.0,0.0,0.0,0.0,0.0,0.0,0.0,0.0,0.0,0.0,-3.3649,-3.3887,-3.4219,-3.5017,-3.531,-3.5666,-3.6109,-3.7207,-3.7794,-3.7454,-3.8193,-3.8602,-3.8323,-3.8641,-3.8761,-3.8551,-3.8778,-3.8486,-3.7637,-3.81,-3.7943,-3.7225,-3.7225,-3.7105,-3.6785,0.0,0.0,-3.6336,-3.6226,-3.6087,-3.5839,-3.5839,-3.5826,-3.5829,-3.5875,-3.656,-3.7592,-3.7481,-3.7419,-3.7369,-3.7468,-3.7485,-3.7485,0.0,0.0,0.0,0.0,0.0,0.0,0.0,0.0,0.0,0.0,-1.6384,-1.6628,-1.7184,-1.7802,-1.8422,-1.9004,-2.1314,0.0,0.0,-2.5562,-2.5539,-2.5781,-2.5525,-2.551,-2.5762,-2.6386,-2.6752,-2.6854,-2.7126,-2.7214,-2.7024,-2.7024,-2.6956,-2.6875,-2.6726,-2.6658,-2.6589,-2.6521,-2.6533,-2.6465,-2.6396,-2.6396,-2.6533,-2.6533,-2.6714,-2.704,-2.7497,-2.7617,-2.7802,-2.8931,-2.931,-2.9407,-3.0129,-3.0326,-3.0251,0.0,0.0,0.0,0.0,0.0,0.0,0.0,0.0,0.0,0.0,0.0,0.0,0.0,0.0,-3.083,0.0,0.0,-3.3562,-3.4349,-3.4516,-3.4821,-3.5506,-3.5768,-3.6151,-3.6664,-3.7329,-3.7637,-3.7417,-3.778,-3.8067,-3.81,-3.8067,-3.8067,-3.81,-3.8067,-3.7796,-3.721,-3.7449,-3.7254,-3.66,-3.66,-3.6476,-3.6226,-3.6163,-3.6085,-3.6085,-3.6037,-3.5973,-3.5831,-3.5831,-3.5958,-3.6258,-3.6906,-3.7546,-3.8101,-3.8338,-3.847,-3.8521,-3.8419,-3.8402,-3.8402,0.0,0.0,0.0,0.0,0.0,0.0,0.0,0.0,0.0,0.0,-1.6534,-1.6931,-1.8016,-1.8531,-1.9436,0.0,0.0,0.0,0.0,-2.607,-2.582,-2.5775,-2.5824,-2.5824,-2.5824,-2.6491,-2.7,-2.7268,-2.7268,-2.7214,-2.6943,-2.6943,-2.6943,-2.6875,-2.6726,-2.6658,-2.6589,-2.6465,-2.6396,-2.6396,-2.6201,-2.627,-2.6396,-2.6396,-2.6837,-2.755,-2.767,-2.8051,-2.862,-2.9484,-2.9685,-2.9747,-3.0387,-3.0568,-3.0507,-2.9931,-3.019,0.0,0.0,0.0,0.0,0.0,0.0,0.0,0.0,0.0,-2.8944,-3.0349,-3.0622,-3.0899,-3.1973,-3.3077,-3.4059,-3.4938,-3.5107,-3.5351,-3.5897,-3.5973,-3.6163,-3.6754,-3.7013,-3.7178,-3.7238,-3.7238,-3.7358,-3.777,-3.7417,-3.7417,-3.777,-3.7401,-3.7074,-3.6862,-3.6816,-3.6616,-3.6148,-3.6148,-3.6085,-3.5973,-3.5973,-3.5973,-3.5973,-3.591,-3.5846,-3.5638,-3.5638,-3.5879,-3.6243,-3.7589,-3.8108,-3.8165,-3.8969,-3.9379,-3.9448,-3.9325,-3.9272,-3.9272,0.0,0.0,0.0,0.0,0.0,0.0,0.0,0.0,0.0,0.0,0.0,0.0,0.0,0.0,0.0,0.0,0.0,0.0,-2.5836,-2.5833,-2.5827,-2.5824,-2.5824,-2.5824,-2.5824,-2.6883,-2.7404,-2.7268,-2.7268,-2.7134,-2.6726,-2.6726,-2.6658,-2.6533,-2.6521,-2.6396,-2.627,-2.627,-2.6131,-2.598,-2.591,-2.598,-2.598,-2.598,-2.6633,-2.7604,-2.8182,-2.8427,-2.8684,-3.0054,-3.0068,-2.9747,-3.0387,-3.0568,-3.0568,-3.0507,0.0,-3.0568,-3.0507,-3.0068,-2.9421,-2.8634,-2.903,-2.9449,0.0,0.0,-3.0864,-3.164,-3.1811,-3.222,-3.3672,-3.4025,-3.4435,-3.528,-3.5548,-3.5676,-3.5737,-3.5894,-3.6037,-3.61,-3.6274,-3.6399,-3.66,-3.66,-3.66,-3.6662,-3.66,-3.66,-3.6662,-3.6461,-3.6321,-3.6274,-3.6148,-3.61,-3.6037,-3.6037,-3.6037,-3.5973,-3.5831,-3.5752,-3.5752,-3.5604,-3.5554,-3.5504,-3.5504,-3.5424,-3.5459,-3.689,-3.7413,-3.7354,-3.8733,-3.9325,-3.9325,-3.9325,-3.9272,-3.9272,0.0,0.0,0.0,0.0,0.0,0.0,0.0,0.0,0.0,0.0,0.0,0.0,0.0,0.0,0.0,0.0,0.0,0.0,-2.6297,-2.6011,-2.5824,-2.5824,-2.5511,-2.5328,-2.5328,-2.6452,-2.6974,-2.6789,-2.6992,-2.7011,-2.6714,-2.6589,-2.6521,-2.6533,-2.6533,-2.6465,-2.6396,-2.627,-2.6131,-2.6062,-2.5828,-2.5828,-2.591,-2.5758,-2.6427,-2.7417,-2.7986,-2.8427,0.0,0.0,-3.0251,-3.0068,-3.0447,-3.0568,-3.0568,-3.0568,-3.0568,0.0,-3.0129,-2.9808,-2.9519,0.0,-2.9633,-3.0263,-3.029,-3.0839,-3.1367,-3.1767,-3.2225,-3.2737,-3.3485,-3.4322,-3.5096,0.0,-3.5554,-3.5604,-3.5604,-3.5683,-3.5733,-3.5831,-3.5879,-3.6022,-3.6163,-3.6226,-3.6226,-3.6336,-3.6352,-3.6352,-3.6352,-3.6274,-3.6133,-3.6085,-3.6037,-3.5973,-3.5831,-3.5831,-3.5782,-3.5683,-3.5604,-3.5524,-3.5394,-3.5344,-3.5294,-3.5148,-3.5148,-3.5082,-3.5133,-3.6087,-3.6707,-3.7071,-3.8067,-3.8662,-3.904,-3.9218,-3.9218,-3.9148,0.0,0.0,0.0,0.0,0.0,0.0,0.0,0.0,0.0,0.0,0.0,0.0,0.0,0.0,0.0,0.0,0.0,0.0,0.0,-2.5983,-2.5749,-2.5824,-2.5357,-2.5058,-2.5022,-2.5929,-2.6374,-2.6194,-2.6631,-2.6713,-2.6498,-2.6514,-2.6521,-2.6533,-2.6533,-2.6465,-2.6396,-2.6201,-2.6131,-2.6074,-2.5847,-2.5825,-2.6003,-2.6007,-2.6598,-2.7507,-2.7722,-2.8247,0.0,0.0,-3.0068,-3.0129,-3.0447,-3.0568,-3.0568,-3.0568,-3.0698,-3.0812,-3.0477,-3.0395,0.0,-3.0107,-3.0546,-3.1168,-3.1674,-3.1895,-3.2136,-3.2425,-3.293,-3.3379,-3.3556,-3.4559,-3.5359,-3.5439,-3.5439,-3.5504,-3.5504,-3.5504,-3.5554,-3.5638,-3.5638,-3.5718,-3.5861,-3.5925,-3.6037,-3.6148,-3.6148,-3.6239,-3.6423,-3.6359,-3.6386,-3.6455,-3.639,-3.631,-3.6165,-3.6165,-3.6039,-3.5774,-3.5708,-3.5538,-3.5213,-3.5148,-3.5001,-3.4935,-3.4935,-3.4868,-3.4868,-3.5608,-3.6275,-3.6874,-3.7515,-3.8181,-3.8805,-3.9094,-3.9094,-3.8969,0.0,0.0,0.0,0.0,0.0,0.0,0.0,0.0,0.0,0.0,0.0,0.0,0.0,0.0,0.0,0.0,0.0,0.0,0.0,-2.5623,-2.561,-2.5762,-2.5597,-2.5325,-2.4988,-2.5537,-2.5788,-2.5612,-2.6181,-2.6257,-2.5927,-2.646,-2.6589,-2.6533,-2.6533,-2.6396,-2.6213,-2.598,-2.591,-2.5947,-2.6021,-2.6227,-2.6445,-2.6757,-2.7385,-2.8015,-2.7413,0.0,0.0,-2.917,-2.9435,-2.9685,-3.019,-3.0447,0.0,-3.0568,-3.1003,-3.1627,-3.2217,0.0,-3.2263,-3.1599,-3.1954,-3.2436,-3.2348,-3.2935,-3.3616,-3.4225,-3.437,-3.4452,-3.4601,-3.4802,-3.5001,-3.5148,-3.5359,-3.5504,-3.5504,-3.5504,-3.5504,-3.5504,-3.5504,-3.5504,0.0,-3.5797,-3.5973,-3.6037,-3.6037,-3.6277,-3.6945,-3.6763,-3.6984,-3.7632,-3.7428,-3.7345,-3.7345,-3.7345,-3.7045,-3.6462,-3.6298,-3.5837,-3.5213,-3.5001,-3.4935,-3.4935,-3.4935,-3.4817,-3.4765,-3.5544,-3.6197,-3.6661,-3.7515,-3.8181,-3.8805,-3.8805,-3.8805,-3.8805,0.0,0.0,0.0,0.0,0.0,0.0,0.0,0.0,0.0,0.0,0.0,0.0,0.0,0.0,0.0,0.0,0.0,0.0,0.0,-2.5497,-2.5741,-2.6194,-2.553,-2.5097,-2.4975,-2.5023,-2.5052,-2.4991,-2.5383,-2.5664,-2.5889,-2.5933,-2.6156,-2.6533,-2.6533,-2.6465,-2.6396,-2.605,-2.6119,-2.638,-2.6178,-2.6663,-2.7518,-2.7631,-2.8277,-2.9086,0.0,0.0,-2.99,-3.0667,-3.1005,-3.1276,-3.1467,-3.1671,-3.1859,-3.1859,-3.2019,-3.2222,-3.2454,0.0,-3.255,-3.276,-3.3006,-3.3245,-3.3653,-3.3946,-3.4153,-3.437,-3.4481,-3.4631,-3.4698,-3.4817,-3.4935,-3.5001,-3.5148,-3.5294,-3.5294,-3.5439,-3.5504,-3.5504,-3.5504,0.0,0.0,0.0,0.0,-3.5767,-3.5831,-3.6069,-3.6763,-3.6727,-3.6962,-3.7458,-3.7419,-3.7404,-3.7404,-3.7282,-3.7109,-3.6901,-3.6168,-3.5501,-3.4898,-3.4683,-3.4549,-3.4549,-3.4549,-3.4549,-3.4549,-3.4787,-3.5285,-3.5882,-3.6615,-3.731,-3.7943,-3.8375,-3.8544,-3.8544,0.0,0.0,0.0,0.0,0.0,0.0,0.0,0.0,0.0,0.0,0.0,0.0,0.0,0.0,0.0,0.0,0.0,0.0,0.0,0.0,-2.5678,-2.6116,-2.5738,-2.5423,-2.5201,-2.5065,-2.4942,-2.4818,-2.5001,-2.5242,-2.5545,-2.5577,-2.5799,-2.6163,-2.6433,-2.6465,-2.6408,-2.6247,-2.6402,-2.6746,-2.7029,-2.7521,-2.8151,-2.8857,-2.9301,0.0,0.0,0.0,-3.1019,-3.1235,-3.1509,-3.1772,-3.2047,-3.232,-3.2571,-3.2788,-3.2861,-3.2904,-3.3137,-3.3195,-3.3296,-3.3703,-3.3804,-3.3906,-3.4312,-3.4414,-3.4414,-3.4414,-3.4481,-3.4563,-3.4563,-3.475,-3.4817,-3.4817,-3.5016,-3.5082,-3.5082,-3.5294,-3.5359,-3.5359,-3.5439,-3.5504,0.0,0.0,0.0,-3.5668,-3.5864,-3.63,-3.6895,-3.7151,-3.7518,-3.7953,-3.7983,-3.7968,-3.7898,-3.7771,-3.7582,-3.729,-3.6417,-3.5565,-3.4966,-3.483,-3.4632,-3.4414,-3.4414,-3.4414,-3.4414,-3.4414,-3.4787,-3.5464,-3.6134,-3.6829,-3.7476,-3.8148,-3.8391,-3.8448,0.0,0.0,0.0,0.0,0.0,0.0,0.0,0.0,0.0,0.0,0.0,0.0,0.0,0.0,0.0,0.0,0.0,0.0,0.0,0.0,0.0,-2.5625,-2.6142,-2.6168,-2.5536,-2.5484,-2.5358,-2.5,-2.5,-2.4949,-2.487,-2.536,-2.5611,-2.5661,-2.6214,-2.6396,-2.6238,-2.6559,-2.6721,-2.6844,-2.8238,-2.8535,-2.8317,-3.0162,0.0,0.0,0.0,0.0,-3.1983,-3.1089,-3.1059,-3.1394,-3.1895,-3.2313,-3.273,-3.3296,-3.3485,-3.3645,-3.424,-3.4414,-3.4414,-3.4414,-3.4414,-3.4414,-3.4414,-3.4414,-3.4414,-3.4414,-3.4414,-3.4414,-3.4414,0.0,-3.4698,-3.4698,-3.4817,-3.4868,-3.4868,-3.5082,-3.5148,0.0,0.0,0.0,0.0,0.0,0.0,-3.5589,0.0,-3.6806,-3.7419,-3.8048,-3.8635,-3.9075,-3.9104,-3.9017,-3.8782,-3.8782,-3.8399,-3.7565,-3.695,-3.6251,-3.5415,-3.5441,-3.5024,-3.4457,-3.4428,-3.4414,-3.4414,-3.4414,-3.4773,-3.54,-3.6072,-3.6768,-3.7417,-3.8091,-3.8335,-3.8391,0.0,0.0,0.0,0.0,0.0,0.0,0.0,0.0,0.0,0.0,0.0,0.0,0.0,0.0,0.0,0.0,0.0,0.0,0.0,0.0,0.0,0.0,0.0,0.0,0.0,0.0,0.0,-2.5,-2.4885,-2.5021,-2.5398,-2.5536,-2.5824,-2.6319,-2.6458,-2.6396,-2.6238,-2.6559,-2.687,-2.7139,0.0,-2.8541,-2.9362,0.0,0.0,0.0,0.0,0.0,0.0,0.0,0.0,0.0,0.0,-3.3278,-3.3662,-3.3558,-3.3804,-3.4196,-3.437,-3.4414,-3.4414,-3.4414,-3.4414,-3.4414,-3.4414,-3.4414,-3.4414,-3.4414,-3.4414,-3.4414,-3.4414,-3.4414,0.0,-3.4481,-3.4616,0.0,-3.475,-3.4883,0.0,-3.5001,0.0,-3.5792,-3.5792,-3.6384,0.0,0.0,-3.6871,-3.7396,-3.7912,-3.8232,-3.8635,-3.9075,-3.9104,-3.9104,-3.9017,-3.8738,-3.8194,-3.7375,-3.7201,-3.6779,-3.6054,-3.5575,-3.5285,-3.5096,-3.4617,-3.4414,-3.4414,-3.4414,-3.4467,-3.4721,-3.54,-3.577,-3.6024,-3.7222,-3.7653,-3.7727,0.0,0.0,0.0,0.0,0.0,0.0,0.0,0.0,0.0,0.0,0.0,0.0,0.0,0.0,0.0,0.0,0.0,0.0,0.0,0.0,0.0,0.0,0.0,0.0,0.0,0.0,0.0,0.0,0.0,0.0,-2.5598,-2.5598,-2.5774,-2.6088,-2.6352,-2.6396,-2.6238,-2.6559,0.0,0.0,0.0,0.0,0.0,0.0,0.0,0.0,0.0,0.0,0.0,0.0,0.0,-3.2945,-3.3421,-3.3653,-3.3696,-3.3839,0.0,-3.4414,-3.4414,-3.4414,-3.4414,-3.4414,-3.4414,-3.4414,-3.4414,-3.4414,-3.4414,-3.4414,-3.4414,-3.4414,-3.4414,-3.4414,0.0,0.0,0.0,0.0,-3.4563,-3.4683,-3.4919,0.0,-3.5604,0.0,-3.6291,-3.6895,-3.7208,0.0,-3.7505,-3.7793,-3.7952,-3.8463,-3.8718,-3.8797,-3.8811,-3.8811,-3.8738,-3.8501,-3.8117,-3.7694,-3.7694,-3.736,-3.6736,-3.6373,-3.6054,-3.5735,0.0,-3.4835,-3.4806,-3.453,-3.4414,-3.4481,-3.5154,-3.5578,-3.5961,-3.7027,-3.7594,-3.7902,0.0,0.0,0.0,0.0,0.0,0.0,0.0,0.0,0.0,0.0,0.0,0.0,0.0,0.0,0.0,0.0,0.0,0.0,0.0,0.0,0.0,0.0,0.0,0.0,0.0,0.0,0.0,0.0,0.0,0.0,0.0,0.0,0.0,0.0,0.0,0.0,0.0,0.0,0.0,0.0,0.0,0.0,0.0,0.0,0.0,0.0,0.0,0.0,0.0,0.0,-3.1889,-3.1736,-3.3303,-3.3499,-3.3293,-3.3989,-3.4274,-3.4346,-3.4346,-3.4414,-3.4414,-3.4414,-3.4414,-3.4414,-3.4414,-3.4414,-3.4414,-3.4414,0.0,-3.4414,-3.4414,-3.4414,-3.4414,-3.4414,0.0,-3.4414,-3.4414,-3.4563,-3.4864,-3.5463,-3.583,-3.6207,-3.6784,-3.743,-3.787,-3.787,-3.8028,-3.8115,-3.7884,-3.8633,-3.8885,-3.8516,-3.8516,-3.8366,-3.8202,-3.8202,-3.8202,-3.8202,-3.8202,-3.7941,-3.7418,-3.7346,-3.6983,-3.6402,-3.5764,0.0,-3.5314,-3.4762,-3.4486,-3.4467,-3.5023,-3.5642,-3.6197,-3.6966,-3.7653,-3.8148,0.0,0.0,0.0,0.0,0.0,0.0,0.0,0.0,0.0,0.0,-1.9798,-1.9862,0.0,0.0,0.0,0.0,0.0,0.0,0.0,0.0,0.0,0.0,0.0,0.0,0.0,0.0,0.0,0.0,0.0,0.0,0.0,0.0,0.0,0.0,0.0,0.0,0.0,0.0,0.0,0.0,0.0,0.0,0.0,0.0,0.0,0.0,0.0,0.0,0.0,0.0,-3.143,-3.1598,-3.2027,-3.2397,-3.2834,-3.3121,-3.3643,-3.4128,-3.4128,-3.4264,-3.4414,-3.4414,-3.4414,-3.4414,-3.4414,-3.4414,0.0,0.0,-3.4414,-3.4414,-3.4414,-3.4414,-3.4414,-3.4414,0.0,0.0,0.0,0.0,-3.4714,0.0,0.0,0.0,0.0,0.0,0.0,0.0,0.0,-3.8429,-3.834,-3.8664,-3.8723,-3.8516,-3.8516,-3.8366,-3.8202,-3.8202,-3.8202,-3.8202,-3.8202,-3.8144,-3.8028,-3.7535,-3.7244,-3.7099,-3.6431,0.0,-3.5427,-3.5241,-3.4893,-3.4414,-3.4534,-3.4654,-3.4905,-3.6134,-3.6646,-3.689,0.0,0.0,0.0,0.0,0.0,0.0,0.0,-2.0144,-1.9939,-1.9708,-1.9759,-1.9862,-1.999,-2.0322,0.0,0.0,0.0,0.0,0.0,0.0,0.0,0.0,0.0,0.0,0.0,0.0,0.0,0.0,0.0,0.0,0.0,0.0,0.0,0.0,0.0,0.0,0.0,0.0,0.0,0.0,0.0,0.0,0.0,0.0,0.0,0.0,0.0,0.0,0.0,0.0,-3.0993,-3.0882,-3.1884,-3.2203,-3.2369,-3.3157,-3.3762,-3.4128,-3.4128,-3.4264,-3.4414,-3.4414,-3.4414,-3.4414,-3.4414,0.0,0.0,0.0,-3.4414,-3.4414,-3.4414,-3.4414,0.0,0.0,0.0,0.0,0.0,0.0,0.0,0.0,0.0,0.0,0.0,0.0,0.0,0.0,0.0,-3.8366,-3.8366,-3.8427,-3.8427,-3.8366,-3.8366,-3.8277,-3.8202,-3.8202,-3.8202,-3.8202,-3.8202,-3.8202,-3.8202,-3.7763,-3.7632,-3.7604,-3.6806,0.0,-3.6029,-3.5366,-3.492,-3.4617,-3.4272,-3.4399,-3.4824,-3.5499,-3.6259,-3.7027,0.0,0.0,0.0,0.0,0.0,0.0,0.0,-2.0258,-2.0042,-1.9772,-1.9811,-1.9914,-1.999,-1.999,-2.0322,0.0,0.0,0.0,0.0,0.0,0.0,0.0,0.0,0.0,0.0,0.0,0.0,0.0,0.0,0.0,0.0,0.0,0.0,0.0,0.0,0.0,0.0,0.0,0.0,0.0,0.0,0.0,0.0,0.0,0.0,0.0,0.0,0.0,0.0,0.0,-3.0538,-3.0336,-3.2096,-3.2263,-3.2079,-3.3417,-3.3882,-3.3991,-3.3991,-3.4142,-3.4278,-3.4346,-3.4346,-3.4346,-3.4414,-3.4414,0.0,0.0,-3.4414,-3.4414,-3.4414,0.0,-3.4414,0.0,-3.4414,0.0,0.0,0.0,0.0,0.0,0.0,0.0,0.0,0.0,0.0,0.0,0.0,0.0,-3.8202,-3.8202,-3.8202,-3.8202,-3.8202,-3.8202,-3.8202,-3.8202,-3.8202,-3.8202,-3.8202,-3.8202,-3.8202,-3.8005,-3.7929,-3.7825,-3.7186,0.0,0.0,-3.5625,-3.5068,-3.4853,-3.4352,-3.4516,-3.4927,-3.5044,-3.5882,-3.6982,0.0,0.0,0.0,0.0,0.0,0.0,0.0,-2.0461,-2.036,-2.0182,-2.0182,-2.0131,-1.999,-1.999,-2.0309,0.0,0.0,0.0,0.0,0.0,0.0,0.0,0.0,0.0,0.0,0.0,0.0,0.0,0.0,0.0,0.0,0.0,0.0,0.0,0.0,0.0,0.0,0.0,0.0,0.0,0.0,0.0,0.0,0.0,0.0,0.0,0.0,0.0,0.0,0.0,0.0,-3.0263,-3.1889,-3.237,-3.2455,-3.3129,0.0,0.0,-3.3675,-3.3813,-3.3951,-3.4074,-3.4128,-3.4196,-3.4346,0.0,0.0,-3.4414,-3.4414,-3.4414,-3.4414,-3.4414,-3.4414,-3.4414,0.0,-3.4414,0.0,0.0,0.0,0.0,0.0,0.0,0.0,0.0,0.0,0.0,0.0,0.0,-3.8202,-3.8202,-3.8202,-3.8202,-3.8202,-3.8202,-3.8202,-3.8202,-3.8202,-3.8202,-3.8202,-3.8202,-3.8202,-3.8005,-3.7929,-3.7853,-3.763,0.0,0.0,-3.6568,-3.5926,-3.5037,-3.4979,-3.4799,-3.4534,-3.4927,-3.532,-3.5642,0.0,0.0,0.0,0.0,0.0,0.0,-2.0612,-2.0562,-2.0398,-2.0118,-2.0169,-2.0131,-1.9914,-1.9926,-2.013,0.0,0.0,0.0,0.0,0.0,0.0,0.0,0.0,0.0,0.0,0.0,0.0,-2.5937,-2.6289,0.0,0.0,0.0,0.0,0.0,0.0,0.0,0.0,0.0,0.0,0.0,0.0,0.0,0.0,0.0,0.0,0.0,0.0,0.0,0.0,0.0,0.0,0.0,-3.2429,-3.2583,0.0,0.0,-3.3466,-3.3605,-3.3605,-3.3744,-3.3882,-3.3951,-3.3951,-3.4005,-3.421,0.0,-3.4264,-3.4414,-3.4414,-3.4414,-3.4414,-3.4414,-3.4414,-3.4414,0.0,0.0,-3.4414,0.0,0.0,0.0,0.0,0.0,0.0,0.0,0.0,0.0,0.0,0.0,-3.8202,-3.8202,-3.8202,-3.8202,-3.8202,-3.8202,-3.8202,-3.8202,-3.8202,-3.8202,-3.8202,-3.8202,-3.8202,-3.7839,-3.7701,-3.7701,-3.738,0.0,0.0,-3.6462,-3.6084,-3.5648,-3.4824,-3.4512,-3.4452,-3.4257,-3.4558,-3.5139,0.0,0.0,0.0,0.0,0.0,-2.0662,-2.0712,-2.0612,-2.0448,-2.0271,-2.0271,-2.0283,-2.0016,-2.0029,-2.0042,-1.999,0.0,0.0,0.0,0.0,0.0,0.0,0.0,0.0,0.0,0.0,-2.5272,-2.5598,-2.6,-2.6233,0.0,0.0,0.0,0.0,0.0,0.0,0.0,0.0,0.0,0.0,0.0,0.0,0.0,0.0,0.0,0.0,0.0,0.0,0.0,0.0,0.0,0.0,0.0,0.0,0.0,0.0,-3.3241,-3.3227,-3.3466,-3.3605,-3.3744,-3.3827,-3.3827,-3.3813,0.0,0.0,-3.4128,-3.4264,-3.4346,-3.4414,-3.4414,-3.4414,-3.4414,-3.4414,0.0,-3.4414,-3.4414,-3.4414,0.0,0.0,0.0,0.0,0.0,0.0,0.0,0.0,0.0,0.0,-3.8202,-3.8202,-3.8202,-3.8202,-3.8202,-3.8202,-3.8202,-3.8202,-3.8202,-3.8142,-3.8142,-3.8066,-3.7976,-3.7687,-3.7534,-3.7457,-3.7148,0.0,0.0,-3.6515,-3.631,-3.6043,-3.4987,-3.4552,-3.4526,-3.3832,-3.4059,-3.4639,0.0,0.0,0.0,0.0,0.0,0.0,-2.0662,-2.0699,-2.0699,-2.0699,-2.0699,-2.0662,-2.0511,-2.0347,-2.0131,-1.999,0.0,0.0,0.0,0.0,0.0,0.0,0.0,0.0,0.0,0.0,-2.4531,-2.5598,-2.5598,-2.5832,-2.6213,-2.598,-2.5615,0.0,0.0,0.0,0.0,0.0,0.0,0.0,0.0,0.0,0.0,0.0,0.0,0.0,0.0,0.0,0.0,0.0,0.0,0.0,0.0,0.0,0.0,0.0,-3.2704,-3.2304,-3.3086,-3.3326,-3.3326,-3.3536,-3.3605,-3.3675,0.0,0.0,-3.4128,-3.4128,-3.4264,-3.4414,-3.4414,-3.4414,-3.4414,-3.4414,-3.4414,0.0,-3.4414,0.0,0.0,0.0,0.0,0.0,0.0,0.0,0.0,0.0,0.0,0.0,-3.8202,-3.8202,-3.8202,-3.8202,-3.8202,-3.8202,-3.8202,-3.8202,-3.8142,-3.7929,-3.7929,-3.7777,-3.7625,-3.738,-3.7303,0.0,0.0,0.0,0.0,-3.6978,-3.6781,-3.6311,-3.5614,-3.5151,-3.4668,-3.3916,-3.3744,-3.3882,0.0,0.0,0.0,0.0,0.0,0.0,0.0,-2.0435,-2.0207,-2.0207,-2.0485,-2.0549,-2.0067,-2.0131,-2.0131,-1.999,0.0,0.0,0.0,0.0,0.0,0.0,0.0,0.0,0.0,0.0,-2.4167,-2.4506,-2.4883,-2.5215,-2.5425,-2.5357,-2.5122,-2.4667,-2.443,0.0,0.0,0.0,0.0,0.0,0.0,0.0,0.0,0.0,0.0,0.0,0.0,0.0,0.0,0.0,0.0,0.0,0.0,0.0,0.0,0.0,0.0,0.0,-3.3086,-3.3326,-3.3326,-3.3396,-3.3396,-3.3466,-3.3675,0.0,-3.3799,-3.4059,-3.4128,-3.4264,-3.4346,-3.4414,-3.4414,-3.4414,-3.4414,0.0,0.0,0.0,0.0,0.0,0.0,0.0,0.0,0.0,0.0,0.0,0.0,0.0,-3.8202,-3.8202,-3.8202,-3.8202,-3.8202,-3.8202,-3.8202,-3.8066,-3.7929,-3.7929,-3.7777,-3.7701,-3.7625,-3.738,-3.7303,0.0,0.0,0.0,0.0,-3.6978,-3.6704,-3.616,-3.554,-3.4933,-3.4312,-3.3621,-3.3466,-3.3466,0.0,0.0,0.0,0.0,0.0,0.0,0.0,-2.0435,-2.0207,-2.0042,-2.0435,-2.0485,-1.9952,-2.0067,-2.0182,-2.0093,0.0,0.0,0.0,0.0,0.0,0.0,0.0,0.0,0.0,-2.3201,-2.3778,-2.4004,-2.4343,-2.4601,-2.4792,-2.4792,-2.4688,-2.4506,-2.4326,0.0,0.0,0.0,0.0,0.0,0.0,0.0,-2.5107,0.0,0.0,0.0,0.0,0.0,0.0,0.0,0.0,0.0,0.0,0.0,0.0,0.0,-3.2461,-3.2304,0.0,-3.3326,-3.3326,-3.3326,-3.3326,0.0,0.0,-3.3536,-3.3675,-3.3937,-3.4059,-3.4128,-3.4346,-3.4414,-3.4414,-3.4414,-3.4414,-3.4414,0.0,0.0,0.0,0.0,0.0,0.0,0.0,0.0,0.0,0.0,0.0,0.0,-3.8066,-3.8066,-3.8066,-3.7991,-3.8066,-3.8066,-3.8066,-3.7929,-3.7777,-3.7701,-3.7534,-3.7457,-3.738,-3.7226,-3.7226,0.0,0.0,0.0,0.0,-3.6978,-3.6613,-3.6009,-3.5479,-3.4773,-3.4169,-3.355,-3.3326,-3.3326,0.0,0.0,0.0,0.0,0.0,0.0,0.0,0.0,-2.0435,-1.994,-2.0271,-2.0435,-1.994,-2.0055,-2.0131,-2.0131,0.0,0.0,0.0,0.0,0.0,0.0,0.0,0.0,0.0,-2.2799,-2.3364,-2.3941,-2.3941,-2.4028,-2.4239,-2.4239,-2.431,-2.4446,-2.3977,-2.3749,-2.3718,-2.263,-2.2197,-2.2197,-2.2197,-2.3123,0.0,0.0,0.0,0.0,0.0,0.0,0.0,0.0,0.0,0.0,0.0,0.0,0.0,0.0,0.0,0.0,0.0,-3.3255,-3.3326,0.0,0.0,0.0,0.0,0.0,0.0,-3.3827,-3.4005,-3.4128,-3.4346,-3.4414,-3.4414,-3.4414,-3.4414,0.0,0.0,0.0,0.0,0.0,0.0,0.0,0.0,0.0,0.0,0.0,0.0,0.0,-3.7853,-3.7853,-3.7777,-3.7625,-3.7777,-3.7853,-3.7853,-3.7701,-3.7457,-3.7303,-3.7303,-3.7148,-3.6978,-3.6978,-3.6978,0.0,0.0,0.0,0.0,-3.6936,-3.6557,-3.5953,-3.5409,-3.4716,-3.4098,-3.3536,-3.3326,-3.3326,0.0,0.0,0.0,0.0,0.0,0.0,0.0,0.0,0.0,0.0,-1.9303,-1.9396,-1.862,-1.9279,-1.9617,0.0,0.0,0.0,0.0,0.0,0.0,0.0,0.0,0.0,0.0,-2.2221,-2.2774,-2.3339,-2.323,-2.3331,-2.3673,-2.3545,-2.3632,-2.3941,-2.3821,-2.3544,-2.3123,-2.2474,-2.2197,-2.2197,-2.2197,-2.3123,0.0,0.0,0.0,0.0,-2.816,-2.8351,0.0,0.0,0.0,0.0,0.0,0.0,0.0,0.0,-3.1636,-3.216,-3.2318,0.0,-3.3326,-3.3326,-3.3326,-3.3326,0.0,0.0,0.0,0.0,0.0,0.0,0.0,-3.4278,-3.4414,-3.4414,-3.4414,-3.4414,0.0,0.0,0.0,0.0,0.0,0.0,0.0,0.0,0.0,0.0,0.0,-3.7853,-3.7701,-3.7701,-3.7625,-3.7625,-3.7457,-3.7534,-3.7701,-3.7457,-3.738,-3.7303,-3.7148,-3.707,-3.6978,-3.6978,-3.6978,0.0,0.0,0.0,-3.695,-3.6473,-3.5925,-3.5381,-3.4688,-3.4084,-3.3508,-3.3368,-3.3326,-3.3326,0.0,0.0,0.0,0.0,0.0,0.0,0.0,0.0,0.0,0.0,0.0,0.0,0.0,0.0,0.0,0.0,0.0,0.0,0.0,0.0,0.0,0.0,0.0,0.0,-2.1062,-2.1793,-2.2343,-2.2643,-2.2784,-2.3009,-2.312,-2.2995,-2.315,-2.3412,-2.3412,-2.3244,-2.2943,-2.2414,-2.2197,-2.2209,-2.245,0.0,0.0,0.0,0.0,0.0,-2.7985,-2.8339,0.0,-2.851,-2.8736,-2.9028,0.0,0.0,0.0,0.0,-3.118,-3.2074,-3.2074,-3.2704,-3.3326,-3.3326,-3.3326,-3.3326,-3.3326,0.0,0.0,0.0,0.0,0.0,0.0,0.0,0.0,-3.3894,-3.4045,0.0,0.0,0.0,0.0,0.0,0.0,0.0,0.0,0.0,0.0,0.0,0.0,-3.7625,-3.7457,-3.7457,-3.738,-3.7303,-3.7226,-3.7226,-3.7457,-3.7226,-3.7148,-3.7148,-3.707,-3.6978,-3.6978,-3.6978,-3.6978,0.0,0.0,0.0,-3.6543,-3.6206,-3.5545,-3.4702,-3.4365,-3.3859,-3.3326,-3.3326,-3.3326,-3.3326,0.0,0.0,0.0,0.0,0.0,0.0,0.0,0.0,0.0,0.0,0.0,0.0,0.0,0.0,0.0,0.0,0.0,0.0,0.0,0.0,0.0,0.0,0.0,-2.0523,-2.0515,-2.1443,-2.2014,-2.2101,-2.2588,-2.28,-2.2678,-2.2616,-2.2676,-2.2859,-2.2859,-2.2859,-2.2835,-2.2378,-2.2197,-2.2246,-2.2763,0.0,0.0,0.0,0.0,0.0,0.0,0.0,0.0,-2.851,-2.8961,-2.9328,-2.8736,0.0,0.0,0.0,0.0,0.0,-3.1928,-3.2475,-3.3171,-3.3255,-3.3326,-3.3326,-3.3326,0.0,0.0,0.0,0.0,0.0,0.0,-3.3922,0.0,0.0,0.0,0.0,0.0,0.0,0.0,0.0,0.0,0.0,0.0,0.0,0.0,0.0,0.0,-3.7303,-3.7226,-3.7226,-3.7148,-3.6978,-3.6978,-3.707,-3.7226,-3.707,-3.6978,-3.6978,-3.6978,-3.6978,-3.6978,-3.688,-3.6838,-3.6838,0.0,0.0,-3.5925,-3.5826,-3.518,-3.4153,-3.414,-3.3775,-3.3326,-3.3326,-3.3326,-3.3326,0.0,0.0,0.0,0.0,0.0,0.0,0.0,0.0,0.0,0.0,0.0,0.0,0.0,0.0,0.0,0.0,0.0,0.0,0.0,0.0,0.0,0.0,-1.9651,-2.0017,-2.0515,-2.1058,-2.1559,-2.1938,-2.2286,-2.2482,-2.242,-2.2309,-2.2296,-2.2306,-2.2306,-2.2306,-2.2306,-2.2221,-2.2197,-2.2246,-2.2763,0.0,0.0,0.0,0.0,0.0,0.0,0.0,0.0,-2.8363,-2.8498,-2.8407,-2.851,0.0,0.0,0.0,0.0,0.0,-3.1267,-3.1636,-3.2461,-3.3157,-3.3326,-3.3326,-3.3326,0.0,0.0,0.0,0.0,0.0,0.0,-3.3297,0.0,0.0,0.0,0.0,0.0,0.0,0.0,0.0,0.0,0.0,0.0,0.0,0.0,0.0,0.0,-3.7226,-3.707,-3.707,-3.7056,-3.6978,-3.6978,-3.6978,-3.707,-3.6978,-3.6978,-3.6978,-3.6978,-3.6978,-3.6964,-3.6445,-3.6206,-3.6178,0.0,-3.5451,-3.5325,-3.4731,-3.4407,-3.4183,-3.3663,-3.3396,-3.3326,-3.3326,-3.3326,-3.3326,0.0,0.0,0.0,0.0,0.0,0.0,0.0,0.0,0.0,0.0,0.0,0.0,0.0,0.0,0.0,0.0,0.0,0.0,0.0,0.0,0.0,-1.942,-1.9368,-1.9491,-1.9801,-2.0557,-2.1109,-2.132,-2.2019,-2.242,-2.242,-2.2247,-2.2197,-2.2197,-2.2197,-2.2197,-2.2197,-2.2197,-2.2354,-2.2666,0.0,0.0,0.0,0.0,0.0,0.0,0.0,0.0,0.0,0.0,-2.8259,-2.8259,-2.8339,0.0,0.0,0.0,0.0,0.0,-3.0367,-3.082,-3.1563,-3.1869,-3.2331,-3.2618,0.0,0.0,0.0,0.0,0.0,0.0,0.0,0.0,0.0,0.0,0.0,0.0,0.0,0.0,0.0,0.0,0.0,0.0,0.0,0.0,0.0,0.0,0.0,0.0,-3.6322,-3.6423,-3.6487,-3.6487,-3.6178,-3.5995,-3.5995,-3.5995,-3.6164,-3.6487,-3.6487,-3.6318,-3.5981,-3.57,-3.5648,-3.5634,0.0,-3.4969,-3.4632,-3.4351,-3.4042,-3.3719,-3.3438,-3.3326,-3.3326,-3.3326,-3.3326,-3.3326,0.0,0.0,0.0,0.0,0.0,0.0,0.0,0.0,0.0,0.0,0.0,0.0,0.0,0.0,0.0,0.0,0.0,0.0,0.0,0.0,-1.9223,-1.9316,-1.9223,-1.917,-1.9182,-2.028,-2.077,-2.077,-2.1837,-2.2359,-2.2359,-2.2185,-2.2123,-2.2197,-2.2197,-2.2197,-2.2197,-2.233,-2.2606,-2.3039,0.0,0.0,0.0,0.0,0.0,0.0,0.0,0.0,0.0,0.0,0.0,0.0,0.0,0.0,0.0,-2.8259,-2.8858,-2.9614,-2.9704,-3.0152,-3.067,-3.082,0.0,0.0,0.0,0.0,0.0,0.0,0.0,0.0,0.0,0.0,0.0,0.0,0.0,0.0,0.0,0.0,0.0,0.0,0.0,0.0,0.0,0.0,0.0,0.0,0.0,0.0,-3.5009,-3.5388,-3.5613,-3.5613,-3.5316,-3.5226,-3.5226,-3.5226,-3.5465,-3.5855,-3.5855,-3.5691,-3.5226,-3.5012,-3.4941,-3.4927,-3.4787,-3.445,-3.4028,-3.4028,-3.3747,-3.3326,-3.3326,-3.3326,-3.3326,-3.3326,-3.3326,-3.3326,0.0,0.0,0.0,0.0,0.0,0.0,0.0,0.0,0.0,0.0,0.0,0.0,0.0,0.0,0.0,0.0,0.0,0.0,0.0,0.0,-1.917,-1.904,-1.8999,-1.9052,-1.9182,-2.028,-2.0713,-2.061,-2.168,-2.2197,-2.2197,-2.1999,-2.1999,-2.2197,-2.2197,-2.2197,-2.2221,-2.2714,-2.2943,-2.3063,-2.3939,0.0,0.0,0.0,0.0,0.0,0.0,0.0,0.0,0.0,0.0,0.0,0.0,0.0,-2.8259,-2.8179,-2.8779,-2.9447,-2.9614,-2.9781,-2.9999,-3.0745,-3.097,0.0,-3.097,-3.097,0.0,-3.0895,0.0,0.0,0.0,0.0,0.0,0.0,0.0,0.0,0.0,0.0,0.0,0.0,0.0,0.0,0.0,0.0,0.0,0.0,0.0,0.0,-3.3001,-3.3742,-3.4113,-3.4113,-3.4854,-3.5226,-3.5226,-3.5226,-3.5254,-3.5282,-3.5282,-3.5268,-3.5212,-3.4562,-3.4309,-3.4267,-3.3705,-3.3424,-3.3382,-3.3382,-3.3368,-3.3326,-3.3326,-3.3326,-3.3326,-3.3326,-3.3326,-3.3326,0.0,0.0,0.0,0.0,0.0,0.0,0.0,0.0,0.0,0.0,0.0,0.0,0.0,0.0,0.0,0.0,0.0,0.0,0.0,0.0,-1.8494,-1.8429,-1.8815,-1.9197,-1.9534,-2.0282,-2.0824,-2.1103,-2.1703,-2.1999,-2.1999,-2.1937,-2.1874,-2.1886,-2.1999,-2.2178,-2.2488,-2.2767,-2.3221,-2.3855,-2.4181,-2.433,0.0,0.0,0.0,0.0,0.0,0.0,0.0,0.0,-2.7615,-2.7615,-2.7615,-2.7788,-2.795,-2.7765,-2.8087,-2.8474,-2.8712,-2.8791,-2.8858,-2.9328,-2.9406,0.0,0.0,-3.0139,-2.9999,-2.9471,-2.9406,0.0,0.0,0.0,0.0,0.0,0.0,0.0,0.0,0.0,0.0,0.0,0.0,0.0,0.0,0.0,0.0,0.0,0.0,0.0,-3.1902,-3.2358,-3.2854,-3.3383,-3.334,-3.3526,-3.4014,-3.4014,-3.4014,-3.4014,-3.4393,-3.4379,-3.4014,-3.3775,-3.3663,-3.3663,-3.3424,-3.3326,-3.3326,-3.3326,-3.3326,-3.3326,-3.3326,-3.3326,-3.3326,-3.3326,-3.3326,-3.3326,0.0,0.0,0.0,0.0,0.0,0.0,0.0,0.0,0.0,0.0,0.0,0.0,0.0,0.0,0.0,0.0,0.0,0.0,-1.6197,-1.709,-1.7699,-1.7765,-1.8253,-1.8853,-1.966,-2.0146,-2.0665,-2.1344,-2.1602,-2.18,-2.1812,-2.1812,-2.1812,-2.171,-2.204,-2.2301,-2.2657,-2.2989,-2.3534,-2.421,-2.4306,-2.439,0.0,0.0,0.0,0.0,0.0,0.0,0.0,0.0,-2.7441,-2.7522,-2.7441,-2.7534,-2.7708,-2.7522,-2.7615,-2.7788,-2.8018,-2.8179,-2.8259,-2.8351,0.0,0.0,-2.9184,-2.9328,-2.9184,-2.8578,-2.851,0.0,0.0,0.0,0.0,0.0,0.0,0.0,0.0,0.0,0.0,0.0,0.0,0.0,0.0,0.0,0.0,0.0,0.0,0.0,0.0,-3.093,-3.1394,-3.1925,-3.2071,-3.239,-3.2931,-3.3171,-3.3326,-3.3326,-3.3747,-3.3733,-3.3326,-3.3326,-3.3326,-3.3326,-3.3326,-3.3326,-3.3326,-3.3326,-3.3326,-3.3326,-3.3326,-3.3326,-3.3326,-3.3326,-3.3326,-3.3326,0.0,0.0,0.0,0.0,0.0,0.0,0.0,0.0,0.0,0.0,0.0,0.0,0.0,0.0,0.0,0.0,0.0,0.0,-1.5874,-1.6415,-1.6754,-1.7011,-1.7269,-1.8023,-1.9349,-1.9666,-2.0255,-2.1092,-2.128,-2.1474,-2.1698,-2.1698,-2.1698,-2.1722,-2.242,-2.258,-2.2444,-2.3544,-2.3979,-2.4026,-2.4352,-2.449,-2.4502,0.0,0.0,0.0,0.0,0.0,0.0,0.0,-2.729,-2.7441,-2.7219,-2.7371,-2.7522,-2.7522,-2.7522,-2.7522,-2.78,-2.803,-2.8167,0.0,0.0,0.0,-2.851,-2.851,-2.851,-2.851,0.0,-2.851,-2.851,0.0,0.0,0.0,0.0,0.0,0.0,0.0,0.0,0.0,0.0,0.0,0.0,0.0,0.0,0.0,0.0,0.0,0.0,-2.9263,-2.9704,-2.9704,-3.1267,-3.2074,-3.2074,-3.286,-3.3326,-3.3326,-3.3326,-3.3326,-3.3326,-3.3326,-3.3326,-3.3326,-3.3326,-3.3326,-3.3326,-3.3326,-3.3326,-3.3326,-3.3326,-3.3326,-3.3326,-3.3326,-3.3326,-3.3326,0.0,0.0,0.0,0.0,0.0,0.0,0.0,0.0,0.0,0.0,0.0,0.0,0.0,0.0,0.0,0.0,0.0,0.0,-1.5254,-1.5816,-1.6284,-1.6601,-1.7147,-1.7878,-1.8865,-1.9753,-2.0665,-2.1525,-2.1455,-2.1463,-2.1474,-2.1474,-2.1411,-2.1383,-2.2034,-2.2531,-2.2838,-2.3478,-2.3979,-2.4341,-2.4432,-2.4418,-2.4307,0.0,0.0,0.0,0.0,0.0,0.0,0.0,0.0,0.0,-2.7231,-2.7219,-2.7301,-2.7301,-2.7301,-2.7383,-2.7534,-2.7684,0.0,-2.795,0.0,0.0,0.0,-2.8431,0.0,0.0,-2.851,-2.851,-2.851,0.0,0.0,0.0,0.0,0.0,0.0,0.0,0.0,0.0,0.0,0.0,0.0,0.0,0.0,0.0,0.0,0.0,0.0,-2.8736,-2.9106,-2.9704,-3.0152,-3.097,-3.2074,-3.2318,-3.2704,-3.3326,-3.3326,-3.3326,-3.3326,-3.3326,-3.3326,-3.3326,-3.3326,-3.3326,-3.3326,-3.3326,-3.3326,-3.3326,-3.3326,-3.3326,-3.3326,-3.3326,-3.3326,-3.3326,0.0,0.0,0.0,0.0,0.0,0.0,0.0,0.0,0.0,0.0,0.0,0.0,0.0,0.0,0.0,0.0,0.0,0.0,0.0,0.0,-1.5722,-1.6045,-1.6614,-1.7435,-1.8393,-1.9609,-2.0366,-2.0635,-2.1083,-2.1336,-2.1336,-2.1388,-2.1452,-2.1491,-2.2194,-2.2819,-2.3514,-2.3804,-2.416,-2.4611,-2.4426,-2.4345,-2.4246,0.0,0.0,0.0,0.0,0.0,0.0,0.0,0.0,0.0,-2.7231,-2.7231,-2.7231,-2.7231,-2.7231,-2.7231,-2.7371,-2.7441,0.0,-2.7708,-2.78,-2.7962,-2.803,0.0,0.0,0.0,0.0,-2.8339,0.0,0.0,0.0,0.0,0.0,0.0,0.0,0.0,0.0,0.0,0.0,0.0,0.0,0.0,0.0,0.0,0.0,0.0,0.0,-2.8339,-2.8566,-2.9094,-2.9626,-3.038,-3.1254,-3.1796,-3.2331,-3.2803,-3.2803,-3.2945,-3.3086,-3.3241,-3.3326,-3.3326,-3.3326,-3.3326,-3.3326,-3.3326,-3.3326,-3.3326,-3.3326,-3.3326,-3.3326,-3.3326,-3.3326,-3.3326,0.0,0.0,0.0,0.0,0.0,0.0,0.0,0.0,0.0,0.0,0.0,0.0,0.0,0.0,0.0,0.0,0.0,0.0,0.0,0.0,-1.5129,-1.5327,-1.5955,-1.6794,-1.7891,-1.9233,-1.9562,-1.8977,-2.0431,-2.1094,-2.1094,-2.1244,-2.1532,-2.195,-2.2624,-2.341,-2.42,-2.4246,-2.451,-2.4877,-2.4441,-2.4235,-2.4246,-2.4728,0.0,0.0,0.0,0.0,0.0,0.0,0.0,0.0,-2.7231,-2.7231,-2.7231,-2.7231,-2.7231,-2.7231,-2.7231,0.0,0.0,-2.7441,-2.7696,0.0,-2.7881,-2.8203,-2.8431,-2.8179,0.0,0.0,0.0,0.0,0.0,0.0,0.0,0.0,0.0,0.0,0.0,0.0,0.0,0.0,0.0,0.0,0.0,0.0,0.0,0.0,0.0,-2.8179,-2.8179,-2.8179,-2.9406,-3.0012,-2.9909,-3.122,-3.1982,-3.2055,-3.2055,-3.2273,-3.2632,-3.3016,-3.3255,-3.3326,-3.3326,-3.3326,-3.3326,-3.3326,-3.3255,-3.3171,-3.3171,-3.3171,-3.3086,-3.3086,-3.3086,-3.3086,0.0,0.0,0.0,0.0,0.0,0.0,0.0,0.0,0.0,0.0,0.0,0.0,0.0,0.0,0.0,0.0,0.0,0.0,0.0,0.0,-1.5115,-1.5596,-1.6029,-1.666,-1.7541,-1.7813,-1.8287,-1.8834,-1.9835,-2.0366,-2.0377,-2.0819,-2.1329,-2.1962,-2.288,-2.3615,-2.4212,-2.4602,-2.482,-2.49,-2.4797,-2.4533,-2.4246,-2.4728,-2.5245,0.0,0.0,0.0,0.0,0.0,0.0,0.0,-2.7231,-2.7231,-2.7231,-2.7231,-2.7231,-2.7231,-2.7231,-2.7231,0.0,0.0,-2.7464,-2.7615,-2.7615,-2.7788,-2.8042,-2.7962,0.0,0.0,0.0,0.0,0.0,0.0,0.0,0.0,0.0,0.0,0.0,0.0,0.0,0.0,0.0,0.0,0.0,0.0,0.0,0.0,-2.7962,-2.7962,-2.7962,-2.7962,-2.8271,-2.8712,-2.9303,-3.0063,-3.0745,0.0,-3.1896,-3.1969,-3.1809,-3.2475,-3.3016,-3.3326,-3.3326,-3.3326,-3.3326,-3.3326,-3.2931,-3.239,-3.239,-3.1942,-3.1429,-3.1429,-3.1429,-3.1429,0.0,0.0,0.0,0.0,0.0,0.0,0.0,0.0,0.0,0.0,0.0,0.0,0.0,0.0,0.0,0.0,0.0,0.0,0.0,0.0,0.0,-1.5721,-1.6087,-1.6473,-1.6872,-1.7207,-1.7472,-1.7619,-1.8422,-1.9222,-2.0107,-2.0654,-2.142,-2.2329,-2.3351,-2.4223,-2.4935,-2.5187,-2.5429,-2.5635,-2.5394,-2.5153,-2.4981,-2.5474,-2.583,-2.614,-2.6645,0.0,0.0,0.0,0.0,0.0,0.0,0.0,-2.7231,-2.7231,-2.7231,-2.7231,-2.7231,0.0,0.0,-2.7231,0.0,-2.7371,-2.7371,-2.7464,-2.7557,0.0,0.0,0.0,0.0,0.0,0.0,0.0,0.0,0.0,0.0,0.0,0.0,0.0,0.0,0.0,0.0,0.0,0.0,0.0,0.0,-2.7638,-2.7708,-2.7708,-2.7708,-2.7708,-2.803,-2.8339,-2.8633,-2.9238,-2.9756,-3.0203,-3.0519,-3.0683,-3.0683,-3.1502,-3.1942,-3.2187,-3.2547,-3.2475,-3.2187,-3.2547,-3.2245,-3.1563,-3.1563,-3.1267,-3.0895,-3.0895,-3.0895,-3.0895,0.0,0.0,0.0,0.0,0.0,0.0,0.0,0.0,0.0,0.0,0.0,0.0,0.0,0.0,0.0,0.0,0.0,0.0,0.0,0.0,0.0,-1.5613,-1.5842,-1.6061,-1.6132,-1.6733,-1.6793,-1.6272,-1.6945,-1.8125,-1.9767,-2.0304,-2.1325,-2.2639,-2.364,-2.4682,-2.5716,-2.5807,-2.6083,-2.6427,-2.6014,-2.5784,-2.5761,-2.6267,-2.6462,-2.6531,-2.7047,-2.7231,-2.7231,-2.7231,0.0,0.0,0.0,0.0,-2.7231,-2.7231,-2.7231,-2.7231,-2.7231,0.0,-2.7231,-2.7231,-2.7231,0.0,-2.7231,-2.7231,-2.7231,0.0,0.0,0.0,0.0,0.0,0.0,0.0,0.0,0.0,0.0,0.0,0.0,0.0,0.0,0.0,0.0,0.0,0.0,0.0,0.0,-2.7301,-2.7441,-2.7441,-2.7441,-2.7441,-2.8018,-2.8191,-2.8018,-2.8633,-2.8937,-2.8937,-2.9015,-2.9172,-2.9471,-3.0152,-3.0519,-3.0895,-3.1563,-3.1489,-3.097,-3.1636,-3.1415,-3.067,-3.067,-3.0594,-3.0519,-3.0519,-3.0519,-3.0519,0.0,0.0,0.0,0.0,0.0,0.0,0.0,0.0,0.0,0.0,0.0,0.0,0.0,0.0,0.0,0.0,0.0,0.0,-1.4637,0.0,0.0,-1.4776,-1.4776,-1.4991,-1.5346,-1.5409,-1.57,-1.6132,-1.6536,-1.726,-1.8325,-1.9027,-2.0391,-2.2336,-2.3315,-2.4457,-2.5739,-2.6175,-2.6404,-2.6462,-2.6393,-2.6106,-2.5761,-2.6267,-2.6462,-2.6531,-2.7047,-2.7231,-2.7231,-2.7231,-2.7231,0.0,0.0,0.0,-2.7231,-2.7231,-2.7231,-2.7231,0.0,0.0,-2.7231,0.0,-2.7231,-2.7231,0.0,0.0,0.0,0.0,0.0,0.0,0.0,0.0,0.0,0.0,0.0,0.0,0.0,0.0,0.0,0.0,0.0,0.0,0.0,0.0,0.0,0.0,-2.7231,-2.7231,-2.7219,-2.7219,-2.7219,-2.7219,-2.7313,-2.7394,-2.7301,-2.8018,-2.8327,-2.8327,-2.8498,-2.8578,-2.8657,-2.8419,-2.9172,-3.0683,-3.0758,-3.082,-3.0895,-3.1044,-3.0594,-2.9845,-2.9845,-2.9394,-2.8803,-2.8803,-2.8803,-2.8803,0.0,0.0,0.0,0.0,0.0,0.0,0.0,0.0,0.0,0.0,0.0,0.0,0.0,0.0,0.0,-1.4731,-1.4639,-1.4517,-1.4316,-1.4482,-1.4497,-1.4346,-1.4497,-1.4713,-1.4848,-1.5062,-1.5446,-1.5961,-1.634,-1.6937,-1.7884,-1.8197,-1.9408,-2.124,-2.2397,-2.3317,-2.4126,-2.5256,-2.5621,-2.5452,-2.5946,-2.565,-2.5087,-2.5294,-2.537,-2.5402,-2.5619,-2.5695,-2.5695,-2.5695,-2.5695,-2.5695,-2.5695,0.0,0.0,0.0,-2.6445,0.0,-2.7056,-2.7231,-2.7231,0.0,-2.7231,-2.7231,-2.7231,0.0,0.0,0.0,0.0,0.0,0.0,0.0,0.0,0.0,0.0,0.0,0.0,0.0,0.0,0.0,0.0,0.0,0.0,0.0,0.0,0.0,-2.7231,-2.7231,-2.7231,-2.7231,-2.7231,-2.7231,-2.7231,-2.7231,-2.7231,-2.7464,-2.7626,-2.7626,-2.7708,-2.7788,-2.7788,-2.7557,-2.8167,-2.9316,-2.9768,-2.9768,-2.9549,-3.0075,-2.9781,-2.904,-2.904,-2.8803,-2.851,-2.851,-2.851,-2.851,0.0,0.0,0.0,0.0,0.0,0.0,0.0,0.0,0.0,0.0,0.0,0.0,0.0,0.0,0.0,0.0,-1.4305,-1.3995,-1.3528,-1.384,-1.3985,-1.3695,-1.4137,-1.4353,-1.4497,-1.4856,-1.5259,-1.5766,-1.6245,-1.6927,-1.7718,-1.7813,-1.8533,-1.984,-2.1202,-2.2139,-2.2655,-2.4129,-2.4492,-2.4322,-2.5104,-2.4988,-2.4498,-2.4498,-2.4498,-2.4498,-2.4498,-2.4498,-2.4498,-2.4402,-2.4402,-2.4402,-2.4317,-2.4402,0.0,0.0,0.0,0.0,0.0,0.0,-2.7149,-2.7056,-2.7138,-2.7231,0.0,0.0,0.0,0.0,0.0,0.0,0.0,0.0,0.0,0.0,0.0,0.0,0.0,0.0,0.0,0.0,0.0,0.0,0.0,0.0,0.0,0.0,-2.7231,-2.7231,-2.7231,-2.7231,-2.7231,-2.7231,-2.7231,-2.7231,-2.7231,-2.7231,-2.7231,-2.7231,-2.7231,-2.7231,-2.7231,-2.7231,-2.7464,-2.8087,-2.8688,-2.87,-2.8498,-2.9106,-2.9028,-2.851,-2.851,-2.851,-2.851,-2.851,-2.851,-2.851,0.0,0.0,0.0,0.0,0.0,0.0,0.0,0.0,0.0,0.0,0.0,0.0,-1.4058,-1.4138,-1.4011,-1.3765,-1.3433,-1.2858,-1.1922,-1.2378,-1.2673,-1.2673,-1.3266,0.0,-1.4129,-1.4362,-1.4911,-1.5766,-1.6442,-1.7033,-1.7553,-1.7843,-1.8006,-1.8175,-2.0,-2.1242,-2.2038,-2.2909,-2.3461,-2.37,-2.4047,-2.4317,-2.4498,-2.4498,-2.4498,-2.4498,-2.4498,-2.4498,-2.4498,-2.4221,-2.4135,-2.4125,-2.3932,-2.3943,-2.4125,0.0,0.0,0.0,0.0,-2.688,0.0,-2.6622,0.0,0.0,0.0,0.0,0.0,0.0,0.0,0.0,0.0,0.0,0.0,0.0,0.0,0.0,0.0,0.0,0.0,0.0,0.0,0.0,0.0,0.0,0.0,0.0,-2.7231,-2.7231,-2.7231,-2.7231,-2.7231,-2.7231,-2.7231,-2.7231,-2.7231,-2.7231,-2.7231,-2.7231,-2.7231,-2.7231,-2.7231,-2.7231,-2.7301,-2.7522,-2.7592,-2.7834,-2.8259,-2.8259,-2.8339,-2.851,-2.851,-2.851,-2.851,-2.851,-2.851,-2.851,0.0,0.0,0.0,0.0,0.0,0.0,0.0,0.0,0.0,0.0,0.0,0.0,0.0,-1.3729,-1.3467,-1.2478,-1.1822,-1.1384,-1.1118,-1.2037,-1.257,-1.2685,-1.3641,-1.4197,-1.4342,-1.4668,-1.5065,-1.5685,-1.6166,-1.6795,-1.7443,-1.7577,-1.7716,-1.8049,-1.8887,-1.9488,-2.0098,-2.1374,-2.1777,-2.1654,-2.266,-2.2746,-2.2217,0.0,0.0,0.0,0.0,0.0,0.0,-2.2129,-2.2129,-2.2129,-2.2031,-2.2031,-2.2208,-2.2736,-2.3932,0.0,0.0,0.0,0.0,-2.5495,-2.5421,-2.5421,0.0,0.0,0.0,0.0,0.0,0.0,0.0,0.0,0.0,0.0,0.0,0.0,0.0,0.0,0.0,0.0,0.0,0.0,0.0,0.0,0.0,0.0,0.0,-2.7231,-2.7231,-2.7231,-2.7231,-2.7231,-2.7231,-2.7231,-2.7231,-2.7231,-2.7231,-2.7231,-2.7231,-2.7231,-2.7231,-2.7231,-2.7219,-2.7301,-2.7301,-2.7615,-2.8179,-2.8179,-2.8339,-2.851,-2.851,-2.851,-2.851,-2.851,-2.851,-2.851,0.0,0.0,0.0,0.0,0.0,0.0,0.0,0.0,0.0,0.0,0.0,0.0,0.0,0.0,-1.2539,-1.1433,-1.0537,-1.0119,-1.0284,-1.1143,-1.1769,-1.1786,-1.2765,-1.3488,-1.3895,-1.4116,-1.4668,-1.5583,-1.5895,-1.6389,-1.7147,-1.731,-1.7554,-1.7797,-1.825,-1.8542,-1.8789,0.0,0.0,-2.0288,0.0,0.0,-2.0997,0.0,0.0,0.0,0.0,0.0,0.0,0.0,0.0,0.0,-2.0817,-2.0727,-2.0997,-2.2041,-2.3076,0.0,-2.419,0.0,0.0,0.0,0.0,-2.4211,0.0,0.0,0.0,0.0,0.0,0.0,0.0,0.0,0.0,0.0,0.0,0.0,0.0,0.0,0.0,0.0,0.0,0.0,0.0,0.0,0.0,0.0,0.0,0.0,-2.7231,-2.7231,-2.7231,-2.7231,-2.7231,-2.7231,-2.7231,-2.7231,-2.7231,-2.7231,-2.7231,-2.7231,-2.7231,-2.7231,-2.7231,-2.7231,-2.7231,-2.7464,-2.8007,-2.8018,-2.8191,-2.8431,-2.851,-2.851,-2.851,-2.851,-2.851,-2.851,0.0,0.0,0.0,0.0,0.0,0.0,0.0,0.0,0.0,-1.0617,0.0,0.0,0.0,0.0,0.0,-1.0478,-0.9682,-0.9159,-0.9164,-0.9725,-1.0126,-1.0136,-1.0692,-1.1576,-1.2705,-1.2705,-1.3646,-1.5591,-1.5591,-1.6002,-1.6648,-1.7147,-1.74,-1.7425,-1.8178,-1.8391,-1.8036,0.0,-1.9359,-1.9582,0.0,-2.0826,-2.0997,0.0,0.0,0.0,-2.0997,-2.0997,0.0,-2.0736,0.0,0.0,0.0,-2.0292,-2.0555,-2.1961,-2.2129,0.0,0.0,0.0,0.0,0.0,0.0,0.0,0.0,0.0,0.0,0.0,0.0,0.0,0.0,0.0,0.0,0.0,0.0,0.0,0.0,0.0,0.0,0.0,0.0,0.0,0.0,0.0,0.0,0.0,-2.7231,-2.7231,-2.7231,-2.7231,-2.7231,-2.7231,-2.7231,-2.7231,-2.7231,-2.7231,-2.7231,-2.7231,-2.7231,-2.7231,-2.7231,-2.7231,-2.7231,-2.7231,-2.7231,-2.7301,-2.7522,-2.7788,-2.8042,-2.8259,-2.8431,-2.851,-2.851,-2.851,-2.851,-2.851,0.0,0.0,0.0,0.0,0.0,0.0,0.0,0.0,-0.9685,0.0,0.0,0.0,-1.0214,-0.9764,-0.9332,-0.9152,-0.8638,-0.84,-0.8539,-0.9456,-1.01,-1.0259,-1.1191,-1.2284,-1.338,-1.338,-1.4096,-1.5464,-1.5464,-1.5749,-1.6252,-1.6417,-1.6716,-1.7287,-1.787,-1.8171,-1.8362,-1.9194,0.0,-1.9712,-2.0185,-2.0464,0.0,0.0,0.0,0.0,0.0,-2.0464,-2.0473,0.0,-2.0382,-2.0382,0.0,0.0,-2.0382,-2.0727,-2.1177,0.0,-2.1784,0.0,0.0,0.0,0.0,0.0,0.0,0.0,0.0,0.0,0.0,0.0,0.0,0.0,0.0,0.0,0.0,0.0,0.0,0.0,0.0,0.0,0.0,0.0,0.0,0.0,0.0,0.0,-2.7231,-2.7231,-2.7231,-2.7231,-2.7231,-2.7231,-2.7231,-2.7231,-2.7231,-2.7231,-2.7231,-2.7231,-2.7231,-2.7231,-2.7231,-2.7231,-2.7231,-2.7231,-2.7231,-2.7231,-2.7301,-2.7534,-2.7857,-2.8179,-2.8259,-2.8351,-2.851,-2.851,-2.851,-2.851,0.0,0.0,0.0,0.0,0.0,0.0,-0.9163,-0.9045,-0.9045,0.0,0.0,0.0,-0.9592,-0.9082,-0.8708,-0.8708,-0.8451,-0.8292,-0.8398,-0.9086,-0.9475,-0.9589,-1.0193,-1.1225,-1.251,-1.2409,-1.3084,-1.458,-1.4698,-1.4954,-1.5409,-1.6065,-1.6576,-1.6939,0.0,0.0,0.0,0.0,0.0,0.0,-2.0146,0.0,0.0,-2.0292,-2.0292,0.0,0.0,0.0,-2.0292,-2.0292,-2.0292,0.0,0.0,0.0,0.0,0.0,0.0,0.0,0.0,0.0,0.0,0.0,0.0,0.0,-2.0374,-2.0736,0.0,0.0,0.0,0.0,0.0,0.0,0.0,0.0,0.0,0.0,0.0,0.0,0.0,0.0,0.0,0.0,0.0,-2.5946,-2.6196,-2.688,-2.688,-2.6974,-2.7149,-2.7231,-2.7231,-2.7231,-2.7231,-2.7231,-2.7231,-2.7231,-2.7231,-2.7231,-2.7231,-2.7231,-2.7231,-2.7231,-2.7231,-2.7231,-2.7231,-2.7231,-2.7231,-2.729,-2.7615,-2.7926,-2.803,-2.8111,-2.8283,-2.8339,-2.8339,-2.8431,0.0,0.0,0.0,-0.8328,-0.8365,-0.8431,-0.8708,-0.866,-0.8581,0.0,-0.8675,-0.8997,-0.9091,-0.8954,-0.8904,-0.8904,-0.8727,-0.8568,-0.8568,-0.8568,-0.8568,-0.8568,-0.8568,-0.9345,-1.0895,-1.0609,-1.1449,-1.3307,-1.3745,-1.4096,-1.4453,-1.5882,-1.6581,-1.6642,0.0,0.0,0.0,0.0,0.0,-1.9652,-2.0073,-2.0292,0.0,0.0,-2.0292,-2.0201,-2.0201,-2.0201,-2.011,-2.011,-2.011,0.0,0.0,0.0,0.0,0.0,-2.0292,0.0,0.0,0.0,0.0,0.0,0.0,0.0,-2.0292,-2.0292,-2.0292,0.0,0.0,0.0,0.0,0.0,0.0,0.0,0.0,0.0,0.0,0.0,0.0,0.0,0.0,0.0,-2.5115,-2.52,-2.5527,-2.6362,-2.6445,-2.6704,-2.7056,-2.7149,-2.7231,-2.7231,-2.7231,-2.7231,-2.7231,-2.7231,-2.7231,-2.7231,-2.7231,-2.7231,-2.7231,-2.7231,-2.7231,-2.7231,-2.7231,-2.7231,-2.7231,-2.7231,-2.7301,-2.7522,-2.7788,-2.7881,-2.7881,-2.8111,-2.8179,-2.8259,0.0,0.0,0.0,-0.8116,-0.8125,-0.834,-0.8852,-0.864,-0.8475,-0.8513,-0.8508,-0.8451,-0.8484,-0.8574,-0.8686,-0.8686,-0.8636,-0.8568,-0.8568,-0.8568,-0.8568,-0.8568,-0.8568,-0.917,-1.0448,-1.0403,-1.1171,-1.2851,-1.3709,-1.4349,-1.4854,-1.5951,-1.6595,-1.6854,0.0,0.0,0.0,0.0,0.0,-1.9007,-1.9894,0.0,-2.0292,-2.0292,-2.0102,-1.9737,-1.9737,-1.9463,-1.9104,-1.9104,-1.9104,-1.9104,0.0,0.0,0.0,0.0,0.0,0.0,0.0,0.0,0.0,0.0,0.0,0.0,-2.0292,-2.0292,-2.0292,0.0,0.0,0.0,0.0,0.0,0.0,0.0,0.0,0.0,0.0,0.0,0.0,0.0,0.0,0.0,-2.5115,-2.52,-2.5454,-2.5979,-2.629,-2.6528,-2.661,-2.6974,-2.7231,-2.7231,-2.7231,-2.7231,-2.7231,-2.7231,-2.7231,-2.7231,-2.7231,-2.7231,-2.7231,-2.7231,-2.7231,-2.7231,-2.7231,-2.7231,-2.7231,-2.7231,-2.7301,-2.7522,-2.7522,-2.7708,-2.7893,-2.7962,-2.803,-2.8179,0.0,0.0,0.0,0.0,-0.7928,-0.8179,-0.8434,-0.8367,-0.8273,-0.8463,-0.8487,-0.843,-0.843,-0.8511,-0.8601,-0.8686,-0.8694,-0.8731,-0.8828,-0.8832,-0.8832,-0.8832,-0.8832,-0.9186,-1.0069,-1.0069,-1.0602,-1.1577,-1.2411,-1.3278,-1.4179,-1.5183,-1.614,0.0,0.0,0.0,0.0,0.0,-1.855,-1.8827,-1.9379,0.0,-1.9563,-1.9563,-1.9371,-1.9188,-1.9188,-1.9012,-1.8827,-1.8827,-1.8827,0.0,0.0,-1.9012,-1.9188,0.0,-1.9371,-1.9563,0.0,0.0,0.0,-1.992,0.0,0.0,0.0,-1.992,-1.992,0.0,0.0,0.0,0.0,0.0,0.0,0.0,0.0,0.0,0.0,0.0,0.0,0.0,0.0,0.0,-2.4348,-2.4615,-2.5041,-2.5549,-2.5968,-2.629,-2.6528,-2.6704,-2.6974,-2.7231,-2.7231,-2.7231,-2.7231,-2.7231,-2.7231,-2.7231,-2.7231,-2.7231,-2.7231,-2.7231,-2.7231,-2.7231,-2.7231,-2.7231,-2.7231,-2.7231,-2.7219,-2.7371,-2.7371,-2.7464,-2.7557,-2.7626,-2.7777,-2.7846,-0.6247,0.0,0.0,0.0,-0.7508,-0.7859,-0.7978,-0.7986,-0.813,-0.8231,-0.8384,-0.8564,-0.8564,0.0,0.0,0.0,-0.8852,-0.8938,0.0,0.0,-0.9096,-0.9096,-0.9096,-0.9283,-0.9647,-0.9651,-0.9926,-1.0385,-1.1246,-1.2183,-1.3288,-1.4377,0.0,0.0,0.0,0.0,0.0,0.0,0.0,-1.855,0.0,-1.8643,-1.8827,-1.8827,-1.8735,-1.8643,-1.855,-1.855,-1.855,-1.855,-1.855,-1.855,-1.855,-1.855,0.0,0.0,0.0,0.0,0.0,0.0,0.0,0.0,0.0,-1.9463,0.0,0.0,0.0,0.0,0.0,0.0,0.0,0.0,0.0,0.0,0.0,0.0,0.0,0.0,0.0,0.0,0.0,0.0,0.0,-2.4114,-2.4607,-2.5031,-2.5378,-2.587,-2.6362,-2.6445,-2.6704,-2.7149,-2.7231,-2.7231,-2.7231,-2.7231,-2.7231,-2.7231,-2.7231,-2.7231,-2.7231,-2.7231,-2.7231,-2.7231,-2.7231,-2.7231,-2.7231,-2.7231,-2.7231,-2.7231,-2.7231,-2.7231,-2.7231,-2.7371,-2.7441,-2.7522,-0.4568,-0.5157,0.0,0.0,-0.6675,0.0,0.0,0.0,-0.8239,-0.8237,-0.8189,0.0,0.0,0.0,0.0,0.0,0.0,0.0,-0.9096,0.0,0.0,-0.9096,-0.9096,-0.9096,-0.9189,-0.9189,-0.9372,-0.9926,-1.1298,-1.2334,-1.2918,-1.4395,0.0,0.0,-1.6271,0.0,0.0,0.0,-1.7419,0.0,-1.7512,-1.7986,0.0,-1.8827,-1.855,-1.8087,-1.7613,-1.7512,-1.7512,0.0,-1.7512,-1.7512,0.0,-1.78,-1.8179,-1.8179,0.0,0.0,0.0,0.0,0.0,0.0,-1.892,0.0,0.0,0.0,0.0,-1.9463,0.0,-1.9828,-2.0201,0.0,0.0,0.0,0.0,0.0,0.0,0.0,0.0,0.0,0.0,0.0,0.0,-2.4103,-2.4115,-2.4509,-2.465,-2.5002,-2.5957,-2.629,-2.6704,-2.7149,-2.7231,-2.7231,-2.7231,-2.7231,-2.7231,-2.7231,-2.7231,-2.7231,-2.7231,-2.7231,-2.7231,-2.7231,-2.7231,-2.7231,-2.7231,-2.7231,-2.7231,-2.7231,-2.7231,-2.7231,-2.7231,-2.7231,-2.7371,-2.7522,-0.3781,-0.44,0.0,0.0,0.0,0.0,0.0,0.0,0.0,0.0,0.0,0.0,0.0,0.0,0.0,0.0,0.0,-0.9291,0.0,0.0,0.0,0.0,0.0,0.0,-0.9405,-0.9405,-0.9501,-0.969,-1.0338,-1.1144,-1.2107,-1.3069,0.0,0.0,-1.59,0.0,-1.6662,0.0,-1.7326,0.0,0.0,0.0,0.0,-1.7893,-1.78,-1.7613,-1.7419,-1.7326,-1.7326,0.0,-1.7326,0.0,0.0,0.0,0.0,0.0,0.0,0.0,0.0,0.0,0.0,0.0,0.0,0.0,-1.8365,0.0,-1.8458,0.0,0.0,0.0,0.0,0.0,0.0,0.0,-2.0189,0.0,0.0,0.0,0.0,0.0,0.0,0.0,0.0,0.0,0.0,0.0,-2.3888,-2.4225,-2.5448,-2.5634,-2.6177,-2.7138,-2.7231,-2.7231,-2.7231,-2.7231,-2.7231,-2.7231,-2.7231,-2.7231,-2.7231,-2.7231,-2.7231,-2.7231,-2.7231,-2.7231,-2.7231,-2.7231,-2.7231,-2.7231,-2.7231,-2.7231,-2.7231,-2.7231,-2.7219,-2.729,-0.2941,0.0,0.0,0.0,0.0,0.0,0.0,0.0,0.0,0.0,0.0,0.0,-0.8426,-0.8566,0.0,0.0,-0.9401,-0.9486,0.0,0.0,-0.9628,0.0,0.0,0.0,0.0,-0.9628,-0.9628,-0.9628,-0.9723,-1.031,-1.1277,-1.1955,0.0,0.0,0.0,-1.5609,-1.5994,0.0,-1.685,-1.7044,-1.7044,-1.7044,-1.7044,-1.7232,-1.7326,-1.7326,-1.7326,-1.7326,-1.7326,-1.7326,-1.7326,0.0,-1.7326,0.0,0.0,0.0,0.0,0.0,-1.7326,0.0,0.0,0.0,0.0,0.0,0.0,0.0,0.0,0.0,0.0,0.0,0.0,0.0,-1.943,0.0,0.0,-1.994,0.0,0.0,0.0,0.0,0.0,0.0,0.0,0.0,0.0,0.0,0.0,-2.3517,-2.4773,-2.4751,-2.5235,-2.6419,-2.6389,-2.6373,-2.6467,-2.6467,-2.6467,-2.6467,-2.6467,-2.6467,-2.6467,-2.6467,-2.6467,-2.6467,-2.6467,-2.6467,-2.6467,-2.6467,-2.6467,-2.6467,-2.6467,-2.6467,-2.655,-2.6974,-2.7231,-2.7231,-0.1569,-0.1908,0.0,0.0,0.0,0.0,0.0,0.0,0.0,0.0,0.0,0.0,0.0,0.0,0.0,0.0,0.0,-0.962,-0.9628,0.0,-0.9628,0.0,0.0,-0.9628,0.0,0.0,-0.9628,-0.9628,-1.0117,-1.0413,-1.0507,0.0,0.0,0.0,-1.2926,-1.4076,-1.5406,-1.5406,-1.5798,-1.6285,-1.6285,-1.6285,-1.6285,0.0,-1.7326,-1.7326,-1.7326,0.0,0.0,-1.7326,-1.7326,0.0,0.0,0.0,0.0,0.0,0.0,0.0,0.0,0.0,0.0,-1.7326,0.0,0.0,0.0,0.0,-1.7426,0.0,0.0,0.0,0.0,0.0,0.0,0.0,0.0,0.0,0.0,0.0,0.0,0.0,0.0,0.0,0.0,0.0,0.0,0.0,0.0,0.0,-2.3775,-2.3659,-2.3909,-2.4591,-2.4335,-2.4307,-2.4584,-2.4584,-2.4584,-2.4584,-2.4584,-2.4584,-2.4584,-2.4584,-2.4584,-2.4584,-2.4584,-2.4584,-2.4584,-2.4584,-2.4584,-2.4584,-2.4584,-2.4584,-2.484,-2.655,-2.7231,-2.7231,0.0,0.0,0.0,0.0,0.0,0.0,0.0,-0.3364,0.0,0.0,0.0,0.0,0.0,-0.6246,-0.6764,0.0,0.0,-0.8322,-0.9023,-0.9027,0.0,0.0,0.0,-0.943,0.0,0.0,-0.9628,-0.9628,-0.9821,-0.9821,-0.992,0.0,0.0,0.0,0.0,-1.3017,0.0,0.0,0.0,0.0,0.0,-1.5432,-1.5527,0.0,0.0,-1.7326,-1.7326,-1.7326,0.0,-1.7326,-1.7326,-1.7326,-1.7326,-1.7326,-1.7326,-1.7326,-1.7326,0.0,0.0,0.0,-1.7326,-1.7326,0.0,0.0,0.0,0.0,0.0,0.0,0.0,0.0,0.0,0.0,0.0,0.0,0.0,0.0,0.0,0.0,0.0,0.0,0.0,0.0,0.0,0.0,0.0,0.0,-2.0917,0.0,-2.209,-2.21,-2.2523,-2.3608,-2.351,-2.3744,-2.4221,-2.4221,-2.4317,-2.4498,-2.4498,-2.4498,-2.4498,-2.4498,-2.4498,-2.4498,-2.4498,-2.4498,-2.4498,-2.4498,-2.4498,-2.4498,-2.4498,-2.4498,-2.4584,-2.5179,-2.5432,-2.5516,-0.1542,0.0,0.0,0.0,0.0,0.0,0.0,0.0,0.0,0.0,-0.3796,0.0,-0.5027,0.0,-0.5529,0.0,-0.6623,-0.712,-0.8124,-0.8223,0.0,-0.9031,-0.9031,0.0,0.0,0.0,0.0,-0.9628,-0.9628,-0.9628,-0.9628,0.0,0.0,0.0,0.0,-1.1955,-1.2635,0.0,-1.3596,0.0,0.0,-1.389,0.0,0.0,-1.5514,-1.6473,0.0,-1.6473,-1.6473,-1.6473,-1.6473,-1.6473,-1.6473,-1.6473,-1.6473,-1.6473,-1.6669,-1.6951,-1.6951,-1.7138,0.0,-1.7326,-1.7326,0.0,-1.7326,0.0,0.0,0.0,0.0,0.0,0.0,0.0,0.0,0.0,0.0,0.0,0.0,-1.7007,0.0,0.0,0.0,0.0,0.0,0.0,0.0,-2.0,-1.9986,-2.0175,0.0,0.0,-2.1091,-2.1963,-2.2032,-2.2331,-2.2785,-2.293,-2.3096,-2.3377,-2.3377,-2.3464,-2.3454,-2.3454,-2.3454,-2.3454,-2.3454,-2.3454,-2.3454,-2.3454,-2.3454,-2.3454,-2.3454,-2.3454,-2.3551,-2.4241,-2.4498,-2.4659,0.0,0.0,0.0,0.0,-0.1554,0.0,0.0,0.0,-0.1918,0.0,-0.3123,-0.3524,-0.4524,-0.4826,-0.5029,-0.5129,-0.5325,-0.5924,-0.7021,-0.712,0.0,0.0,-0.8623,-0.8726,-0.9133,0.0,0.0,0.0,-0.9628,-0.9628,-0.9628,0.0,0.0,0.0,-1.0117,0.0,-1.1565,-1.1565,-1.1853,-1.2145,-1.1482,-1.1575,-1.2242,-1.2242,-1.3307,-1.4956,-1.5051,-1.5051,-1.5051,-1.5051,-1.5051,-1.5051,-1.5051,-1.5051,-1.5051,-1.5051,-1.5622,-1.619,-1.619,-1.6662,-1.7232,-1.7232,0.0,0.0,0.0,0.0,-1.7232,0.0,0.0,0.0,0.0,0.0,0.0,0.0,0.0,0.0,0.0,0.0,0.0,0.0,0.0,0.0,0.0,0.0,-1.8922,-1.8922,-1.9441,-1.9825,0.0,0.0,-1.9543,-1.9807,-2.0004,-2.0167,-2.0447,-2.0811,-2.1096,-2.1392,-2.1392,-2.1482,-2.1642,-2.1642,-2.1642,-2.1642,-2.1642,-2.1642,-2.1651,-2.1651,-2.1651,-2.1741,-2.1741,-2.1741,-2.1909,-2.3714,-2.4413,-2.4573,-0.1003,-0.1209,-0.1309,0.0,-0.15,-0.1608,0.0,0.0,0.0,0.0,-0.2019,-0.212,-0.2422,-0.2522,-0.2823,-0.3626,-0.3825,0.0,0.0,0.0,0.0,-0.6126,-0.6126,-0.6625,-0.7723,-0.7922,0.0,-0.9331,0.0,0.0,-0.9628,0.0,0.0,0.0,0.0,0.0,-1.0699,-1.0699,-1.0993,-1.1482,-1.1292,-1.1292,0.0,0.0,-1.177,-1.2355,-1.3986,-1.4465,-1.4561,-1.4956,-1.5051,-1.5051,-1.5051,-1.5051,-1.5051,-1.5051,-1.5242,-1.5337,-1.5337,-1.5527,-1.5622,-1.5622,-1.5622,-1.5622,0.0,0.0,0.0,0.0,0.0,0.0,0.0,0.0,0.0,0.0,0.0,0.0,0.0,0.0,0.0,-1.6252,0.0,0.0,0.0,-1.7959,-1.8282,-1.8282,-1.8434,-1.8505,-1.8505,0.0,0.0,-1.8902,-1.9229,-1.9713,-2.0175,-2.0552,-2.0916,-2.1096,-2.1096,-2.1096,-2.1177,-2.1177,-2.1177,-2.1177,-2.1177,-2.1275,-2.1482,-2.1482,-2.1571,-2.1741,-2.1741,-2.1741,-2.1731,-2.2255,-2.2853,-2.3531,-0.0808,0.0,0.0,-0.101,0.0,0.0,-0.1617,-0.1617,0.0,-0.1617,-0.1617,0.0,-0.1617,-0.1617,-0.1818,-0.2421,-0.2521,0.0,-0.4024,0.0,0.0,-0.5027,-0.5027,-0.5427,-0.6326,-0.6924,0.0,-0.8524,0.0,0.0,-0.9628,0.0,0.0,0.0,0.0,-0.9727,-1.0019,-1.0019,-1.0216,-1.0507,-1.0507,0.0,0.0,-1.0507,-1.0507,-1.0703,-1.2052,-1.2732,-1.3022,-1.3318,-1.3414,-1.3414,-1.3414,-1.3607,-1.3709,-1.3709,-1.4094,-1.4573,-1.4573,-1.486,-1.5051,-1.5051,-1.5051,-1.5051,-1.5051,-1.5432,-1.5717,0.0,0.0,0.0,0.0,0.0,0.0,0.0,0.0,0.0,0.0,0.0,0.0,0.0,-1.6004,0.0,0.0,-1.7392,-1.7716,-1.7716,-1.7878,-1.804,0.0,0.0,0.0,-1.834,-1.8888,-1.9359,-1.9661,-2.0295,-2.0645,-2.0916,-2.0916,-2.0907,-2.0997,-2.0997,-2.0997,-2.0997,-2.0997,-2.1096,-2.1195,-2.1195,-2.1284,-2.1365,-2.1365,-2.1463,-2.1571,-2.1571,-2.1998,-2.2589,-0.0707,0.0,0.0,0.0,0.0,0.0,0.0,-0.1516,0.0,-0.1617,0.0,-0.1623,-0.1623,-0.1626,-0.1628,-0.1628,0.0,-0.2027,-0.2933,-0.3027,-0.3423,-0.4325,-0.4423,-0.4526,-0.4929,-0.5927,-0.6725,0.0,0.0,0.0,0.0,0.0,0.0,0.0,0.0,0.0,0.0,-0.9628,-0.9628,-0.9628,-0.9628,-0.9628,-0.9628,-0.9628,-0.9628,-0.9628,-1.0117,-1.0609,-1.1096,-1.1198,-1.1194,-1.1194,-1.1194,-1.1487,-1.1883,-1.1883,-1.2651,-1.3516,-1.3613,-1.419,-1.4669,-1.4765,-1.4765,-1.4765,-1.4765,-1.486,-1.4956,-1.4956,-1.5051,-1.5337,0.0,0.0,0.0,0.0,0.0,0.0,0.0,0.0,0.0,0.0,0.0,0.0,0.0,0.0,-1.731,-1.7392,-1.7716,-1.7959,0.0,0.0,0.0,-1.804,-1.8776,-1.917,-1.917,0.0,-2.0382,-2.0654,-2.0654,-2.0736,-2.0907,-2.0907,-2.0907,-2.0907,-2.0907,-2.0907,-2.0997,-2.0997,-2.0997,-2.0997,-2.0997,-2.1096,-2.1392,-2.1392,-2.1472,-2.1722,0.0,0.0,0.0,0.0,0.0,-0.0909,-0.0909,-0.1314,-0.1617,-0.1617,-0.1639,-0.1654,-0.1654,-0.1675,-0.1689,-0.1689,-0.1668,0.0,0.0,0.0,0.0,-0.212,-0.212,-0.2622,-0.3525,-0.3922,-0.522,0.0,0.0,0.0,0.0,0.0,0.0,0.0,0.0,0.0,-0.9628,-0.9628,0.0,-0.9628,-0.9628,-0.9628,-0.9628,-0.9628,-0.9628,-0.9628,-0.9723,-1.0117,-1.0609,-1.1096,-1.1194,-1.1194,-1.1194,-1.1292,-1.1292,-1.1292,-1.1487,-1.178,-1.217,-1.2462,-1.2657,-1.305,-1.3244,-1.3244,-1.3244,-1.3715,-1.4094,-1.4094,-1.4669,-1.5146,-1.5242,0.0,0.0,0.0,0.0,0.0,0.0,0.0,0.0,0.0,0.0,-1.5808,0.0,0.0,0.0,0.0,0.0,0.0,0.0,0.0,0.0,0.0,-1.8776,0.0,0.0,0.0,-2.0292,-2.0382,-2.0382,-2.0382,-2.0374,-2.0374,-2.0374,-2.0374,-2.0374,-2.0564,-2.0736,-2.0736,-2.0826,-2.0997,-2.0997,-2.0997,-2.1087,-2.1087,-2.1087,-2.1177,0.0,0.0,0.0,0.0,0.0,0.0,0.0,-0.1121,0.0,-0.1435,-0.155,-0.1668,-0.1682,-0.1696,-0.1704,-0.1704,-0.1692,-0.1678,-0.1663,-0.1649,-0.1633,-0.1618,-0.1617,0.0,-0.2321,-0.3021,-0.4123,-0.5727,0.0,0.0,0.0,0.0,0.0,0.0,0.0,-0.9628,0.0,0.0,0.0,-0.9628,-0.9628,-0.9628,-0.9628,-0.9628,-0.9628,-0.9628,-0.9628,-0.9727,-1.0019,-1.0314,-1.0413,-1.0413,-1.0413,-1.0609,-1.0801,-1.0801,-1.0998,-1.1296,-1.1487,-1.1585,-1.1683,-1.2273,-1.237,-1.2467,-1.2764,-1.305,-1.3335,-1.3335,-1.3619,-1.4004,-1.4382,-1.5146,0.0,0.0,0.0,0.0,0.0,0.0,0.0,0.0,0.0,0.0,0.0,0.0,0.0,0.0,0.0,0.0,0.0,0.0,0.0,0.0,0.0,0.0,0.0,0.0,0.0,-2.0292,-2.0292,-2.0292,-2.0292,-2.0292,-2.0292,-2.0292,-2.0292,-2.0382,-2.0473,-2.0473,-2.0564,-2.0645,-2.0645,-2.0736,-2.0826,-2.0826,-2.0907,-2.1087,0.0,0.1916,0.0,0.0,0.0505,0.0,0.0101,-0.0411,-0.0935,-0.1246,-0.1568,-0.1689,-0.1712,-0.172,-0.1723,-0.1723,-0.1718,-0.1702,-0.1673,-0.1665,-0.1649,-0.1618,-0.1617,-0.1617,-0.1617,-0.2422,-0.3324,0.0,0.0,0.0,0.0,0.0,0.0,0.0,0.0,0.0,0.0,0.0,-0.9628,-0.9628,-0.9628,-0.9628,-0.9628,-0.9628,-0.9628,-0.9628,-0.9628,-0.9628,-0.9628,-0.9628,-0.9628,-0.9628,-0.9628,-0.992,-1.0216,-1.0216,-1.0511,-1.09,-1.0998,-1.0998,-1.1194,-1.1688,-1.1883,-1.2078,-1.237,-1.2565,-1.2565,-1.2467,-1.2565,-1.2856,-1.3709,-1.4382,0.0,0.0,0.0,0.0,0.0,0.0,0.0,0.0,0.0,0.0,-1.5483,0.0,0.0,0.0,0.0,0.0,0.0,0.0,0.0,0.0,0.0,-1.9213,-1.929,0.0,-2.0292,-2.0292,-2.0292,-2.0292,-2.0292,-2.0292,-2.0292,-2.0292,-2.0292,-2.0292,-2.0292,-2.0292,-2.0292,-2.0292,-2.0292,-2.0473,-2.0654,-2.0654,-2.0736,-2.0907,0.0,0.0,0.0,0.0,0.0,0.0,0.1547,0.1139,0.0415,-0.1142,-0.1601,-0.1742,-0.1745,-0.177,-0.1787,-0.1787,-0.1761,-0.1733,-0.1702,-0.1676,-0.1649,-0.1618,-0.1617,-0.1617,-0.1617,-0.1718,-0.2421,0.0,0.0,0.0,0.0,0.0,0.0,0.0,0.0,0.0,0.0,-0.9628,-0.9628,-0.9628,-0.9628,-0.9628,-0.9628,-0.9628,-0.9628,-0.9628,-0.9628,-0.9628,-0.9628,-0.9628,-0.9628,-0.9628,-0.9628,-0.9628,-0.9628,-0.9628,-0.9727,-0.9826,-1.0314,-1.0511,-1.0609,-1.1096,-1.1683,-1.1883,-1.1487,-1.1688,-1.198,-1.1487,-1.1785,-1.2462,-1.3709,-1.3998,-1.4286,0.0,0.0,0.0,0.0,0.0,0.0,0.0,0.0,0.0,0.0,-1.3728,0.0,0.0,0.0,0.0,0.0,0.0,0.0,-1.7929,0.0,-1.9341,-1.9684,-2.0086,-2.0292,-2.0292,-2.0292,-2.0292,-2.0292,-2.0292,-2.0292,-2.0292,-2.0292,-2.0292,-2.0292,-2.0292,-2.0292,-2.0292,-2.0292,-2.0292,-2.0382,-2.0382,-2.0382,-2.0374,0.0,0.0,0.0,0.0,0.0,0.0,0.0,0.253,0.1817,0.0428,-0.0758,-0.1537,-0.1553,-0.1676,-0.1795,-0.1795,-0.1784,-0.1756,-0.1707,-0.1694,-0.1667,-0.1619,-0.1617,-0.1617,-0.1617,-0.1617,-0.2019,0.0,0.0,0.0,0.0,0.0,0.0,0.0,0.0,-0.7422,-0.7723,-0.7723,-0.8124,-0.8832,-0.8832,-0.913,-0.9628,-0.9628,-0.9628,-0.9628,-0.9628,-0.9628,-0.9628,-0.9628,-0.9628,-0.9628,-0.9628,-0.9628,-0.9628,-0.9628,-0.9628,-0.9628,-0.9821,-0.992,-1.0019,-1.0605,-1.09,-1.1096,-1.1198,-1.1389,-1.1492,-1.1194,-1.1389,-1.1683,-1.2165,-1.2262,-1.2355,0.0,0.0,0.0,0.0,0.0,0.0,0.0,0.0,0.0,0.0,0.0,0.0,0.0,0.0,0.0,0.0,0.0,0.0,-1.6792,0.0,-1.7562,-1.8645,-1.8422,-1.8596,-1.9355,-1.8788,-1.8511,-1.8511,-1.8511,-1.8511,-1.8511,-1.8311,-1.8319,-1.8511,-1.9163,-1.9446,-1.9446,-2.0102,-2.0292,-2.0292,-2.0292,-2.0292,-2.0292,0.5434,0.0,0.5041,0.0,0.4305,0.4254,0.3984,0.3862,0.3277,0.2087,0.077,-0.0332,-0.112,-0.1458,-0.1683,-0.1683,-0.1795,-0.1769,-0.1708,-0.1704,-0.1678,-0.162,-0.1617,0.0,-0.1617,-0.1617,-0.1818,-0.212,-0.212,0.0,0.0,0.0,0.0,0.0,-0.5525,-0.5822,-0.6224,-0.6323,-0.6924,-0.7829,-0.8031,-0.8432,-0.8931,-0.8931,-0.9031,-0.9229,-0.9229,-0.9426,-0.9628,-0.9628,-0.9628,-0.9628,-0.9628,-0.9628,-0.9628,-0.9628,-0.9628,-0.9628,-0.9628,-0.9628,-0.9727,-1.0117,-1.0314,-1.0413,-1.0703,-1.0806,-1.0998,-1.0998,-1.0998,-1.0998,-1.1194,-1.1194,-1.1194,-1.1194,0.0,0.0,0.0,0.0,0.0,0.0,-1.3673,-1.3914,-1.3726,-1.3369,0.0,0.0,0.0,0.0,0.0,0.0,0.0,0.0,0.0,0.0,0.0,-1.6986,-1.7188,-1.8133,-1.7382,-1.7102,-1.7102,-1.7102,-1.7102,-1.7196,-1.6908,-1.6908,-1.7102,-1.7855,-1.8133,-1.8319,-1.9063,-1.9347,-1.9446,-1.9446,-1.9446,-1.9446,0.6337,0.6337,0.6374,0.6495,0.6516,0.6282,0.5312,0.5124,0.4826,0.3682,0.3243,0.2014,-0.0561,-0.1121,-0.1346,-0.1346,-0.157,-0.1769,-0.1708,-0.1704,-0.1678,0.0,0.0,-0.1617,-0.1617,-0.1617,-0.1617,-0.1617,0.0,0.0,-0.2422,0.0,-0.4429,-0.4429,-0.5225,-0.5622,-0.5622,-0.6224,-0.6423,-0.6423,-0.7033,-0.7238,-0.7238,-0.7238,-0.7733,-0.8432,-0.8432,-0.8928,-0.9628,-0.9628,-0.9628,-0.9628,-0.9628,-0.9628,-0.9628,-0.9628,-0.9628,-0.9628,-0.9628,-0.9628,-0.9628,-0.9628,-1.0019,-1.0216,-0.9727,-1.0019,-1.0413,-1.0413,-1.0413,-1.0609,-1.1096,-1.1194,-1.1194,-1.1194,0.0,0.0,0.0,0.0,0.0,0.0,-1.2268,-1.2414,-1.2409,-1.2281,0.0,0.0,0.0,0.0,0.0,0.0,0.0,-1.5324,-1.5796,0.0,-1.6532,-1.6539,-1.6539,-1.6539,-1.6539,-1.6539,-1.6539,-1.6539,-1.6626,-1.6901,-1.6626,-1.6539,-1.6539,-1.6539,-1.672,-1.6901,-1.6901,-1.7095,-1.7296,-1.7296,-1.7296,-1.7483,0.6437,0.6505,0.6573,0.6611,0.6757,0.6786,0.6426,0.6498,0.6111,0.5031,0.4698,0.4027,0.235,0.1678,0.1231,0.0,0.0112,-0.0222,0.0,-0.1072,-0.137,-0.072,-0.1322,-0.1617,-0.1617,-0.1617,-0.1617,-0.1617,0.0,0.0,0.0,-0.2321,-0.2522,-0.2522,-0.2723,-0.3124,-0.3423,-0.3624,-0.4225,-0.5127,-0.5629,-0.6129,-0.6728,-0.7036,-0.7335,-0.7537,-0.7537,-0.7736,-0.7935,-0.7935,-0.8333,-0.8832,-0.8832,-0.913,-0.9628,-0.9628,-0.9628,-0.9628,-0.9628,-0.9628,-0.9628,-0.9628,-0.9727,-0.9826,-0.9628,-0.9727,-0.9826,-0.9826,-0.9826,-0.992,-1.0117,-1.0117,-1.0117,-1.0117,-1.0413,0.0,0.0,0.0,0.0,0.0,-1.1526,-1.1621,0.0,-1.1775,0.0,0.0,0.0,0.0,0.0,0.0,0.0,0.0,-1.3701,0.0,-1.521,-1.4561,-1.4663,-1.5507,-1.4758,-1.4478,-1.4478,-1.4286,-1.4376,-1.4567,-1.428,-1.4286,-1.4478,-1.5229,-1.5507,-1.569,-1.6344,-1.672,-1.6821,-1.7001,-1.7001,-1.7095,0.6497,0.6567,0.6649,0.6741,0.6883,0.6999,0.7043,0.7108,0.6932,0.6151,0.604,0.5815,0.5031,0.4582,0.0,0.2462,0.1455,0.0887,0.0758,-0.0428,-0.1054,-0.0822,-0.1321,-0.1617,-0.1617,-0.1617,0.0,-0.1617,-0.1617,-0.1617,-0.1617,-0.1617,-0.1617,-0.1617,-0.1617,-0.1818,-0.212,-0.2321,-0.2923,-0.3726,-0.423,-0.473,-0.5229,-0.5534,-0.6034,-0.6434,-0.6434,-0.6734,-0.7238,-0.7238,-0.7534,-0.7935,-0.7935,-0.8333,-0.8829,-0.943,-0.9628,-0.9628,-0.9628,-0.9628,-0.9628,-0.9628,-0.9628,-0.9628,-0.9628,-0.9628,-0.9628,-0.9628,-0.9628,-0.9628,-0.9628,-0.9628,-0.9628,-0.9628,-0.992,-1.0117,-1.0117,0.0,0.0,0.0,0.0,0.0,0.0,-1.1485,-1.1617,0.0,0.0,0.0,0.0,0.0,0.0,-1.3188,-1.2729,0.0,-1.3896,-1.3335,-1.3431,-1.419,-1.3534,-1.3249,-1.3346,-1.3055,-1.3147,-1.3346,-1.3055,-1.305,-1.3249,-1.3908,-1.419,-1.4382,-1.4943,-1.5317,-1.5412,-1.5596,-1.5596,-1.569,0.67,0.6624,0.6706,0.0,0.6991,0.0,0.7138,0.7154,0.7154,0.7154,0.7154,0.7154,0.7154,0.7154,0.6146,0.3578,0.0,0.0,0.0,0.0106,-0.0629,-0.1318,-0.1415,-0.1516,-0.1617,-0.1617,-0.1617,-0.1617,-0.1617,-0.1617,-0.1617,-0.1617,-0.1617,-0.1617,-0.1617,-0.1617,-0.1617,-0.2119,-0.2321,-0.2422,-0.2927,-0.313,-0.313,-0.323,-0.393,-0.5029,-0.5029,-0.5832,-0.6936,-0.6936,-0.6939,-0.7036,-0.7036,-0.7138,-0.7537,-0.9031,-0.943,-0.9426,-0.9529,-0.9529,-0.9529,-0.9628,-0.9628,-0.9628,-0.9628,-0.9628,-0.9628,-0.9628,-0.9628,-0.9628,-0.9628,-0.9628,-0.9628,-0.9628,-0.9628,-0.9628,-0.9628,0.0,0.0,0.0,0.0,0.0,0.0,-1.1096,-1.1389,0.0,0.0,0.0,0.0,0.0,-1.2538,-1.2759,-1.2764,-1.2764,-1.2764,-1.2764,-1.2764,-1.2764,-1.2764,-1.2861,-1.305,-1.2861,-1.2861,-1.305,-1.2856,-1.2764,-1.2764,-1.2764,-1.2953,-1.305,-1.305,-1.3249,-1.3443,-1.3443,-1.3443,-1.363,0.0,0.0,0.7015,0.6959,0.7056,0.7124,0.7149,0.7154,0.7154,0.7154,0.7154,0.7154,0.7154,0.7154,0.693,0.6258,0.492,0.4103,0.4127,0.225,0.1158,0.0927,-0.0102,-0.101,-0.1617,-0.1617,-0.1617,-0.1617,-0.1617,-0.1617,-0.1617,-0.1617,-0.1617,-0.1617,-0.1617,-0.1617,-0.1617,-0.1717,-0.1818,-0.1818,-0.2423,-0.2623,-0.2623,-0.3029,-0.343,-0.363,-0.363,-0.3831,-0.4133,-0.4133,-0.4832,-0.5629,-0.5629,-0.6334,-0.7437,-0.8432,-0.8233,-0.8035,-0.9229,-0.913,-0.8832,-0.943,-0.9628,-0.9628,-0.9628,-0.9628,-0.9628,-0.9628,-0.9628,-0.9628,-0.9628,-0.9628,-0.9628,-0.9628,-0.9628,-0.9628,-0.9628,-0.9727,0.0,0.0,-0.992,-1.0117,-1.0507,-1.0605,-1.0806,0.0,0.0,0.0,0.0,-1.193,-1.2318,-1.2764,-1.2764,-1.2764,-1.2764,-1.2764,-1.2764,-1.2764,-1.2764,-1.2861,-1.2861,-1.2861,-1.2861,-1.2861,-1.2861,-1.2764,-1.2764,-1.2764,-1.2861,-1.2861,-1.2861,-1.2958,-1.2958,-1.3152,-1.3147,-1.3244,0.7294,0.7282,0.7387,0.7253,0.7337,0.7379,0.7265,0.7154,0.7154,0.7154,0.7154,0.7154,0.7154,0.7154,0.7154,0.7154,0.6149,0.5422,0.5076,0.3525,0.2521,0.2046,0.1013,0.0302,-0.0101,-0.0404,-0.0707,-0.101,-0.1415,-0.1617,-0.1617,-0.1617,-0.1617,-0.1617,-0.1617,-0.1617,-0.1617,-0.1617,-0.1617,-0.1617,-0.1919,-0.2019,-0.2019,-0.2323,-0.2625,-0.2826,-0.2826,-0.3027,-0.323,-0.323,-0.3731,-0.4331,-0.4331,-0.4933,-0.5934,-0.6731,-0.7033,-0.7437,-0.8233,-0.8233,-0.7932,-0.8432,-0.8531,-0.8531,-0.8531,-0.8832,-0.9031,-0.9031,-0.9327,-0.9628,-0.9628,-0.9628,-0.9628,-0.9628,-0.9628,-0.9628,-0.9628,-0.9628,0.0,-0.9628,-0.9628,-0.9727,-1.0019,-1.0019,-1.0216,-1.0801,-1.0801,0.0,-1.1194,-1.1487,-1.1883,-1.237,-1.2662,-1.2764,-1.2764,-1.2764,-1.2764,-1.2764,-1.2764,-1.2764,-1.2764,-1.2764,-1.2764,-1.2764,-1.2764,-1.2764,-1.2764,-1.2764,-1.2764,-1.2764,-1.2764,-1.2764,-1.2764,-1.2958,-1.2958,-1.2958,0.77,0.7648,0.7627,0.7671,0.7604,0.7604,0.7268,0.7265,0.7265,0.7154,0.7154,0.7154,0.7154,0.7154,0.7154,0.7154,0.6695,0.6046,0.5108,0.4568,0.3765,0.2723,0.2213,0.1811,0.1711,0.1209,0.0504,-0.0202,-0.0909,-0.1313,-0.1415,-0.1415,-0.1516,-0.1617,-0.1617,-0.1617,-0.1617,-0.1617,-0.1617,-0.1617,-0.1617,-0.1617,-0.1617,-0.1617,-0.1918,-0.2321,-0.2321,-0.2523,-0.2928,-0.2928,-0.3029,-0.313,-0.313,-0.343,-0.4033,-0.473,-0.5732,-0.6637,-0.7135,-0.7238,-0.7238,-0.7238,-0.7238,-0.7238,-0.7238,-0.7736,-0.8233,-0.8233,-0.873,-0.9229,-0.9229,-0.9229,-0.9229,-0.9229,-0.9229,-0.9229,-0.9229,0.0,-0.9426,-0.9426,-0.9529,-0.9628,-0.9628,-0.9628,-0.9821,-1.0216,-1.0314,-1.0511,-1.09,-1.0998,-1.1292,-1.178,-1.2273,-1.2565,-1.2565,-1.2565,-1.2565,-1.2667,-1.2667,-1.2764,-1.2764,-1.2764,-1.2764,-1.2764,-1.2764,-1.2764,-1.2764,-1.2764,-1.2764,-1.2764,-1.2764,-1.2764,-1.2764,-1.2764,-1.2764,-1.2861,0.7903,0.796,0.7943,0.7889,0.7937,0.7823,0.7604,0.7496,0.7493,0.7265,0.7154,0.7154,0.7154,0.7154,0.7154,0.7154,0.6958,0.6735,0.6489,0.5953,0.5231,0.4133,0.3621,0.3017,0.2315,0.1711,0.1209,0.0605,0.0504,0.0101,-0.0606,-0.0606,-0.0909,-0.1617,-0.1617,-0.1617,-0.1617,-0.1617,-0.1617,-0.1617,-0.1617,-0.1617,-0.1617,-0.1617,-0.1617,-0.1717,-0.1717,-0.1818,-0.1818,-0.1818,-0.2121,-0.2522,-0.2522,-0.2927,-0.3331,-0.343,-0.3632,-0.4334,-0.6537,-0.7238,-0.7238,-0.7238,-0.7238,-0.7238,-0.7238,-0.7335,-0.7338,-0.7338,-0.7534,-0.7537,-0.7537,-0.7537,-0.7537,-0.7537,-0.7537,-0.7537,-0.7537,0.0,-0.863,-0.863,-0.9229,-0.9628,-0.9628,-0.9628,-0.9628,-0.9727,-0.9727,-0.9727,-0.9821,-1.0314,-1.0609,-1.0609,-1.1194,-1.1487,-1.1487,-1.1487,-1.1683,-1.2078,-1.2078,-1.237,-1.2764,-1.2764,-1.2764,-1.2764,-1.2764,-1.2764,-1.2764,-1.2764,-1.2764,-1.2764,-1.2764,-1.2764,-1.2764,-1.2764,-1.2764,-1.2764,0.9246,0.91,0.8994,0.8326,0.8266,0.8156,0.7826,0.7826,0.7715,0.7493,0.7382,0.7379,0.7265,0.71,0.7062,0.7062,0.6953,0.6834,0.6711,0.6495,0.6107,0.5539,0.4929,0.4327,0.3725,0.2717,0.2115,0.1914,0.1108,0.0605,0.0202,0.0202,0.0,-0.0303,-0.0808,-0.0909,-0.101,-0.1415,-0.1617,-0.1617,-0.1617,-0.1617,-0.1617,-0.1617,-0.1617,-0.1617,-0.1617,-0.1617,-0.1617,-0.1617,-0.1717,-0.2019,-0.2019,-0.2322,-0.2725,-0.2725,-0.2927,-0.3432,-0.4734,-0.5035,-0.5135,-0.5434,-0.5436,-0.5536,-0.5837,-0.6237,-0.6539,-0.6539,-0.6939,-0.7238,-0.7238,-0.7238,-0.7238,-0.7238,-0.7238,0.0,0.0,-0.7932,-0.8432,-0.8432,-0.913,-0.9628,-0.9628,-0.9628,-0.9628,-0.9628,-0.9628,-0.9628,-0.9628,-0.9821,-0.992,-0.992,-1.0806,-1.1194,-1.1194,-1.1194,-1.1292,-1.159,-1.159,-1.1688,-1.198,-1.2273,-1.237,-1.237,-1.2662,-1.2764,-1.2764,-1.2764,-1.2764,-1.2764,-1.2764,-1.2764,-1.2764,-1.2764,-1.2764,-1.2764,1.0527,1.0418,1.0237,0.9476,0.9336,0.9251,0.903,0.8702,0.8361,0.8112,0.7781,0.7439,0.7185,0.7103,0.6942,0.6942,0.6831,0.6719,0.6624,0.6592,0.6535,0.6439,0.6037,0.5536,0.5035,0.4028,0.3423,0.3222,0.2116,0.1411,0.131,0.1109,0.1008,0.0806,0.0202,-0.0101,-0.0202,-0.0808,-0.1111,-0.1314,-0.1314,-0.1415,-0.1617,-0.1617,-0.1617,-0.1617,-0.1617,-0.1617,-0.1617,-0.1617,-0.1617,-0.1617,-0.1617,-0.1918,-0.222,-0.222,-0.2523,-0.2928,-0.313,-0.323,-0.3331,-0.3732,-0.3831,-0.3932,-0.4334,-0.4937,-0.534,-0.534,-0.5839,-0.6237,-0.6237,-0.6237,-0.6237,-0.6237,0.0,0.0,0.0,-0.6933,-0.7531,-0.763,-0.8326,-0.8924,-0.9031,-0.9031,-0.9031,-0.9031,-0.9031,-0.9031,-0.9031,-0.9031,-0.9031,-0.9031,-1.0212,-1.0801,-1.0801,-1.0801,-1.0904,-1.0998,-1.0998,-1.1096,-1.1194,-1.1585,-1.1785,-1.1883,-1.2273,-1.2467,-1.2467,-1.2467,-1.2467,-1.2467,-1.257,-1.257,-1.2662,-1.2764,-1.2764,-1.2764,1.1267,1.1457,1.1657,1.1774,1.1967,1.1978,1.1764,1.0781,0.9847,0.9478,0.8281,0.7382,0.7261,0.6923,0.6817,0.6817,0.6703,0.663,0.6619,0.6513,0.6445,0.6437,0.6334,0.6137,0.5536,0.5434,0.5133,0.4634,0.4031,0.3426,0.2619,0.2116,0.1513,0.0806,0.0706,0.0706,0.0706,0.0605,0.0202,-0.0505,-0.0505,-0.0909,-0.1617,-0.1617,-0.1617,-0.1617,-0.1617,-0.1617,-0.1617,-0.1617,-0.1617,-0.1617,-0.1617,-0.1617,-0.1617,-0.1617,-0.1718,-0.192,-0.2928,-0.323,-0.323,-0.323,-0.323,-0.323,-0.3331,-0.3331,-0.3432,-0.3432,-0.3432,-0.3531,-0.3531,-0.3531,-0.3531,-0.3531,0.0,0.0,-0.3531,-0.423,-0.4828,-0.5329,-0.6124,-0.6825,-0.7335,-0.7338,-0.7338,-0.7338,-0.7338,-0.7338,-0.7338,-0.7338,-0.7338,-0.7338,-0.8928,-0.9727,-0.9727,-0.9727,-0.992,-1.0413,-1.0413,-1.0703,-1.1194,-1.1194,-1.1296,-1.1292,-1.1292,-1.1292,-1.1292,-1.1292,-1.1292,-1.1389,-1.1878,-1.2078,-1.2078,-1.2667,-1.2764,-1.2764,1.2448,1.246,1.2429,1.2049,1.2065,1.2117,1.2014,1.1581,1.1189,1.0674,1.0124,0.9369,0.8584,0.8591,0.823,0.7004,0.7594,0.7711,0.7208,0.7163,0.6933,0.6437,0.6437,0.6337,0.6137,0.5737,0.5534,0.5336,0.4734,0.4332,0.4028,0.3827,0.3525,0.3222,0.2417,0.2015,0.2015,0.1108,0.0605,0.0303,0.0303,0.0202,-0.0101,-0.0101,-0.0404,-0.0808,-0.0808,-0.1212,-0.1617,-0.1617,-0.1617,-0.1617,-0.1617,-0.1617,-0.1617,-0.1617,-0.1617,-0.1718,-0.2121,-0.2222,-0.2323,-0.2624,-0.2724,-0.2826,-0.313,-0.323,-0.323,-0.323,-0.323,-0.323,-0.323,-0.323,-0.323,-0.323,0.0,-0.323,-0.323,-0.393,-0.4429,-0.473,-0.5425,-0.6024,-0.6226,-0.6226,-0.6226,-0.6226,-0.6226,-0.6326,-0.6728,-0.7033,-0.7238,-0.7238,-0.7836,-0.8134,-0.8134,-0.8134,-0.823,-0.8428,-0.8428,-0.8528,-0.8722,-0.9015,-0.9209,-0.9213,-0.9604,-0.9702,-0.9702,-0.9702,-0.9998,-1.0498,-1.0694,-1.1287,-1.1975,-1.2273,-1.2467,-1.2764,1.3543,1.3446,1.3407,1.2905,1.2914,1.296,1.296,1.2641,1.2244,1.1816,1.1378,1.0741,0.9768,0.9851,0.9477,0.8177,0.8685,0.8821,0.8223,0.8024,0.7531,0.6437,0.6437,0.6437,0.6437,0.6037,0.5837,0.5837,0.5336,0.5035,0.5035,0.4834,0.4834,0.4734,0.3827,0.3323,0.3123,0.2217,0.1512,0.121,0.121,0.1008,0.0806,0.0806,0.0504,0.0,0.0,-0.0404,-0.0808,-0.0808,-0.101,-0.1212,-0.1212,-0.1415,-0.1617,-0.1617,-0.1617,-0.1617,-0.1617,-0.1617,-0.1718,-0.2019,-0.212,-0.2221,-0.2625,-0.2726,-0.2726,-0.2726,-0.2726,-0.2726,-0.2726,-0.2726,-0.2726,-0.2726,-0.2726,-0.2726,-0.2726,-0.3126,-0.3627,-0.3728,-0.4225,-0.4626,-0.4828,-0.4828,-0.4828,-0.4828,-0.4828,-0.5029,-0.5327,-0.5732,-0.5937,-0.5937,-0.5937,-0.5937,-0.5937,-0.6736,-0.7238,-0.7238,-0.7238,-0.7238,-0.7238,-0.763,-0.7726,-0.7726,-0.812,-0.8315,-0.8315,-0.8315,-0.8616,-0.911,-0.9308,-0.9899,-1.0788,-1.0886,-1.1477,-1.2165,1.4298,1.4521,1.4714,1.4714,1.4932,1.5107,1.5107,1.4168,1.3351,1.3109,1.1869,1.0988,1.0801,1.0574,1.0467,1.0369,0.9891,0.9608,0.9608,0.9118,0.8127,0.6537,0.6437,0.6437,0.6437,0.6437,0.6437,0.6437,0.5837,0.5636,0.5634,0.5035,0.4834,0.4834,0.4834,0.4535,0.4033,0.4033,0.3226,0.2017,0.2017,0.1513,0.0806,0.0806,0.0806,0.0806,0.0806,0.0806,0.0806,0.0806,0.0303,-0.0404,-0.0404,-0.0909,-0.1617,-0.1617,-0.1617,-0.1617,-0.1617,-0.1617,-0.1617,-0.1617,-0.1617,-0.1617,-0.1617,-0.1617,-0.1617,-0.1617,-0.1617,-0.1617,-0.1617,-0.1617,-0.1617,-0.1617,-0.1617,-0.1617,-0.1617,-0.1617,-0.1818,-0.2321,-0.2422,-0.2623,-0.313,-0.323,-0.323,-0.323,-0.323,-0.323,-0.323,-0.323,-0.323,-0.323,-0.323,-0.323,-0.323,-0.5837,-0.7138,-0.7138,-0.7138,-0.7138,-0.7138,-0.7138,-0.7138,-0.7138,-0.7138,-0.7138,-0.7138,-0.7138,-0.7138,-0.7238,-0.7726,-0.8021,-0.8021,-0.8609,-0.9596,-1.0779,1.4298,1.4364,1.4485,1.4684,1.4781,1.4835,1.4835,1.453,1.4225,1.3951,1.3619,1.3002,1.2247,1.2446,1.2052,1.0774,1.1375,1.1477,1.0489,0.9912,0.9221,0.8127,0.8127,0.7829,0.7232,0.7232,0.6933,0.6437,0.6237,0.6137,0.6137,0.6037,0.5937,0.5934,0.5536,0.5236,0.5135,0.4734,0.4332,0.3929,0.3929,0.3627,0.3024,0.3024,0.242,0.1613,0.1613,0.131,0.0806,0.0806,0.0605,0.0403,0.0403,0.0303,0.0101,0.0101,0.0101,0.0,-0.0606,-0.0808,-0.0909,-0.1415,-0.1617,-0.1617,-0.1617,-0.1617,-0.1617,-0.1617,-0.1617,-0.1617,-0.1617,-0.1617,-0.1617,-0.1617,-0.1617,-0.1617,-0.1617,-0.1617,-0.1617,-0.1818,-0.1818,-0.1919,-0.202,-0.2121,-0.2121,-0.2121,-0.2423,-0.2623,-0.2623,-0.3027,-0.323,-0.323,-0.323,-0.323,-0.323,-0.4332,-0.4935,-0.4935,-0.5334,-0.5534,-0.5534,-0.5534,-0.5534,-0.5534,-0.5534,-0.5534,-0.5534,-0.5534,-0.5837,-0.6342,-0.6539,-0.7132,-0.8024,-0.8219,-0.8711,-0.9399,1.4298,1.4298,1.4352,1.4521,1.4552,1.4552,1.4552,1.4552,1.4491,1.4322,1.4298,1.4004,1.3414,1.3624,1.3426,1.2247,1.2748,1.2657,1.1673,1.1091,1.0605,1.0105,0.9908,0.9217,0.8127,0.8028,0.7829,0.7332,0.7033,0.7033,0.7332,0.6734,0.6534,0.6833,0.6234,0.5837,0.5534,0.5233,0.5035,0.4834,0.4834,0.4634,0.4334,0.4334,0.383,0.3124,0.3124,0.2821,0.2416,0.2416,0.2015,0.1511,0.1008,0.0806,0.0806,0.0806,0.0806,0.0706,0.0202,0.0101,0.0,-0.0505,-0.1111,-0.1617,-0.1617,-0.1617,-0.1617,-0.1617,-0.1617,-0.1617,-0.1617,-0.1617,-0.1617,-0.1617,-0.1617,-0.1617,-0.1617,-0.1617,-0.1617,-0.1617,-0.1617,-0.1617,-0.1617,-0.1617,-0.1617,-0.1617,-0.1919,-0.212,-0.212,-0.2424,-0.2524,-0.2524,-0.2524,-0.2524,-0.2524,-0.3127,-0.3429,-0.3732,-0.4033,-0.4234,-0.4533,-0.4533,-0.4634,-0.4834,-0.4834,-0.4834,-0.4834,-0.4834,-0.5138,-0.5539,-0.5539,-0.6034,-0.6728,-0.6728,-0.7322,-0.8014,1.4298,1.4298,1.4298,1.4298,1.4298,1.4298,1.4298,1.4298,1.4298,1.4298,1.4298,1.4298,1.4298,1.4298,1.4298,1.4298,1.3823,1.3346,1.2861,1.237,1.2078,1.2078,1.1585,1.06,0.9118,0.8924,0.8825,0.8825,0.8028,0.8127,0.8726,0.7332,0.7033,0.763,0.6933,0.6334,0.5734,0.5734,0.5436,0.4935,0.4935,0.4935,0.4834,0.4834,0.4834,0.4834,0.4834,0.4834,0.4834,0.4834,0.4028,0.2719,0.1511,0.1108,0.1108,0.1108,0.1108,0.1108,0.1108,0.1008,0.1008,0.1008,-0.0202,-0.1313,-0.1415,-0.1516,-0.1617,-0.1516,-0.1516,-0.1516,-0.1516,-0.1516,-0.1516,-0.1516,-0.1516,-0.1617,-0.1516,-0.1516,-0.1617,-0.1617,-0.1617,-0.1617,-0.1617,-0.1617,-0.1617,-0.1617,-0.1617,-0.1617,-0.1617,-0.1617,-0.1617,-0.1617,-0.1617,-0.1617,-0.1617,-0.212,-0.2624,-0.313,-0.313,-0.3432,-0.3932,-0.3932,-0.4234,-0.4734,-0.4734,-0.4734,-0.4834,-0.4834,-0.4834,-0.4834,-0.4834,-0.4834,-0.4834,-0.4834,-0.5532,-0.6628,1.4298,1.4298,1.4298,1.4298,1.4298,1.4298,1.4298,1.4298,1.4298,1.4298,1.4298,1.4298,1.4298,1.4298,1.4298,1.4298,1.3823,1.3443,1.3346,1.2861,1.2662,1.2662,1.2078,1.1683,1.1287,1.031,0.9422,0.8825,0.8627,0.8627,0.8825,0.8425,0.8326,0.8524,0.8326,0.7829,0.7132,0.7132,0.6734,0.6034,0.6034,0.5834,0.5434,0.5434,0.5133,0.4834,0.4834,0.4834,0.4834,0.4834,0.4632,0.4331,0.4028,0.3927,0.3927,0.3927,0.3927,0.3825,0.3119,0.3017,0.2818,0.2215,0.1813,0.1108,-0.0303,-0.1111,-0.1415,-0.0808,-0.0707,-0.0707,-0.0707,-0.0707,-0.0707,-0.0707,-0.1212,-0.1415,-0.0707,-0.1212,-0.1617,-0.1617,-0.1617,-0.1617,-0.1617,-0.1617,-0.1617,-0.1617,-0.1617,-0.1617,-0.1617,-0.1617,-0.1617,-0.1617,-0.1617,-0.1617,-0.1617,-0.1718,-0.2019,-0.2623,-0.3027,-0.323,-0.3331,-0.3331,-0.3632,-0.4133,-0.4133,-0.4435,-0.4834,-0.4834,-0.4834,-0.4834,-0.4834,-0.4834,-0.4834,-0.4834,-0.5033,-0.5434,1.4586,1.449,1.449,1.4298,1.4298,1.4298,1.4298,1.4298,1.4298,1.4298,1.4298,1.4298,1.4298,1.4298,1.4298,1.4298,1.4016,1.3919,1.3919,1.3437,1.3152,1.3152,1.2662,1.237,1.237,1.1389,1.0605,0.9912,0.9517,0.962,0.9908,0.9122,0.9023,0.9324,0.8924,0.8528,0.8127,0.8127,0.7928,0.7531,0.7531,0.7332,0.7129,0.6731,0.6334,0.6134,0.5734,0.5534,0.5536,0.5236,0.5135,0.5135,0.4834,0.4834,0.4834,0.4834,0.4834,0.4734,0.4327,0.4126,0.4026,0.3624,0.3221,0.2616,0.1209,0.0605,0.0403,0.0806,0.0706,0.0504,0.0504,0.0303,0.0202,0.0202,-0.0202,-0.0303,0.0101,-0.0202,-0.0504,-0.0504,-0.0808,-0.101,-0.101,-0.101,-0.101,-0.101,-0.1415,-0.1415,-0.101,-0.1415,-0.1415,-0.101,-0.1415,-0.1617,-0.1617,-0.1617,-0.1717,-0.2019,-0.2323,-0.2524,-0.2826,-0.2826,-0.3128,-0.3632,-0.3632,-0.3732,-0.4033,-0.4334,-0.4435,-0.4433,-0.4734,-0.4834,-0.4834,-0.4834,-0.4834,-0.4935,1.5432,1.5248,1.5153,1.4956,1.486,1.4765,1.4669,1.458,1.449,1.4298,1.4298,1.4298,1.4298,1.4298,1.4298,1.4298,1.4298,1.4298,1.4298,1.3919,1.3636,1.3636,1.3152,1.2958,1.2958,1.237,1.1878,1.1296,1.0609,1.0507,1.1194,0.9809,0.9521,1.0216,0.9517,0.9122,0.9023,0.9023,0.8924,0.8825,0.8825,0.8825,0.8726,0.8028,0.7829,0.773,0.7033,0.6736,0.6534,0.6134,0.5834,0.5634,0.5236,0.5035,0.5035,0.5035,0.5035,0.5035,0.5035,0.5035,0.5035,0.5035,0.4528,0.3922,0.3219,0.2717,0.2416,0.2616,0.2213,0.1911,0.1911,0.1611,0.131,0.131,0.1209,0.1108,0.1209,0.1209,0.1108,0.1108,0.0403,-0.0101,-0.0101,-0.0101,-0.0202,-0.0202,-0.0808,-0.0909,-0.0202,-0.0808,-0.0909,-0.0202,-0.0808,-0.1212,-0.1212,-0.1212,-0.1212,-0.1212,-0.1212,-0.1615,-0.222,-0.222,-0.2523,-0.3029,-0.3029,-0.313,-0.323,-0.3632,-0.3833,-0.3932,-0.4334,-0.4533,-0.4533,-0.4634,-0.4734,-0.4834,1.7576,1.7569,1.7569,1.7475,1.7196,1.6633,1.6069,1.552,1.5057,1.4394,1.4298,1.4298,1.4298,1.4298,1.4298,1.4298,1.4298,1.4298,1.4298,1.4202,1.4202,1.4202,1.3727,1.3443,1.3443,1.2958,1.2467,1.1883,1.1292,1.1096,1.1194,1.0998,1.09,1.0998,1.09,1.0507,0.9821,0.9821,0.9422,0.8825,0.8825,0.8825,0.8825,0.8726,0.8627,0.8627,0.8528,0.8028,0.7431,0.7332,0.6833,0.6237,0.6234,0.6137,0.6137,0.6137,0.6137,0.6137,0.6137,0.6137,0.6137,0.6137,0.6134,0.6032,0.5932,0.4022,0.2616,0.332,0.3419,0.3318,0.3318,0.3318,0.3218,0.3218,0.2616,0.2415,0.3119,0.2616,0.2214,0.2214,0.1711,0.1309,0.1309,0.0907,0.0605,0.0605,0.0504,0.0504,0.0605,0.0504,0.0504,0.0605,0.0504,0.0504,0.0504,0.0504,0.0504,0.0504,0.0504,-0.0303,-0.1718,-0.1718,-0.2019,-0.2522,-0.2522,-0.2725,-0.323,-0.323,-0.3331,-0.3331,-0.3432,-0.343,-0.3432,-0.3932,-0.4435,-0.4834,1.8395,1.8211,1.8211,1.8033,1.7848,1.7569,1.7282,1.7008,1.664,1.6075,1.5988,1.59,1.5629,1.5153,1.4867,1.4867,1.458,1.4298,1.4298,1.4298,1.4298,1.4298,1.4112,1.3919,1.3919,1.3437,1.3055,1.2856,1.237,1.1975,1.1688,1.1688,1.1487,1.1194,1.1194,1.0998,1.0703,1.0703,1.0507,1.0109,1.0109,1.0109,1.0109,0.962,0.9422,0.9422,0.8924,0.8528,0.8226,0.8226,0.8028,0.773,0.773,0.7431,0.7033,0.7033,0.6734,0.6437,0.6437,0.6437,0.6437,0.6437,0.6437,0.6437,0.6437,0.5529,0.4726,0.5127,0.4929,0.4726,0.4726,0.4427,0.4227,0.4227,0.3925,0.3825,0.4227,0.3925,0.3623,0.3119,0.3219,0.3219,0.2715,0.2515,0.2315,0.2315,0.1913,0.1913,0.2315,0.1913,0.1913,0.2315,0.1913,0.1712,0.1712,0.1409,0.1208,0.1208,0.0907,0.0403,-0.0303,-0.0303,-0.0403,-0.0605,-0.111,-0.1414,-0.1716,-0.2423,-0.2725,-0.2826,-0.313,-0.323,-0.323,-0.3432,-0.3732,-0.3932]}]]